[[[{"header":{"parameterUnit":"kt","parameterCategory":2,"dx":1,"dy":1,"la1":29.764190673828125,"la2":30.86408042907715,"lo1":-88.46762084960938,"lo2":-86.9344482421875,"nx":47,"ny":34,"refTime":"2022-09-28T00:00:00:Z","depth":"0","parameterNumber":2,"parameterNumberName":"U-component_of_CURRENTS"},"data":[0.0667,0.0966,0.1393,0.1842,0.2157,0.2232,0.2162,0.2141,0.2226,0.2397,0.2584,0.2675,0.2654,0.2659,0.2771,0.2947,0.3097,0.3203,0.3364,0.3679,0.4036,0.4255,0.4378,0.4496,0.4656,0.48,0.465,0.4325,0.4303,0.4778,0.5457,0.6097,0.6797,0.7694,0.8596,0.9141,0.9375,0.9509,0.9733,1.0203,1.0785,1.1196,1.1394,1.15,1.158,1.1548,1.1308,0.0609,0.0854,0.1127,0.1431,0.1687,0.1842,0.1965,0.2136,0.2387,0.2664,0.284,0.2862,0.2835,0.2835,0.2904,0.3033,0.315,0.3257,0.3412,0.3705,0.4132,0.4506,0.4704,0.4773,0.4778,0.4778,0.4645,0.4282,0.4079,0.4335,0.4869,0.5483,0.614,0.6834,0.771,0.8553,0.9087,0.9381,0.9642,1.0091,1.0603,1.094,1.1143,1.1319,1.1447,1.1452,1.1297,0.0603,0.0828,0.1068,0.1319,0.1543,0.1741,0.1954,0.2221,0.2525,0.2782,0.2931,0.299,0.3011,0.3033,0.3091,0.3161,0.3225,0.3316,0.3454,0.3652,0.3908,0.4191,0.4394,0.4479,0.4442,0.4357,0.4378,0.4341,0.4245,0.4341,0.4528,0.4896,0.5569,0.6247,0.7,0.7907,0.8676,0.9231,0.9637,1.008,1.0513,1.0732,1.0833,1.0988,1.1132,1.1223,1.1217,0.0705,0.0876,0.1073,0.1308,0.1559,0.1821,0.2093,0.2376,0.2659,0.2883,0.3033,0.3123,0.3182,0.3241,0.3289,0.3316,0.3326,0.338,0.3497,0.3636,0.3764,0.3871,0.3956,0.4031,0.4058,0.4031,0.4234,0.4528,0.4624,0.4714,0.4693,0.4479,0.4512,0.5131,0.5932,0.6813,0.7886,0.8836,0.952,1.007,1.0529,1.071,1.0683,1.0737,1.0908,1.1111,1.1249,0.0812,0.0956,0.1159,0.1388,0.1634,0.1922,0.2226,0.252,0.2776,0.2963,0.3081,0.3166,0.3251,0.3353,0.3433,0.3454,0.3438,0.3465,0.3545,0.362,0.3668,0.3705,0.3759,0.3876,0.4015,0.41,0.4373,0.4869,0.5152,0.5195,0.52,0.4869,0.4282,0.3951,0.4357,0.5344,0.6444,0.7699,0.8911,0.9797,1.0449,1.0833,1.0854,1.0801,1.0918,1.1164,1.1394,0.0913,0.1068,0.1265,0.1495,0.1757,0.2034,0.2306,0.2552,0.275,0.2878,0.2958,0.3027,0.3155,0.3332,0.3465,0.3508,0.3513,0.354,0.3572,0.3588,0.3567,0.354,0.3572,0.3721,0.3967,0.4197,0.4447,0.4992,0.5585,0.5814,0.5772,0.5595,0.5259,0.4709,0.4314,0.449,0.5318,0.6567,0.7902,0.9119,1.007,1.0721,1.1089,1.1185,1.1239,1.1404,1.1623,0.0998,0.1185,0.1399,0.1628,0.1858,0.2088,0.2306,0.2499,0.2632,0.2712,0.2771,0.2867,0.3033,0.3219,0.3348,0.3417,0.347,0.3529,0.3556,0.3529,0.3476,0.3422,0.3438,0.3577,0.3844,0.4138,0.4389,0.4773,0.5425,0.6028,0.6311,0.6316,0.6135,0.5761,0.5264,0.4885,0.4976,0.5873,0.7261,0.8532,0.9621,1.0454,1.1036,1.1484,1.173,1.1831,1.1992,0.1004,0.1212,0.1442,0.1671,0.1874,0.2066,0.2232,0.2381,0.2488,0.2573,0.267,0.2792,0.2936,0.3059,0.3155,0.3251,0.3364,0.3449,0.3465,0.3417,0.3353,0.331,0.3342,0.3486,0.3705,0.3962,0.4207,0.4453,0.4832,0.535,0.5852,0.622,0.6386,0.6332,0.6006,0.5425,0.4949,0.5056,0.599,0.7432,0.8767,0.9813,1.0667,1.149,1.2098,1.2339,1.2472,0.1004,0.1217,0.1447,0.1666,0.1853,0.2002,0.2136,0.2253,0.2371,0.2493,0.2621,0.2755,0.2862,0.2947,0.3027,0.3123,0.3225,0.3284,0.3284,0.3257,0.3214,0.3203,0.3262,0.3396,0.3583,0.3791,0.3994,0.4175,0.4351,0.4597,0.4944,0.5318,0.5643,0.5889,0.6028,0.5852,0.5248,0.4752,0.4939,0.5868,0.7197,0.85,0.9685,1.0913,1.1986,1.2574,1.2851,0.1191,0.1351,0.1532,0.1719,0.1874,0.197,0.2034,0.212,0.2253,0.2419,0.2627,0.2862,0.3059,0.315,0.3134,0.3081,0.3059,0.3065,0.307,0.3075,0.307,0.3086,0.3155,0.3278,0.3438,0.3604,0.3769,0.393,0.4074,0.4202,0.4341,0.4506,0.4698,0.4933,0.5216,0.5542,0.5638,0.5222,0.4805,0.496,0.5681,0.6818,0.8131,0.9642,1.1185,1.2259,1.2824,0.1399,0.142,0.1516,0.1709,0.1879,0.1943,0.1954,0.2056,0.228,0.2595,0.2947,0.3316,0.3631,0.3759,0.3705,0.3481,0.3171,0.2963,0.2894,0.2888,0.291,0.2953,0.3022,0.3118,0.323,0.3369,0.3518,0.3668,0.3801,0.394,0.4063,0.4159,0.4239,0.4335,0.4517,0.4816,0.5334,0.5643,0.5318,0.4992,0.5126,0.5665,0.662,0.7923,0.9562,1.1132,1.2141,0.1463,0.1367,0.1393,0.1586,0.1831,0.1917,0.1671,0.1591,0.2034,0.2638,0.2953,0.3262,0.3422,0.3337,0.3396,0.3369,0.315,0.2888,0.2728,0.2691,0.2718,0.2776,0.284,0.2894,0.2963,0.3054,0.3177,0.331,0.3449,0.3604,0.378,0.394,0.4079,0.4218,0.4351,0.449,0.4746,0.5323,0.567,0.543,0.5259,0.5403,0.5809,0.654,0.7699,0.9199,1.0555,0.1415,0.1511,0.1313,0.1196,0.1543,0.1725,0.0796,0.0486,0.1436,0.2093,0.2237,0.2814,0.2846,0.2467,0.2931,0.3155,0.2969,0.2696,0.252,0.2483,0.252,0.2584,0.2611,0.2595,0.2611,0.2664,0.2744,0.2856,0.3017,0.3225,0.347,0.3716,0.393,0.4122,0.4298,0.4394,0.4447,0.4741,0.5323,0.5675,0.5622,0.5547,0.5627,0.5905,0.6391,0.7186,0.8292,0,0,0.0331,0.063,0.1159,0.2013,0.0769,0.0251,0.165,0.197,0.1778,0.1644,0,0.0582,0.2109,0.3177,0.2958,0.2472,0.2339,0.2371,0.2456,0.2654,0.2557,0.2258,0.2221,0.228,0.2349,0.2451,0.2584,0.2787,0.3091,0.3406,0.3679,0.3898,0.4052,0.4132,0.4164,0.4255,0.4624,0.5206,0.5681,0.5953,0.6108,0.6183,0.6193,0.6327,0.6765,0.2024,0.2018,0.1778,0.118,0.0705,0,0,0.0641,0.1655,0.1687,0.1132,0.1538,0.1991,0.181,0,0,0,0,0,0,0,0,0.063,0.1559,0.1954,0.2082,0.2184,0.244,0.2477,0.2429,0.2686,0.3011,0.3326,0.3524,0.3599,0.3609,0.3604,0.3705,0.3972,0.4437,0.5093,0.5788,0.6332,0.6674,0.6834,0.6802,0.6738,0.3225,0.2814,0.2456,0.1527,0.0571,0.1196,0.2573,0.2659,0.2269,0,0,0,-0.0171,0.0587,0.1538,0.1361,0.1073,0.0908,0.0763,0.0582,0.047,0,0,0,0,0,0,0,0.0438,0.1431,0.2226,0.2707,0.3284,0.3417,0.3113,0.292,0.2846,0.3107,0.3567,0.401,0.449,0.5024,0.5526,0.5948,0.6364,0.6829,0.7122,0.362,0.3412,0.2557,0.1634,0.0897,0.1244,0.1965,0.1698,0.1671,0.1917,0.1564,0.0529,-0.0593,-0.0715,-0.0166,0.0331,0.0673,0.063,0.04,0.0139,-0.0005,0,0,0,0,0,0,0,0,0,0,0,0,0.0828,0.2077,0.2322,0.2072,0.2472,0.3294,0.3631,0.3759,0.4031,0.4293,0.4586,0.5019,0.567,0.6503,0,0.0763,0.1965,0.1783,0.0432,-0.0299,0,0,0,0,0,-0.0539,-0.1292,-0.1233,-0.0742,-0.0411,0.0,0.0235,0.016,0.016,0,0,0,0,0,0,0,0,0,0,0,0,0,0,0,0,0.086,0.0769,0,0,0.2445,0.3193,0.3593,0.3828,0.4084,0.4709,0.519,0,0,0,0.0342,0.0646,0.0614,0,0,0,0,0,-0.0561,-0.1207,-0.1196,-0.086,-0.0603,-0.0198,-0.0272,-0.0422,0,0,0,0,0,0,0,0,0,0,0,0,0,0,0,0,0,0,-0.0363,-0.0726,0,0,0,0,0,0,0,0.0961,0,0,0,0,0,0,0,0,0,0,0,-0.055,-0.0956,-0.0828,-0.0555,-0.008,0.0705,0.1297,0,0,0,0,0,0,0,0,0,0,0,0,0,0,0,0,0,0,0,0,-0.0486,-0.0619,0.024,0.0737,0,0,0,0,0,0,0,0,0,0,0,0,0,0,0,0,-0.0416,-0.039,-0.0315,-0.0598,0.0069,0.0662,0,0,0,0,0,0,0,0,0,0,0,0,0,0,0,0,0,0,0,0,0,0,-0.0352,-0.0753,-0.1078,0.0422,0.1538,0.0897,0,0,0,0,0,0,0,0,0,0,0,0,0,0,-0.0096,-0.071,-0.0998,-0.0107,0.0571,0,0,0,0,0,0,0,0,0,0,0,0,0,0,0,0,0,0,0,0,0,0,0,0,0,0,-0.0085,-0.0176,0,0,0,0,0,0,0,0,0,0,0,0,0,0,-0.0571,-0.126,-0.1185,-0.0198,0.0609,0,0,0,0,0,0,0,0,0,0,0,0,0,0,0,0,0,0,0,0,0,0,0,0,0,0,0,0,0,0,0,0,0,0,0,0,0,0,0,0,0,0,-0.0763,-0.1388,-0.1217,-0.0352,0.0481,0,0,0,0,0,0,0,0,0,0,0,0,0,0,0,0,0,0,0,0,0,0,0,0,0,0,0,0,0,0,0,0,0,0,0,0,0,0,0,0,0,0,-0.0833,-0.1463,-0.1239,-0.0497,0.0224,0,0,0,0,0,0,0,0,0,0,0,0,0,0,0,0,0,0,0,0,0,0,0,0,0,0,0,0,0,0,0,0,0,0,0,0,0,0,0,0,0,0,0,-0.0187,-0.0288,0.0048,0.0294,0,0,0,0,0,0,0,0,0,0,0,0,0,0,0,0,0,0,0,0,0,0,0,0,0,0,0,0,0,0,0,0,0,0,0,0,0,0,0,0,0,0,0,0.0048,0.1303,0.1773,0.103,0,0,0,0,0,0,0,0,0,0,0,0,0,0,0,0,0,0,0,0,0,0,0,0,0,0,0,0,0,0,0,0,0,0,0,0,0,0,0,0,0,0,0,0,0.1308,0.2621,0,0,0,0,0,0,0,0,0,0,0,0,0,0,0,0,0,0,0,0,0,0,0,0,0,0,0,0,0,0,0,0,0,0,0,0,0,0,0,0,0,0,0,0,0,0,0,0,0,0,0,0,0,0,0,0,0,0,0,0,0,0,0,0,0,0,0,0,0,0,0,0,0,0,0,0,0,0,0,0,0,0,0,0,0,0,0,0,0,0,0,0,0,0,0,0,0,0,0,0,0,0,0,0,0,0,0,0,0,0,0,0,0,0,0,0,0,0,0,0,0,0,0,0,0,0,0,0,0,0,0,0,0,0,0,0,0,0,0,0,0,0,0,0,0,0,0,0,0,0,0,0,0,0,0,0,0,0,0,0,0,0,0,0,0,0,0,0,0,0,0,0,0,0,0,0,0,0,0,0,0,0,0,0,0,0,0,0,0,0,0,0,0,0,0,0,0,0,0,0,0,0,0,0,0,0,0,0,0,0,0,0,0,0,0,0,0,0,0,0,0,0,0,0,0,0,0,0,0,0,0,0,0,0,0,0,0,0,0,0,0,0,0,0,0,0,0,0,0,0,0,0,0,0,0,0,0,0,0,0,0,0,0,0,0,0,0,0,0,0,0,0,0,0,0,0,0,0,0,0,0,0,0,0,0,0,0,0,0,0,0,0,0,0,0,0,0,0,0,0,0,0,0,0,0,0,0,0,0,0,0,0,0]}],[{"header":{"parameterUnit":"kt","parameterCategory":2,"dx":1,"dy":1,"la1":29.764190673828125,"la2":30.86408042907715,"lo1":-88.46762084960938,"lo2":-86.9344482421875,"nx":47,"ny":34,"refTime":"2022-09-28T00:00:00:Z","depth":"0","parameterNumber":3,"parameterNumberName":"V-component_of_CURRENTS"},"data":[0.0347,0.0587,0.0742,0.0678,0.0497,0.0432,0.0454,0.0427,0.0299,0.0032,-0.032,-0.0539,-0.0577,-0.0539,-0.0571,-0.0641,-0.071,-0.0635,-0.0448,-0.0246,-0.0176,-0.0182,-0.0187,-0.0251,-0.0427,-0.0224,0.0331,0.0918,0.1271,0.1281,0.1367,0.1602,0.2066,0.2696,0.3049,0.3134,0.2899,0.2445,0.1922,0.1244,0.0598,0.0443,0.0961,0.1767,0.2376,0.2579,0.2803,0.031,0.0358,0.0368,0.0347,0.0358,0.0374,0.0331,0.0262,0.0133,-0.0101,-0.0363,-0.0497,-0.0502,-0.0475,-0.0486,-0.0518,-0.0587,-0.0577,-0.0411,-0.0203,-0.016,-0.0262,-0.0342,-0.0336,-0.0299,-0.0091,0.0224,0.0662,0.1036,0.087,0.0545,0.0806,0.1351,0.2258,0.3049,0.3577,0.3727,0.3486,0.299,0.2194,0.1351,0.1073,0.1586,0.2408,0.2936,0.3022,0.3043,0.0347,0.0384,0.0347,0.0288,0.0214,0.0155,0.0096,0.0032,-0.008,-0.0262,-0.0411,-0.0464,-0.047,-0.0497,-0.0545,-0.0566,-0.0603,-0.0587,-0.0464,-0.0272,-0.0112,-0.0069,-0.0069,0.008,0.031,0.0582,0.0769,0.0699,0.0854,0.0694,-0.031,-0.0534,0.0091,0.1159,0.2461,0.3502,0.4191,0.4346,0.4026,0.3241,0.2232,0.1698,0.2066,0.2814,0.323,0.3214,0.3102,0.0374,0.0448,0.0448,0.0374,0.0267,0.0149,0.0053,-0.0032,-0.0155,-0.0294,-0.04,-0.0454,-0.0481,-0.0545,-0.063,-0.0651,-0.0662,-0.0635,-0.0539,-0.0379,-0.0176,0.0027,0.0256,0.0539,0.0785,0.0993,0.1143,0.0742,0.0614,0.0416,-0.0555,-0.1618,-0.1618,-0.0966,0.0395,0.2024,0.3583,0.4528,0.4768,0.4319,0.3289,0.2408,0.2381,0.2942,0.3337,0.3353,0.3198,0.0272,0.0406,0.047,0.0443,0.04,0.0304,0.0176,0.0043,-0.0112,-0.0288,-0.0438,-0.0529,-0.0582,-0.0646,-0.0726,-0.0721,-0.0715,-0.0678,-0.0598,-0.0464,-0.0267,-0.0021,0.031,0.0662,0.0913,0.1095,0.1249,0.0828,0.04,0.0123,-0.0416,-0.1367,-0.1959,-0.2194,-0.166,-0.0491,0.1228,0.3065,0.4341,0.4752,0.4277,0.3342,0.2808,0.2995,0.338,0.3513,0.3406,0.0069,0.0251,0.0352,0.0379,0.0374,0.0304,0.0171,0.0005,-0.0187,-0.0411,-0.0598,-0.071,-0.0747,-0.078,-0.0828,-0.078,-0.0753,-0.0715,-0.0646,-0.0518,-0.0336,-0.008,0.0267,0.0646,0.0924,0.1089,0.1223,0.1036,0.039,-0.0107,-0.0539,-0.0929,-0.1313,-0.1655,-0.1639,-0.1415,-0.0667,0.0683,0.228,0.3604,0.4218,0.4052,0.3534,0.3289,0.3406,0.3529,0.3508,-0.0251,-0.0085,0.0037,0.0112,0.0128,0.0069,-0.0064,-0.023,-0.0422,-0.063,-0.0785,-0.0844,-0.0844,-0.0865,-0.0897,-0.0833,-0.0796,-0.0763,-0.0683,-0.055,-0.0363,-0.0117,0.0219,0.0587,0.0892,0.1068,0.118,0.1175,0.0683,0.0043,-0.0534,-0.0972,-0.1249,-0.1351,-0.1207,-0.095,-0.0619,-0.0064,0.071,0.1853,0.2985,0.3727,0.3935,0.3748,0.3556,0.3449,0.339,-0.0796,-0.0657,-0.0529,-0.0395,-0.0315,-0.031,-0.04,-0.0545,-0.0694,-0.0828,-0.0881,-0.0865,-0.0833,-0.0854,-0.0886,-0.0844,-0.0833,-0.0822,-0.0742,-0.0587,-0.039,-0.016,0.0139,0.047,0.078,0.1004,0.1148,0.1212,0.1057,0.0635,0.0032,-0.0582,-0.1078,-0.1399,-0.1452,-0.1132,-0.0582,0.0214,0.0774,0.134,0.2104,0.2969,0.3716,0.3978,0.378,0.3486,0.3273,-0.1265,-0.1137,-0.1025,-0.086,-0.0694,-0.0598,-0.0625,-0.0721,-0.0822,-0.0886,-0.0881,-0.0844,-0.0801,-0.0796,-0.0806,-0.0785,-0.0822,-0.0854,-0.079,-0.0641,-0.0443,-0.024,0.0005,0.0288,0.0577,0.0854,0.1078,0.1217,0.1233,0.1068,0.0689,0.0208,-0.0294,-0.0769,-0.1175,-0.1367,-0.103,-0.0166,0.0785,0.1474,0.205,0.2787,0.3583,0.3978,0.3855,0.3534,0.3251,-0.1377,-0.1271,-0.1207,-0.1073,-0.0876,-0.0715,-0.0721,-0.0817,-0.0886,-0.0892,-0.0897,-0.0966,-0.0982,-0.0956,-0.0897,-0.0801,-0.0796,-0.0828,-0.0785,-0.0662,-0.0486,-0.0315,-0.0139,0.0075,0.0331,0.0625,0.0908,0.1127,0.1228,0.1169,0.0945,0.0651,0.0342,0.0011,-0.0331,-0.0747,-0.095,-0.0566,0.0251,0.1175,0.1885,0.2621,0.3497,0.3999,0.3823,0.3401,0.3086,-0.1265,-0.1201,-0.1276,-0.1228,-0.1062,-0.086,-0.1004,-0.1233,-0.1292,-0.1185,-0.1265,-0.1538,-0.165,-0.1703,-0.1468,-0.1084,-0.0838,-0.078,-0.0742,-0.0651,-0.0502,-0.0358,-0.023,-0.0096,0.0085,0.0342,0.0641,0.0902,0.1073,0.1084,0.0929,0.0705,0.0475,0.0288,0.0133,0.0,-0.0219,-0.0459,-0.0182,0.0566,0.1367,0.1959,0.2691,0.3401,0.3529,0.3081,0.2686,-0.1164,-0.1153,-0.1297,-0.1468,-0.1479,-0.1196,-0.1607,-0.2232,-0.2274,-0.1901,-0.1858,-0.2136,-0.2349,-0.2477,-0.2141,-0.1495,-0.0993,-0.0769,-0.0683,-0.0619,-0.0491,-0.0347,-0.023,-0.0166,-0.008,0.0085,0.032,0.0571,0.078,0.0865,0.078,0.0609,0.0427,0.0272,0.0171,0.0155,0.0251,0.0048,-0.024,-0.0011,0.0561,0.0929,0.1324,0.2029,0.2472,0.2365,0.2018,-0.1153,-0.1169,-0.0929,-0.166,-0.2104,-0.1805,-0.2285,-0.3187,-0.3214,-0.2312,-0.1943,-0.212,-0.2573,-0.2093,-0.2296,-0.1869,-0.1319,-0.0865,-0.063,-0.0619,-0.0534,-0.0395,-0.0155,-0.0144,-0.0171,-0.0117,0.0032,0.0246,0.0464,0.0587,0.0561,0.0459,0.0326,0.0187,0.0064,0.0011,0.0123,0.0251,-0.0011,-0.0272,-0.0304,-0.0166,0.0096,0.0491,0.0812,0.1121,0.11,0,0,-0.0812,-0.1938,-0.2686,-0.2194,-0.2584,-0.3134,-0.3278,-0.2029,-0.1506,-0.1057,0,-0.1313,-0.2226,-0.2061,-0.1538,-0.0945,-0.0614,-0.0635,-0.0582,-0.0459,0.0182,-0.0053,-0.0267,-0.0336,-0.0288,-0.0117,0.0219,0.0294,0.0299,0.0267,0.0208,0.0123,-0.0027,-0.0155,-0.0133,0.0011,0.0091,-0.0171,-0.0555,-0.0828,-0.0897,-0.0924,-0.0721,-0.0315,0.0005,-0.0694,-0.0491,-0.1175,-0.2232,-0.2691,0,0,-0.33,-0.2985,-0.1778,-0.1249,-0.0171,-0.0705,-0.0203,0,0,0,0,0,0,0,0,0.047,0.0011,-0.0336,-0.047,-0.0481,-0.0331,0.0464,0.0101,0.0005,-0.0016,0.0021,0.0139,-0.0021,-0.0235,-0.0358,-0.0299,0.0,0.0117,-0.0091,-0.0534,-0.0998,-0.1351,-0.1479,-0.1399,-0.1084,-0.1271,-0.102,-0.1479,-0.2104,-0.2194,-0.1735,-0.1885,-0.3214,-0.1586,0,0,0,-0.1335,-0.0139,-0.0817,-0.055,-0.0438,-0.0358,-0.0304,-0.032,-0.0262,0,0,0,0,0,0,0,0.0368,-0.0523,-0.0144,-0.0187,-0.0101,0.0566,0.0123,-0.0208,-0.0587,-0.0817,-0.0326,0.0176,0.0246,0.0032,-0.0326,-0.0673,-0.1009,-0.1335,-0.1575,-0.1148,-0.0561,-0.1313,-0.1847,-0.2205,-0.3791,-0.3764,-0.2627,-0.0246,0.0,0.0,-0.0513,-0.0769,-0.1105,-0.1847,-0.1543,-0.1111,-0.0603,-0.0438,-0.039,-0.0529,0,0,0,0,0,0,0,0,0,0,0,0,0.0961,0.0235,0.0016,-0.0758,-0.1709,-0.0603,0.0641,0.0438,0.0203,0.0021,-0.0101,-0.0224,-0.0347,-0.0598,0,-0.0064,-0.0972,-0.1127,-0.1655,-0.2696,0,0,0,0,0,-0.0646,-0.0032,-0.0961,-0.2056,-0.2499,-0.2216,-0.0806,-0.0459,-0.0155,0,0,0,0,0,0,0,0,0,0,0,0,0,0,0,0,-0.0886,-0.1949,0,0,0.0657,0.0294,0.0091,-0.0005,-0.0011,0.0198,0.0651,0,0,0,-0.0486,-0.0844,-0.1281,0,0,0,0,0,-0.0187,0.0384,-0.0598,-0.1773,-0.2974,-0.3588,-0.1447,-0.0657,0,0,0,0,0,0,0,0,0,0,0,0,0,0,0,0,0,0,-0.1634,-0.1062,0,0,0,0,0,0,0,0.0924,0,0,0,0,0,0,0,0,0,0,0,-0.0069,0.0411,-0.0187,-0.1324,-0.2579,-0.3882,-0.1767,0,0,0,0,0,0,0,0,0,0,0,0,0,0,0,0,0,0,0,0,-0.213,-0.1345,-0.1084,-0.1009,0,0,0,0,0,0,0,0,0,0,0,0,0,0,0,0,-0.0085,-0.0705,0.0117,-0.11,-0.2226,-0.3033,0,0,0,0,0,0,0,0,0,0,0,0,0,0,0,0,0,0,0,0,0,0,-0.2686,-0.2168,-0.2024,0.0,-0.0561,-0.0085,0,0,0,0,0,0,0,0,0,0,0,0,0,0,-0.1879,-0.0251,-0.1244,-0.2296,-0.1959,0,0,0,0,0,0,0,0,0,0,0,0,0,0,0,0,0,0,0,0,0,0,0,0,0,0,-0.1127,-0.0171,0,0,0,0,0,0,0,0,0,0,0,0,0,0,-0.1821,-0.1148,-0.1639,-0.244,-0.1329,0,0,0,0,0,0,0,0,0,0,0,0,0,0,0,0,0,0,0,0,0,0,0,0,0,0,0,0,0,0,0,0,0,0,0,0,0,0,0,0,0,0,-0.1345,-0.1863,-0.2072,-0.2846,-0.1009,0,0,0,0,0,0,0,0,0,0,0,0,0,0,0,0,0,0,0,0,0,0,0,0,0,0,0,0,0,0,0,0,0,0,0,0,0,0,0,0,0,0,-0.1121,-0.2184,-0.2755,-0.3647,-0.0977,0,0,0,0,0,0,0,0,0,0,0,0,0,0,0,0,0,0,0,0,0,0,0,0,0,0,0,0,0,0,0,0,0,0,0,0,0,0,0,0,0,0,0,-0.1842,-0.3428,-0.4431,-0.1361,0,0,0,0,0,0,0,0,0,0,0,0,0,0,0,0,0,0,0,0,0,0,0,0,0,0,0,0,0,0,0,0,0,0,0,0,0,0,0,0,0,0,0,-0.1399,-0.2125,-0.4052,-0.165,0,0,0,0,0,0,0,0,0,0,0,0,0,0,0,0,0,0,0,0,0,0,0,0,0,0,0,0,0,0,0,0,0,0,0,0,0,0,0,0,0,0,0,0,-0.0614,-0.3369,0,0,0,0,0,0,0,0,0,0,0,0,0,0,0,0,0,0,0,0,0,0,0,0,0,0,0,0,0,0,0,0,0,0,0,0,0,0,0,0,0,0,0,0,0,0,0,0,0,0,0,0,0,0,0,0,0,0,0,0,0,0,0,0,0,0,0,0,0,0,0,0,0,0,0,0,0,0,0,0,0,0,0,0,0,0,0,0,0,0,0,0,0,0,0,0,0,0,0,0,0,0,0,0,0,0,0,0,0,0,0,0,0,0,0,0,0,0,0,0,0,0,0,0,0,0,0,0,0,0,0,0,0,0,0,0,0,0,0,0,0,0,0,0,0,0,0,0,0,0,0,0,0,0,0,0,0,0,0,0,0,0,0,0,0,0,0,0,0,0,0,0,0,0,0,0,0,0,0,0,0,0,0,0,0,0,0,0,0,0,0,0,0,0,0,0,0,0,0,0,0,0,0,0,0,0,0,0,0,0,0,0,0,0,0,0,0,0,0,0,0,0,0,0,0,0,0,0,0,0,0,0,0,0,0,0,0,0,0,0,0,0,0,0,0,0,0,0,0,0,0,0,0,0,0,0,0,0,0,0,0,0,0,0,0,0,0,0,0,0,0,0,0,0,0,0,0,0,0,0,0,0,0,0,0,0,0,0,0,0,0,0,0,0,0,0,0,0,0,0,0,0,0,0,0,0,0,0,0,0,0,0,0]}]],[[{"header":{"parameterUnit":"kt","parameterCategory":2,"dx":1,"dy":1,"la1":29.764190673828125,"la2":30.86408042907715,"lo1":-88.46762084960938,"lo2":-86.9344482421875,"nx":47,"ny":34,"refTime":"2022-09-28T00:00:00:Z","depth":"2","parameterNumber":2,"parameterNumberName":"U-component_of_CURRENTS"},"data":[0.055,0.0854,0.1281,0.173,0.2045,0.212,0.2056,0.2034,0.2125,0.2296,0.2483,0.2568,0.2552,0.2557,0.267,0.2846,0.299,0.3102,0.3262,0.3577,0.394,0.4154,0.4277,0.4394,0.4554,0.4693,0.4544,0.4218,0.4191,0.4666,0.5328,0.5958,0.6658,0.7565,0.8468,0.9007,0.9237,0.9359,0.9578,1.0048,1.063,1.1047,1.1244,1.1362,1.1442,1.141,1.1169,0.0491,0.0737,0.1009,0.1313,0.1575,0.173,0.1853,0.2029,0.228,0.2563,0.2734,0.2755,0.2728,0.2728,0.2803,0.2926,0.3043,0.315,0.3305,0.3599,0.4026,0.4405,0.4602,0.4672,0.4677,0.4677,0.4538,0.418,0.3972,0.4218,0.4736,0.5339,0.599,0.669,0.7576,0.842,0.8948,0.9231,0.9488,0.9936,1.0443,1.079,1.0993,1.1175,1.1308,1.1314,1.1159,0.0486,0.0705,0.0945,0.1196,0.1426,0.1628,0.1842,0.2109,0.2413,0.267,0.2819,0.2878,0.2899,0.2926,0.2985,0.3054,0.3118,0.3209,0.3348,0.354,0.3801,0.409,0.4293,0.4373,0.4341,0.425,0.4271,0.4234,0.4138,0.4218,0.4394,0.4757,0.5425,0.6108,0.6861,0.7774,0.8543,0.9082,0.9482,0.992,1.0352,1.0577,1.0683,1.0844,1.0993,1.1084,1.1079,0.0582,0.0753,0.095,0.1185,0.1436,0.1703,0.1975,0.2264,0.2541,0.2766,0.2915,0.3006,0.307,0.3129,0.3182,0.3209,0.3214,0.3268,0.3385,0.3524,0.3647,0.3759,0.3844,0.3919,0.3946,0.3919,0.4122,0.4415,0.4517,0.4597,0.4565,0.4341,0.4367,0.4987,0.5788,0.6674,0.7747,0.8692,0.9365,0.9915,1.0368,1.055,1.0534,1.0593,1.0769,1.0977,1.1116,0.0689,0.0833,0.1036,0.1265,0.1516,0.1799,0.2109,0.2403,0.2654,0.284,0.2963,0.3049,0.3139,0.3241,0.3321,0.3342,0.3326,0.3353,0.3428,0.3502,0.355,0.3588,0.3641,0.3759,0.3898,0.3988,0.4255,0.4757,0.504,0.5077,0.5077,0.4741,0.4138,0.3801,0.4207,0.52,0.63,0.7555,0.8761,0.9642,1.0288,1.0673,1.07,1.0651,1.0774,1.1025,1.1255,0.079,0.0945,0.1143,0.1372,0.1628,0.1906,0.2178,0.2424,0.2627,0.2755,0.284,0.2915,0.3049,0.3219,0.3353,0.3396,0.3396,0.3417,0.3449,0.3465,0.3449,0.3422,0.346,0.3604,0.3849,0.4079,0.4325,0.488,0.5467,0.5697,0.5654,0.5473,0.5126,0.457,0.4164,0.4335,0.5163,0.6412,0.7752,0.897,0.9915,1.0566,1.0929,1.1031,1.1095,1.1265,1.1484,0.0876,0.1057,0.1276,0.15,0.173,0.1959,0.2184,0.2371,0.2509,0.2595,0.2654,0.2755,0.292,0.3107,0.3235,0.33,0.3353,0.3406,0.3428,0.3401,0.3353,0.3305,0.3321,0.346,0.3727,0.4015,0.4261,0.465,0.5307,0.591,0.6188,0.6193,0.6006,0.5627,0.512,0.4741,0.4821,0.5713,0.7101,0.8372,0.9461,1.0299,1.0881,1.133,1.158,1.1687,1.1853,0.087,0.1078,0.1313,0.1543,0.1751,0.1938,0.2109,0.2258,0.2371,0.2461,0.2557,0.268,0.2819,0.2942,0.3033,0.3129,0.3235,0.3321,0.3332,0.3289,0.323,0.3193,0.3225,0.3364,0.3588,0.3839,0.4079,0.433,0.4709,0.5227,0.5729,0.6097,0.6257,0.6193,0.5868,0.528,0.4805,0.4901,0.583,0.7266,0.8607,0.9653,1.0513,1.1335,1.1949,1.2194,1.2333,0.087,0.1084,0.1313,0.1532,0.1719,0.1879,0.2013,0.2136,0.2253,0.2376,0.2509,0.2638,0.2739,0.2819,0.2894,0.299,0.3086,0.3145,0.315,0.3123,0.3086,0.3081,0.3139,0.3273,0.346,0.3668,0.3865,0.4047,0.4223,0.4463,0.4811,0.519,0.551,0.5756,0.5889,0.5707,0.5104,0.4602,0.4784,0.5707,0.7032,0.8334,0.9525,1.0758,1.1837,1.2429,1.2707,0.1046,0.1207,0.1393,0.158,0.1741,0.1842,0.1906,0.1997,0.213,0.2301,0.2504,0.2734,0.2926,0.3017,0.2995,0.2942,0.292,0.2926,0.2936,0.2942,0.2942,0.2958,0.3027,0.3155,0.331,0.3476,0.3641,0.3801,0.3946,0.4068,0.4202,0.4362,0.4554,0.4794,0.5077,0.5403,0.5494,0.5072,0.465,0.4805,0.5521,0.6652,0.7966,0.9482,1.1036,1.2114,1.268,0.1249,0.1271,0.1372,0.1564,0.1741,0.1805,0.1826,0.1933,0.2162,0.2472,0.2819,0.3177,0.3486,0.3609,0.3567,0.3342,0.3033,0.2824,0.2755,0.275,0.2776,0.2819,0.2888,0.2985,0.3102,0.3241,0.339,0.3534,0.3673,0.3807,0.3924,0.402,0.409,0.4186,0.4367,0.4666,0.5184,0.5494,0.5163,0.4843,0.4971,0.5499,0.6455,0.7768,0.9413,1.0982,1.2002,0.1308,0.1212,0.1239,0.1431,0.1682,0.1773,0.1543,0.1468,0.1911,0.2504,0.2824,0.3134,0.3294,0.3209,0.3251,0.3219,0.3006,0.275,0.2589,0.2552,0.2584,0.2643,0.2702,0.276,0.283,0.292,0.3043,0.3177,0.3321,0.3476,0.3647,0.3801,0.3935,0.4068,0.4191,0.4325,0.4586,0.5174,0.5521,0.528,0.5104,0.5248,0.5649,0.6386,0.7549,0.9055,1.0417,0.1212,0.1329,0.1148,0.1046,0.1388,0.157,0.0683,0.0384,0.1297,0.1959,0.213,0.267,0.2696,0.2349,0.2787,0.3001,0.2824,0.2552,0.2381,0.2344,0.2381,0.2451,0.2472,0.2456,0.2472,0.2525,0.2611,0.2723,0.2883,0.3097,0.3342,0.3572,0.378,0.3972,0.4132,0.4223,0.4277,0.4581,0.5174,0.5521,0.5467,0.5398,0.5478,0.5756,0.6241,0.7042,0.8153,0,0,0.0256,0.0502,0.0977,0.1767,0.0635,0.0224,0.1495,0.1815,0.165,0.1527,0,0.0475,0.189,0.299,0.2792,0.2317,0.2173,0.22,0.2274,0.2483,0.2403,0.212,0.2082,0.2141,0.2216,0.2322,0.2456,0.2659,0.2958,0.3262,0.3529,0.3737,0.3887,0.3962,0.3994,0.409,0.4463,0.5051,0.5526,0.5798,0.5953,0.6028,0.6038,0.6177,0.662,0.1773,0.1762,0.1575,0.103,0.0587,0,0,0.0555,0.1463,0.1452,0.0833,0.1169,0.173,0.1698,0,0,0,0,0,0,0,0,0.055,0.1383,0.1762,0.189,0.1981,0.2237,0.2296,0.2269,0.2531,0.2856,0.3161,0.3348,0.3417,0.3428,0.3428,0.3534,0.3801,0.4271,0.4933,0.5622,0.6167,0.6508,0.6679,0.6652,0.6594,0.2947,0.26,0.2274,0.1393,0.0464,0.0966,0.2269,0.2435,0.2098,0,0,0,-0.0208,0.0486,0.1393,0.1201,0.0902,0.0731,0.0587,0.04,0.0283,0,0,0,0,0,0,0,0.0363,0.1255,0.2002,0.2456,0.3022,0.315,0.2878,0.2718,0.2664,0.2936,0.3385,0.3823,0.4309,0.4848,0.5355,0.5777,0.6204,0.6674,0.6973,0.3203,0.3134,0.2365,0.149,0.0828,0.1148,0.1687,0.1361,0.1388,0.1634,0.1313,0.039,-0.0657,-0.079,-0.0267,0.0224,0.0571,0.0534,0.031,0.0048,-0.0096,0,0,0,0,0,0,0,0,0,0,0,0,0.0694,0.181,0.2088,0.189,0.2264,0.3075,0.3385,0.355,0.3828,0.41,0.4405,0.4848,0.5505,0.6337,0,0.0587,0.1692,0.1618,0.0331,-0.0374,0,0,0,0,0,-0.0555,-0.1329,-0.1303,-0.086,-0.055,-0.0123,0.0133,0.0069,0.0064,0,0,0,0,0,0,0,0,0,0,0,0,0,0,0,0,0.0667,0.0641,0,0,0.2168,0.2931,0.3332,0.3567,0.3812,0.4431,0.4955,0,0,0,0.0203,0.0454,0.0497,0,0,0,0,0,-0.0582,-0.1255,-0.1255,-0.0945,-0.0726,-0.0358,-0.0416,-0.0561,0,0,0,0,0,0,0,0,0,0,0,0,0,0,0,0,0,0,-0.0582,-0.0945,0,0,0,0,0,0,0,0.0833,0,0,0,0,0,0,0,0,0,0,0,-0.0571,-0.0998,-0.087,-0.0609,-0.016,0.0529,0.1046,0,0,0,0,0,0,0,0,0,0,0,0,0,0,0,0,0,0,0,0,-0.0587,-0.0934,-0.0166,0.0374,0,0,0,0,0,0,0,0,0,0,0,0,0,0,0,0,-0.0443,-0.0443,-0.0352,-0.063,-0.0005,0.055,0,0,0,0,0,0,0,0,0,0,0,0,0,0,0,0,0,0,0,0,0,0,-0.0577,-0.1207,-0.1639,-0.0432,0.0763,0.039,0,0,0,0,0,0,0,0,0,0,0,0,0,0,-0.0112,-0.0726,-0.1004,-0.0176,0.0454,0,0,0,0,0,0,0,0,0,0,0,0,0,0,0,0,0,0,0,0,0,0,0,0,0,0,-0.0149,-0.0299,0,0,0,0,0,0,0,0,0,0,0,0,0,0,-0.0609,-0.1292,-0.1196,-0.0272,0.0481,0,0,0,0,0,0,0,0,0,0,0,0,0,0,0,0,0,0,0,0,0,0,0,0,0,0,0,0,0,0,0,0,0,0,0,0,0,0,0,0,0,0,-0.0753,-0.1404,-0.126,-0.0427,0.0363,0,0,0,0,0,0,0,0,0,0,0,0,0,0,0,0,0,0,0,0,0,0,0,0,0,0,0,0,0,0,0,0,0,0,0,0,0,0,0,0,0,0,-0.0721,-0.1393,-0.1313,-0.0587,0.0107,0,0,0,0,0,0,0,0,0,0,0,0,0,0,0,0,0,0,0,0,0,0,0,0,0,0,0,0,0,0,0,0,0,0,0,0,0,0,0,0,0,0,0,-0.0251,-0.0491,-0.0171,0.0133,0,0,0,0,0,0,0,0,0,0,0,0,0,0,0,0,0,0,0,0,0,0,0,0,0,0,0,0,0,0,0,0,0,0,0,0,0,0,0,0,0,0,0,0.0037,0.0699,0.0945,0.0577,0,0,0,0,0,0,0,0,0,0,0,0,0,0,0,0,0,0,0,0,0,0,0,0,0,0,0,0,0,0,0,0,0,0,0,0,0,0,0,0,0,0,0,0,0.1057,0.212,0,0,0,0,0,0,0,0,0,0,0,0,0,0,0,0,0,0,0,0,0,0,0,0,0,0,0,0,0,0,0,0,0,0,0,0,0,0,0,0,0,0,0,0,0,0,0,0,0,0,0,0,0,0,0,0,0,0,0,0,0,0,0,0,0,0,0,0,0,0,0,0,0,0,0,0,0,0,0,0,0,0,0,0,0,0,0,0,0,0,0,0,0,0,0,0,0,0,0,0,0,0,0,0,0,0,0,0,0,0,0,0,0,0,0,0,0,0,0,0,0,0,0,0,0,0,0,0,0,0,0,0,0,0,0,0,0,0,0,0,0,0,0,0,0,0,0,0,0,0,0,0,0,0,0,0,0,0,0,0,0,0,0,0,0,0,0,0,0,0,0,0,0,0,0,0,0,0,0,0,0,0,0,0,0,0,0,0,0,0,0,0,0,0,0,0,0,0,0,0,0,0,0,0,0,0,0,0,0,0,0,0,0,0,0,0,0,0,0,0,0,0,0,0,0,0,0,0,0,0,0,0,0,0,0,0,0,0,0,0,0,0,0,0,0,0,0,0,0,0,0,0,0,0,0,0,0,0,0,0,0,0,0,0,0,0,0,0,0,0,0,0,0,0,0,0,0,0,0,0,0,0,0,0,0,0,0,0,0,0,0,0,0,0,0,0,0,0,0,0,0,0,0,0,0,0,0,0,0,0,0,0,0]}],[{"header":{"parameterUnit":"kt","parameterCategory":2,"dx":1,"dy":1,"la1":29.764190673828125,"la2":30.86408042907715,"lo1":-88.46762084960938,"lo2":-86.9344482421875,"nx":47,"ny":34,"refTime":"2022-09-28T00:00:00:Z","depth":"2","parameterNumber":3,"parameterNumberName":"V-component_of_CURRENTS"},"data":[0.0635,0.0876,0.103,0.0961,0.0785,0.0721,0.0742,0.0715,0.0587,0.0315,-0.0032,-0.0251,-0.0288,-0.0251,-0.0278,-0.0342,-0.0406,-0.0331,-0.0139,0.0059,0.0133,0.0123,0.0117,0.0059,-0.0112,0.0096,0.0646,0.1233,0.1586,0.1607,0.1698,0.1927,0.2376,0.2985,0.3332,0.3417,0.3187,0.2739,0.2216,0.1543,0.0897,0.0742,0.1265,0.2072,0.2686,0.2888,0.3118,0.0593,0.0646,0.0657,0.063,0.0646,0.0662,0.0619,0.055,0.0422,0.0187,-0.0075,-0.0208,-0.0214,-0.0187,-0.0192,-0.0219,-0.0283,-0.0267,-0.0101,0.0107,0.0149,0.0048,-0.0037,-0.0027,0.0011,0.0224,0.0534,0.0966,0.134,0.1185,0.0865,0.1127,0.1666,0.2552,0.3332,0.386,0.402,0.3785,0.3294,0.2499,0.1655,0.1383,0.1895,0.2718,0.3241,0.3332,0.3364,0.0625,0.0667,0.0635,0.0571,0.0502,0.0443,0.0384,0.032,0.0208,0.0027,-0.0117,-0.0171,-0.0176,-0.0203,-0.0251,-0.0267,-0.0299,-0.0278,-0.0155,0.0037,0.0198,0.024,0.024,0.0384,0.0614,0.0881,0.1073,0.1004,0.1153,0.0998,0.0005,-0.0214,0.0411,0.1468,0.276,0.3796,0.4485,0.4645,0.433,0.355,0.2541,0.2013,0.2376,0.3123,0.3529,0.3518,0.3412,0.0646,0.0721,0.0726,0.0657,0.055,0.0432,0.0342,0.0256,0.0133,-0.0005,-0.0112,-0.016,-0.0192,-0.0246,-0.0326,-0.0347,-0.0358,-0.0326,-0.023,-0.0064,0.0139,0.0336,0.0561,0.0844,0.1084,0.1292,0.1442,0.1046,0.0913,0.0715,-0.0246,-0.1292,-0.1276,-0.063,0.0715,0.2333,0.3882,0.4827,0.5072,0.4624,0.3599,0.2723,0.2691,0.3246,0.3641,0.3657,0.3502,0.0545,0.0678,0.0742,0.0721,0.0678,0.0582,0.0459,0.0326,0.0171,-0.0005,-0.0149,-0.0235,-0.0283,-0.0342,-0.0416,-0.0411,-0.0406,-0.0363,-0.0283,-0.0155,0.0043,0.0288,0.0619,0.0966,0.1217,0.1399,0.1543,0.1127,0.0699,0.0416,-0.0112,-0.1057,-0.1634,-0.1847,-0.1303,-0.0149,0.1559,0.3374,0.464,0.5051,0.4586,0.3657,0.3123,0.3305,0.3684,0.3817,0.3711,0.0347,0.0523,0.0625,0.0651,0.0651,0.0577,0.0443,0.0283,0.0096,-0.0123,-0.0304,-0.0406,-0.0438,-0.047,-0.0513,-0.0464,-0.0432,-0.04,-0.0326,-0.0203,-0.0027,0.023,0.0577,0.095,0.1223,0.1388,0.1516,0.1329,0.0683,0.0192,-0.024,-0.0625,-0.1004,-0.1329,-0.1297,-0.1052,-0.0304,0.1025,0.2605,0.3914,0.4522,0.4362,0.3849,0.3599,0.3716,0.3833,0.3807,0.0027,0.0192,0.0315,0.039,0.0406,0.0347,0.0219,0.0053,-0.0128,-0.0331,-0.0475,-0.0529,-0.0523,-0.0539,-0.0566,-0.0502,-0.047,-0.0438,-0.0363,-0.023,-0.0048,0.0198,0.0529,0.0892,0.1191,0.1367,0.1474,0.1468,0.0977,0.0342,-0.0235,-0.0667,-0.0945,-0.1041,-0.0892,-0.0619,-0.0272,0.0294,0.1057,0.2184,0.3305,0.4036,0.425,0.4063,0.3865,0.3759,0.3689,-0.0502,-0.0363,-0.0235,-0.0107,-0.0021,-0.0016,-0.0107,-0.0246,-0.0384,-0.0513,-0.0561,-0.0534,-0.0502,-0.0518,-0.0545,-0.0507,-0.0497,-0.0491,-0.0411,-0.0262,-0.0069,0.0155,0.0448,0.0769,0.1073,0.1297,0.1436,0.15,0.1345,0.0924,0.0326,-0.0278,-0.0769,-0.1089,-0.1137,-0.0817,-0.0262,0.0545,0.1116,0.1682,0.2435,0.3289,0.4026,0.4287,0.409,0.3796,0.3577,-0.0945,-0.0822,-0.071,-0.055,-0.039,-0.0288,-0.031,-0.04,-0.0497,-0.0555,-0.055,-0.0507,-0.0464,-0.0459,-0.047,-0.0448,-0.0481,-0.0507,-0.0448,-0.0299,-0.0112,0.008,0.0315,0.0587,0.087,0.1143,0.1361,0.1495,0.1511,0.1351,0.0972,0.0497,0.0005,-0.0464,-0.0865,-0.1057,-0.0715,0.0149,0.1105,0.1805,0.2387,0.3118,0.3898,0.4287,0.4164,0.3844,0.3556,-0.103,-0.0929,-0.087,-0.0742,-0.055,-0.0395,-0.04,-0.0486,-0.0555,-0.0555,-0.0561,-0.0619,-0.0635,-0.0603,-0.0545,-0.0459,-0.0448,-0.0475,-0.0432,-0.031,-0.0144,0.0011,0.0176,0.0379,0.0625,0.0908,0.1191,0.1404,0.1506,0.1442,0.1223,0.0929,0.0619,0.0299,-0.0043,-0.0448,-0.0646,-0.0251,0.0566,0.1495,0.2216,0.2953,0.3828,0.4314,0.4132,0.3716,0.3396,-0.0897,-0.0849,-0.0929,-0.0881,-0.0721,-0.0529,-0.0667,-0.0886,-0.0934,-0.0833,-0.0908,-0.1153,-0.1249,-0.1292,-0.1057,-0.0694,-0.0475,-0.0427,-0.039,-0.0294,-0.0155,-0.0021,0.0091,0.0208,0.0379,0.063,0.0918,0.118,0.1345,0.1351,0.1201,0.0977,0.0747,0.0561,0.0411,0.0283,0.0075,-0.0155,0.0133,0.0881,0.1687,0.229,0.3022,0.3732,0.3855,0.3401,0.3006,-0.0769,-0.0774,-0.094,-0.1111,-0.1111,-0.0838,-0.1239,-0.1815,-0.1842,-0.149,-0.1452,-0.1698,-0.1874,-0.1997,-0.1644,-0.1036,-0.0593,-0.0406,-0.0326,-0.0267,-0.0144,-0.0011,0.0085,0.0139,0.0214,0.0379,0.0609,0.0854,0.1057,0.1137,0.1052,0.0881,0.0699,0.055,0.0443,0.0432,0.0534,0.0342,0.0069,0.0304,0.0876,0.1244,0.165,0.236,0.2798,0.2691,0.2349,-0.0715,-0.0753,-0.0561,-0.1276,-0.1698,-0.1377,-0.1815,-0.2638,-0.2686,-0.1837,-0.1474,-0.1623,-0.1981,-0.1543,-0.1746,-0.1372,-0.0892,-0.0464,-0.0256,-0.0246,-0.016,-0.0037,0.0166,0.016,0.0123,0.0176,0.032,0.0529,0.0747,0.086,0.0838,0.0737,0.0603,0.0464,0.0342,0.0294,0.0411,0.0545,0.0299,0.0043,0.0016,0.0155,0.0432,0.0817,0.1132,0.1442,0.1426,0,0,-0.0432,-0.1527,-0.221,-0.166,-0.1927,-0.2408,-0.2659,-0.1463,-0.0934,-0.0432,0,-0.079,-0.1618,-0.1511,-0.1089,-0.0513,-0.0214,-0.023,-0.0171,-0.0053,0.0518,0.0272,0.0053,-0.0021,0.0043,0.0203,0.0507,0.0582,0.0582,0.055,0.0491,0.0406,0.0256,0.0133,0.0166,0.032,0.0411,0.016,-0.0219,-0.0486,-0.0561,-0.0587,-0.0384,0.0016,0.0331,-0.0454,-0.0262,-0.0785,-0.1799,-0.221,0,0,-0.2696,-0.2531,-0.1292,-0.0646,0.0577,-0.0347,0.0256,0,0,0,0,0,0,0,0,0.0822,0.0368,0.0021,-0.0107,-0.0085,0.008,0.0801,0.0438,0.0331,0.031,0.0336,0.0438,0.0272,0.0064,-0.0048,0.0027,0.0331,0.0454,0.0246,-0.0187,-0.0646,-0.1004,-0.1127,-0.1052,-0.0747,-0.0758,-0.0561,-0.103,-0.1586,-0.1634,-0.1319,-0.15,-0.2638,-0.1132,0,0,0,-0.0731,0.0363,-0.0561,-0.0283,-0.0198,-0.0133,-0.0091,-0.0096,-0.0043,0,0,0,0,0,0,0,0.0758,-0.0123,0.0283,0.023,0.0294,0.0918,0.0491,0.0123,-0.0262,-0.047,0.0037,0.0523,0.0593,0.0374,0.0021,-0.0331,-0.0662,-0.0982,-0.1228,-0.0603,-0.0075,-0.0763,-0.1276,-0.1639,-0.3038,-0.3006,-0.2013,0.0267,0.0,0.0,-0.0272,-0.0283,-0.0566,-0.1329,-0.1036,-0.0646,-0.0187,-0.0043,0.0016,-0.0091,0,0,0,0,0,0,0,0,0,0,0,0,0.1329,0.0657,0.0395,-0.0384,-0.1292,-0.0112,0.1025,0.0785,0.055,0.0363,0.023,0.0123,0.0011,-0.0262,0,0.0459,-0.0347,-0.0491,-0.1062,-0.2173,0,0,0,0,0,-0.0224,0.0454,-0.0432,-0.1511,-0.1949,-0.1703,-0.039,-0.0048,0.0235,0,0,0,0,0,0,0,0,0,0,0,0,0,0,0,0,-0.047,-0.1458,0,0,0.103,0.0657,0.0443,0.0342,0.0352,0.0571,0.1004,0,0,0,0.0208,-0.0198,-0.0897,0,0,0,0,0,0.0144,0.0833,-0.0101,-0.1212,-0.2376,-0.2969,-0.095,-0.0187,0,0,0,0,0,0,0,0,0,0,0,0,0,0,0,0,0,0,-0.1073,-0.0844,0,0,0,0,0,0,0,0.1329,0,0,0,0,0,0,0,0,0,0,0,0.0235,0.0822,0.0251,-0.0801,-0.2029,-0.3294,-0.1233,0,0,0,0,0,0,0,0,0,0,0,0,0,0,0,0,0,0,0,0,-0.1687,-0.0988,-0.0726,-0.0593,0,0,0,0,0,0,0,0,0,0,0,0,0,0,0,0,0.0294,-0.0224,0.0555,-0.0582,-0.1725,-0.2579,0,0,0,0,0,0,0,0,0,0,0,0,0,0,0,0,0,0,0,0,0,0,-0.1975,-0.1452,-0.118,0.0,-0.0315,0.0069,0,0,0,0,0,0,0,0,0,0,0,0,0,0,-0.126,0.0272,-0.0662,-0.1789,-0.158,0,0,0,0,0,0,0,0,0,0,0,0,0,0,0,0,0,0,0,0,0,0,0,0,0,0,-0.0625,0.0133,0,0,0,0,0,0,0,0,0,0,0,0,0,0,-0.1239,-0.0497,-0.1004,-0.1885,-0.0956,0,0,0,0,0,0,0,0,0,0,0,0,0,0,0,0,0,0,0,0,0,0,0,0,0,0,0,0,0,0,0,0,0,0,0,0,0,0,0,0,0,0,-0.0737,-0.1121,-0.1361,-0.2189,-0.0651,0,0,0,0,0,0,0,0,0,0,0,0,0,0,0,0,0,0,0,0,0,0,0,0,0,0,0,0,0,0,0,0,0,0,0,0,0,0,0,0,0,0,-0.039,-0.1212,-0.1794,-0.2755,-0.0619,0,0,0,0,0,0,0,0,0,0,0,0,0,0,0,0,0,0,0,0,0,0,0,0,0,0,0,0,0,0,0,0,0,0,0,0,0,0,0,0,0,0,0,-0.0822,-0.1906,-0.3017,-0.0817,0,0,0,0,0,0,0,0,0,0,0,0,0,0,0,0,0,0,0,0,0,0,0,0,0,0,0,0,0,0,0,0,0,0,0,0,0,0,0,0,0,0,0,-0.0523,-0.0278,-0.2771,-0.094,0,0,0,0,0,0,0,0,0,0,0,0,0,0,0,0,0,0,0,0,0,0,0,0,0,0,0,0,0,0,0,0,0,0,0,0,0,0,0,0,0,0,0,0,0.1196,-0.2573,0,0,0,0,0,0,0,0,0,0,0,0,0,0,0,0,0,0,0,0,0,0,0,0,0,0,0,0,0,0,0,0,0,0,0,0,0,0,0,0,0,0,0,0,0,0,0,0,0,0,0,0,0,0,0,0,0,0,0,0,0,0,0,0,0,0,0,0,0,0,0,0,0,0,0,0,0,0,0,0,0,0,0,0,0,0,0,0,0,0,0,0,0,0,0,0,0,0,0,0,0,0,0,0,0,0,0,0,0,0,0,0,0,0,0,0,0,0,0,0,0,0,0,0,0,0,0,0,0,0,0,0,0,0,0,0,0,0,0,0,0,0,0,0,0,0,0,0,0,0,0,0,0,0,0,0,0,0,0,0,0,0,0,0,0,0,0,0,0,0,0,0,0,0,0,0,0,0,0,0,0,0,0,0,0,0,0,0,0,0,0,0,0,0,0,0,0,0,0,0,0,0,0,0,0,0,0,0,0,0,0,0,0,0,0,0,0,0,0,0,0,0,0,0,0,0,0,0,0,0,0,0,0,0,0,0,0,0,0,0,0,0,0,0,0,0,0,0,0,0,0,0,0,0,0,0,0,0,0,0,0,0,0,0,0,0,0,0,0,0,0,0,0,0,0,0,0,0,0,0,0,0,0,0,0,0,0,0,0,0,0,0,0,0,0,0,0,0,0,0,0,0,0,0,0,0,0,0,0,0,0,0,0]}]],[[{"header":{"parameterUnit":"kt","parameterCategory":2,"dx":1,"dy":1,"la1":29.764190673828125,"la2":30.86408042907715,"lo1":-88.46762084960938,"lo2":-86.9344482421875,"nx":47,"ny":34,"refTime":"2022-09-28T00:00:00:Z","depth":"4","parameterNumber":2,"parameterNumberName":"U-component_of_CURRENTS"},"data":[0.0486,0.079,0.1223,0.1676,0.1986,0.2061,0.2002,0.1986,0.2082,0.2253,0.244,0.2525,0.2509,0.2515,0.2627,0.2798,0.2936,0.3049,0.3214,0.3529,0.3892,0.4111,0.4234,0.4351,0.4506,0.464,0.449,0.417,0.4143,0.4608,0.5254,0.5868,0.6583,0.7512,0.842,0.8943,0.9157,0.9269,0.9477,0.9936,1.0513,1.0934,1.1143,1.1271,1.1351,1.1308,1.1068,0.0422,0.0673,0.0945,0.1255,0.1511,0.1671,0.1799,0.1981,0.2237,0.2515,0.268,0.2707,0.2675,0.268,0.2755,0.2872,0.2985,0.3091,0.3246,0.3545,0.3978,0.4357,0.4549,0.4624,0.4624,0.4624,0.4485,0.4132,0.393,0.4159,0.4656,0.5243,0.5894,0.6615,0.7517,0.8361,0.8879,0.9151,0.9391,0.9819,1.0326,1.0678,1.0897,1.1089,1.1223,1.1223,1.1057,0.0422,0.0641,0.0881,0.1132,0.1361,0.1564,0.1789,0.2061,0.2365,0.2621,0.2766,0.2824,0.284,0.2872,0.2931,0.3001,0.3065,0.315,0.3284,0.3476,0.3737,0.4031,0.4239,0.4319,0.4282,0.4197,0.4218,0.418,0.4084,0.4148,0.4309,0.4661,0.5328,0.6017,0.6786,0.771,0.8478,0.9007,0.9391,0.9813,1.0235,1.0465,1.0587,1.0753,1.0908,1.0999,1.0982,0.0523,0.0689,0.0886,0.1121,0.1377,0.1639,0.1917,0.221,0.2488,0.2707,0.2851,0.2942,0.3006,0.307,0.3129,0.315,0.3155,0.3203,0.3316,0.3449,0.3577,0.3689,0.378,0.3855,0.3882,0.3849,0.4058,0.4357,0.4458,0.4533,0.4485,0.4239,0.4266,0.4885,0.5697,0.6594,0.7678,0.8623,0.929,0.9824,1.0256,1.0433,1.0427,1.0502,1.0683,1.0886,1.1025,0.063,0.078,0.0972,0.1201,0.1452,0.1741,0.2045,0.2339,0.2584,0.2766,0.2888,0.2985,0.3081,0.3187,0.3268,0.3284,0.3262,0.3278,0.3348,0.3422,0.3476,0.3513,0.3572,0.3689,0.3828,0.3914,0.4186,0.4693,0.4981,0.5019,0.5008,0.4656,0.4042,0.3705,0.4111,0.5104,0.6215,0.7475,0.8687,0.9562,1.0192,1.0561,1.0587,1.055,1.0683,1.094,1.1164,0.0726,0.0881,0.1078,0.1308,0.1564,0.1837,0.2109,0.2355,0.2552,0.2686,0.2776,0.2862,0.2995,0.3166,0.3294,0.3326,0.3321,0.3337,0.3364,0.338,0.3364,0.3348,0.3385,0.3534,0.3775,0.3999,0.4245,0.4805,0.5403,0.5633,0.5585,0.5398,0.5045,0.4474,0.4068,0.4239,0.5067,0.6321,0.7667,0.889,0.9829,1.0475,1.0828,1.0924,1.0993,1.1164,1.1394,0.0812,0.0993,0.1207,0.1436,0.1666,0.189,0.2109,0.2301,0.2445,0.2536,0.26,0.2702,0.2862,0.3043,0.3161,0.3219,0.3262,0.331,0.3326,0.3305,0.3262,0.3225,0.3246,0.339,0.3647,0.393,0.4175,0.457,0.5227,0.5836,0.6108,0.6113,0.5932,0.5542,0.5035,0.4645,0.472,0.5595,0.6984,0.8265,0.937,1.0214,1.079,1.1233,1.1479,1.1586,1.1751,0.0796,0.1004,0.1239,0.1474,0.1682,0.1874,0.2045,0.2194,0.2312,0.2403,0.2499,0.2616,0.275,0.2862,0.2947,0.3027,0.3123,0.3203,0.3219,0.3182,0.3134,0.3107,0.3145,0.3284,0.3502,0.3748,0.3983,0.4234,0.4624,0.5147,0.5643,0.6006,0.6161,0.6108,0.5782,0.52,0.4714,0.4805,0.5723,0.7149,0.8494,0.9562,1.0433,1.1249,1.1853,1.2093,1.2232,0.079,0.1004,0.1233,0.1458,0.1644,0.1805,0.1943,0.2072,0.2194,0.2317,0.244,0.2563,0.2659,0.2728,0.2792,0.2872,0.2963,0.3022,0.3033,0.3011,0.2985,0.2985,0.3049,0.3182,0.3369,0.3572,0.3769,0.3946,0.4122,0.4367,0.4714,0.5093,0.5414,0.5654,0.5793,0.5617,0.5013,0.4512,0.4688,0.5595,0.6919,0.8228,0.9434,1.0678,1.1746,1.2333,1.2611,0.0956,0.1116,0.1303,0.149,0.165,0.1757,0.1837,0.1933,0.2072,0.2232,0.2424,0.2638,0.2814,0.2888,0.2867,0.2814,0.2787,0.2798,0.2808,0.2814,0.2824,0.2851,0.2926,0.3049,0.3209,0.3369,0.354,0.37,0.3839,0.3962,0.4095,0.4255,0.4453,0.4693,0.4981,0.5302,0.5392,0.4976,0.456,0.4709,0.5419,0.6546,0.7864,0.9397,1.095,1.2024,1.259,0.1132,0.1159,0.1265,0.1452,0.1634,0.1709,0.1746,0.1869,0.2093,0.2381,0.2707,0.3043,0.3321,0.3444,0.3396,0.3177,0.2883,0.2686,0.2616,0.2616,0.2648,0.2696,0.2771,0.2867,0.2979,0.3118,0.3273,0.3422,0.3567,0.37,0.3817,0.3903,0.3978,0.4068,0.4255,0.4565,0.5088,0.5392,0.5067,0.4752,0.488,0.5392,0.6348,0.7667,0.9322,1.0897,1.1911,0.1169,0.1095,0.1121,0.1297,0.1548,0.165,0.1468,0.1447,0.1874,0.2419,0.2739,0.3022,0.3171,0.3113,0.3113,0.3038,0.2824,0.2584,0.2445,0.2413,0.2445,0.2509,0.2573,0.2627,0.2691,0.2787,0.291,0.3054,0.3203,0.3364,0.3534,0.3684,0.3812,0.394,0.4058,0.4191,0.4469,0.5072,0.5419,0.5184,0.5008,0.5147,0.5553,0.6295,0.7459,0.8975,1.0336,0.0865,0.1073,0.0977,0.0924,0.1255,0.1442,0.0747,0.0529,0.1303,0.1906,0.2114,0.2387,0.2568,0.2408,0.2557,0.2696,0.2557,0.2355,0.2226,0.2205,0.2237,0.2301,0.2322,0.2306,0.2322,0.2376,0.2461,0.2584,0.2755,0.2974,0.3219,0.3449,0.3647,0.3828,0.3988,0.4068,0.4127,0.4458,0.5067,0.5414,0.536,0.5291,0.5376,0.5649,0.6135,0.6951,0.8078,0,0,0.0198,0.0454,0.0774,0.1148,0.0587,0.078,0.1426,0.1692,0.157,0.1458,0,0.0288,0.0774,0.1805,0.2168,0.2013,0.1991,0.2018,0.2061,0.2248,0.2194,0.1954,0.1927,0.1986,0.2061,0.2173,0.2312,0.252,0.2814,0.3113,0.3369,0.3572,0.3716,0.3791,0.3828,0.394,0.4335,0.4933,0.5408,0.5686,0.5841,0.5916,0.5926,0.6076,0.653,0.1388,0.141,0.1319,0.095,0.0619,0,0,0.0459,0.1201,0.1148,0.0689,0.1153,0.1607,0.1479,0,0,0,0,0,0,0,0,0.0454,0.118,0.1564,0.1682,0.1762,0.2034,0.2109,0.2098,0.236,0.267,0.2963,0.3145,0.3214,0.3235,0.3246,0.3358,0.3641,0.4122,0.4784,0.5473,0.6017,0.637,0.6556,0.6546,0.6498,0.2413,0.2221,0.2029,0.1399,0.071,0.1041,0.2141,0.2328,0.1965,0,0,0,-0.0171,0.0432,0.1073,0.086,0.071,0.0561,0.0406,0.0256,0.0182,0,0,0,0,0,0,0,0.0336,0.1159,0.1831,0.2237,0.2755,0.2878,0.2638,0.2504,0.2477,0.2744,0.3177,0.3604,0.4106,0.4661,0.5174,0.5611,0.6055,0.6546,0.6866,0.2322,0.2568,0.212,0.1452,0.11,0.1463,0.1393,0.0699,0.0913,0.1345,0.11,0.0513,-0.032,-0.0673,-0.0331,0.0133,0.0481,0.0454,0.024,-0.0016,-0.016,0,0,0,0,0,0,0,0,0,0,0,0,0.0635,0.1644,0.1885,0.1735,0.2077,0.2803,0.307,0.3251,0.3567,0.3871,0.4207,0.4682,0.536,0.6193,0,0.047,0.1388,0.1452,0.0828,0.0582,0,0,0,0,0,-0.0459,-0.1121,-0.1196,-0.095,-0.0715,-0.0272,0.0037,0.0005,-0.0011,0,0,0,0,0,0,0,0,0,0,0,0,0,0,0,0,0.0598,0.0625,0,0,0.1911,0.2638,0.3033,0.3294,0.3567,0.4197,0.4762,0,0,0,0.0198,0.0448,0.0507,0,0,0,0,0,-0.0518,-0.1116,-0.1121,-0.0929,-0.0833,-0.063,-0.0635,-0.0614,0,0,0,0,0,0,0,0,0,0,0,0,0,0,0,0,0,0,-0.0667,-0.1036,0,0,0,0,0,0,0,0.0758,0,0,0,0,0,0,0,0,0,0,0,-0.047,-0.079,-0.0689,-0.0475,-0.0144,0.0187,0.0443,0,0,0,0,0,0,0,0,0,0,0,0,0,0,0,0,0,0,0,0,-0.0614,-0.0972,-0.0278,0.016,0,0,0,0,0,0,0,0,0,0,0,0,0,0,0,0,-0.04,-0.0352,-0.0176,-0.039,0.0021,0.0368,0,0,0,0,0,0,0,0,0,0,0,0,0,0,0,0,0,0,0,0,0,0,-0.0518,-0.0993,-0.0892,-0.0678,-0.0219,0.0085,0,0,0,0,0,0,0,0,0,0,0,0,0,0,0.0198,-0.0379,-0.0603,-0.0107,0.0299,0,0,0,0,0,0,0,0,0,0,0,0,0,0,0,0,0,0,0,0,0,0,0,0,0,0,-0.0166,-0.0331,0,0,0,0,0,0,0,0,0,0,0,0,0,0,-0.0438,-0.0774,-0.0651,-0.0171,0.0294,0,0,0,0,0,0,0,0,0,0,0,0,0,0,0,0,0,0,0,0,0,0,0,0,0,0,0,0,0,0,0,0,0,0,0,0,0,0,0,0,0,0,-0.039,-0.0662,-0.0689,-0.0304,0.0219,0,0,0,0,0,0,0,0,0,0,0,0,0,0,0,0,0,0,0,0,0,0,0,0,0,0,0,0,0,0,0,0,0,0,0,0,0,0,0,0,0,0,0.0064,-0.0411,-0.0918,-0.047,-0.0032,0,0,0,0,0,0,0,0,0,0,0,0,0,0,0,0,0,0,0,0,0,0,0,0,0,0,0,0,0,0,0,0,0,0,0,0,0,0,0,0,0,0,0,0.0101,-0.0059,-0.016,-0.0011,0,0,0,0,0,0,0,0,0,0,0,0,0,0,0,0,0,0,0,0,0,0,0,0,0,0,0,0,0,0,0,0,0,0,0,0,0,0,0,0,0,0,0,0.0139,-0.0214,-0.0395,-0.0096,0,0,0,0,0,0,0,0,0,0,0,0,0,0,0,0,0,0,0,0,0,0,0,0,0,0,0,0,0,0,0,0,0,0,0,0,0,0,0,0,0,0,0,0,0.0331,0.0657,0,0,0,0,0,0,0,0,0,0,0,0,0,0,0,0,0,0,0,0,0,0,0,0,0,0,0,0,0,0,0,0,0,0,0,0,0,0,0,0,0,0,0,0,0,0,0,0,0,0,0,0,0,0,0,0,0,0,0,0,0,0,0,0,0,0,0,0,0,0,0,0,0,0,0,0,0,0,0,0,0,0,0,0,0,0,0,0,0,0,0,0,0,0,0,0,0,0,0,0,0,0,0,0,0,0,0,0,0,0,0,0,0,0,0,0,0,0,0,0,0,0,0,0,0,0,0,0,0,0,0,0,0,0,0,0,0,0,0,0,0,0,0,0,0,0,0,0,0,0,0,0,0,0,0,0,0,0,0,0,0,0,0,0,0,0,0,0,0,0,0,0,0,0,0,0,0,0,0,0,0,0,0,0,0,0,0,0,0,0,0,0,0,0,0,0,0,0,0,0,0,0,0,0,0,0,0,0,0,0,0,0,0,0,0,0,0,0,0,0,0,0,0,0,0,0,0,0,0,0,0,0,0,0,0,0,0,0,0,0,0,0,0,0,0,0,0,0,0,0,0,0,0,0,0,0,0,0,0,0,0,0,0,0,0,0,0,0,0,0,0,0,0,0,0,0,0,0,0,0,0,0,0,0,0,0,0,0,0,0,0,0,0,0,0,0,0,0,0,0,0,0,0,0,0,0,0,0,0,0,0,0,0]}],[{"header":{"parameterUnit":"kt","parameterCategory":2,"dx":1,"dy":1,"la1":29.764190673828125,"la2":30.86408042907715,"lo1":-88.46762084960938,"lo2":-86.9344482421875,"nx":47,"ny":34,"refTime":"2022-09-28T00:00:00:Z","depth":"4","parameterNumber":3,"parameterNumberName":"V-component_of_CURRENTS"},"data":[0.0854,0.1084,0.1233,0.1164,0.0988,0.0929,0.0945,0.0913,0.0774,0.0497,0.0144,-0.008,-0.0123,-0.0085,-0.0107,-0.016,-0.0208,-0.0128,0.0064,0.0262,0.0331,0.0326,0.0326,0.0262,0.0101,0.0315,0.087,0.1447,0.1799,0.1826,0.1933,0.2146,0.2563,0.3118,0.3454,0.3577,0.338,0.2947,0.244,0.1773,0.1148,0.0998,0.1516,0.2312,0.2926,0.3145,0.3385,0.0806,0.086,0.087,0.0844,0.086,0.087,0.0828,0.0747,0.0609,0.0368,0.0107,-0.0032,-0.0043,-0.0021,-0.0032,-0.0048,-0.0096,-0.0069,0.0101,0.031,0.0352,0.0251,0.0166,0.0171,0.0214,0.0432,0.0747,0.1175,0.1543,0.1393,0.1089,0.1345,0.1869,0.2712,0.3481,0.4026,0.4197,0.3978,0.3497,0.2728,0.1911,0.1644,0.2152,0.2963,0.3481,0.3583,0.3625,0.0822,0.087,0.0838,0.0785,0.0715,0.0657,0.0593,0.0513,0.0395,0.0214,0.0064,0.0011,-0.0005,-0.0032,-0.008,-0.0096,-0.0112,-0.008,0.0048,0.024,0.04,0.0438,0.0443,0.0582,0.0806,0.1073,0.1271,0.1201,0.1345,0.1201,0.0224,0.0027,0.0646,0.1671,0.2947,0.3978,0.4656,0.4821,0.4517,0.3769,0.2798,0.2285,0.2643,0.3374,0.3775,0.3769,0.3673,0.0828,0.0908,0.0913,0.0849,0.0747,0.0635,0.0539,0.0443,0.0315,0.0171,0.0069,0.0021,-0.0011,-0.0069,-0.0144,-0.016,-0.0166,-0.0128,-0.0032,0.0133,0.0331,0.0534,0.0758,0.1036,0.1271,0.1474,0.1628,0.1239,0.1105,0.0913,-0.0021,-0.1025,-0.0982,-0.0331,0.0993,0.2573,0.4079,0.5008,0.5248,0.4821,0.3839,0.2995,0.2963,0.3508,0.3892,0.3903,0.3753,0.0715,0.0849,0.0913,0.0897,0.0854,0.0758,0.0635,0.0497,0.0336,0.0166,0.0032,-0.0048,-0.0091,-0.0144,-0.0219,-0.0214,-0.0203,-0.016,-0.0085,0.0043,0.0235,0.0481,0.0806,0.1153,0.1399,0.158,0.1719,0.1319,0.0897,0.0614,0.0096,-0.0801,-0.1335,-0.1495,-0.0934,0.0198,0.1842,0.3604,0.4837,0.5238,0.4794,0.3914,0.3396,0.3572,0.3935,0.4068,0.3956,0.0523,0.0689,0.0785,0.0817,0.0806,0.0737,0.0609,0.0448,0.0262,0.0059,-0.0112,-0.0198,-0.0224,-0.0246,-0.0288,-0.0246,-0.0224,-0.0187,-0.0123,-0.0011,0.0166,0.0416,0.0758,0.1132,0.1404,0.1575,0.1692,0.1511,0.0886,0.04,-0.0021,-0.039,-0.0747,-0.1041,-0.095,-0.0667,0.0069,0.1356,0.2872,0.4138,0.4725,0.4581,0.41,0.3865,0.3978,0.4095,0.4058,0.0224,0.0379,0.0491,0.0555,0.0571,0.0513,0.039,0.0235,0.0059,-0.0123,-0.0251,-0.0288,-0.0283,-0.0294,-0.032,-0.0267,-0.024,-0.0219,-0.0149,-0.0027,0.0144,0.0379,0.0699,0.1062,0.1361,0.1543,0.165,0.1644,0.1169,0.0555,0.0,-0.0416,-0.0694,-0.078,-0.0609,-0.031,0.0075,0.0657,0.1404,0.2477,0.354,0.4245,0.4469,0.4314,0.4127,0.4031,0.3956,-0.0251,-0.0128,-0.0016,0.0101,0.0176,0.0182,0.0101,-0.0027,-0.0155,-0.0267,-0.0304,-0.0278,-0.0246,-0.0262,-0.0288,-0.0262,-0.0262,-0.0251,-0.0182,-0.0043,0.0133,0.0342,0.0619,0.0934,0.1233,0.1463,0.1607,0.1666,0.1516,0.1116,0.055,-0.0021,-0.0502,-0.0806,-0.0849,-0.0534,0.0027,0.0854,0.1447,0.2002,0.2718,0.3524,0.4239,0.4512,0.4335,0.4068,0.3855,-0.0619,-0.0513,-0.0416,-0.0283,-0.0133,-0.0048,-0.0064,-0.0144,-0.023,-0.0278,-0.0267,-0.0235,-0.0203,-0.0203,-0.0224,-0.0214,-0.024,-0.0256,-0.0192,-0.0059,0.0107,0.0283,0.0497,0.0753,0.103,0.1303,0.1516,0.1655,0.1671,0.1511,0.1153,0.071,0.024,-0.0203,-0.0587,-0.0769,-0.0427,0.0432,0.1393,0.2104,0.268,0.339,0.4122,0.449,0.4394,0.4111,0.3828,-0.0646,-0.0566,-0.0529,-0.0422,-0.0256,-0.0117,-0.0123,-0.0203,-0.0262,-0.0262,-0.0262,-0.031,-0.0315,-0.0299,-0.0256,-0.0198,-0.0203,-0.0219,-0.0171,-0.0053,0.0091,0.023,0.0368,0.0555,0.0796,0.1073,0.1351,0.1559,0.1655,0.1586,0.1377,0.11,0.0806,0.0502,0.0182,-0.0198,-0.0368,0.0027,0.0844,0.1767,0.2483,0.323,0.4079,0.4533,0.4357,0.3972,0.3673,-0.0481,-0.0464,-0.055,-0.0529,-0.0384,-0.0214,-0.0326,-0.0518,-0.055,-0.0475,-0.0534,-0.0705,-0.0769,-0.0785,-0.0582,-0.0294,-0.0166,-0.0155,-0.0128,-0.0037,0.0091,0.0208,0.0299,0.04,0.0571,0.0817,0.1095,0.1345,0.15,0.1506,0.1356,0.1132,0.0918,0.0737,0.0593,0.0486,0.0304,0.0117,0.0416,0.1148,0.1938,0.2547,0.3278,0.3983,0.4095,0.3668,0.3289,-0.0256,-0.0352,-0.0545,-0.0705,-0.0689,-0.0427,-0.0742,-0.1207,-0.1212,-0.0945,-0.0918,-0.0972,-0.0934,-0.1095,-0.0865,-0.0395,-0.0133,-0.0085,-0.0069,-0.0016,0.0107,0.0219,0.0299,0.0336,0.0416,0.0577,0.0806,0.1046,0.1239,0.1308,0.1223,0.1052,0.087,0.0721,0.0619,0.0614,0.0731,0.0587,0.0358,0.0593,0.1143,0.15,0.1922,0.2627,0.3049,0.2974,0.2654,-0.0101,-0.0171,-0.0139,-0.0817,-0.1127,-0.0699,-0.0972,-0.1655,-0.1789,-0.1121,-0.0822,-0.0694,-0.0448,-0.0198,-0.0336,-0.0246,-0.0182,-0.0043,0.0005,0.0011,0.0112,0.0235,0.039,0.0363,0.0331,0.039,0.0539,0.0747,0.0956,0.1057,0.103,0.0929,0.079,0.0651,0.0534,0.0491,0.0625,0.079,0.0587,0.0363,0.0336,0.0475,0.0753,0.1116,0.1426,0.1751,0.1746,0,0,-0.0037,-0.1041,-0.1484,-0.0571,-0.0694,-0.1233,-0.1596,-0.0662,-0.0336,0.0278,0,0.0203,0.0358,0.0059,-0.0182,-0.0011,0.0059,0.0043,0.0128,0.0262,0.078,0.0523,0.0288,0.023,0.0315,0.0486,0.0758,0.0817,0.0817,0.078,0.071,0.0619,0.047,0.0358,0.0411,0.0598,0.0726,0.0507,0.016,-0.0096,-0.0182,-0.0214,-0.0011,0.0384,0.0683,-0.0107,0.0048,-0.0299,-0.1217,-0.1479,0,0,-0.189,-0.1863,-0.0614,-0.0149,0.1169,0.0107,0.1111,0,0,0,0,0,0,0,0,0.1095,0.0641,0.0272,0.0166,0.0246,0.04,0.1009,0.0683,0.0609,0.0598,0.0603,0.0678,0.0502,0.0299,0.0219,0.0347,0.0678,0.0822,0.063,0.0214,-0.023,-0.0566,-0.0683,-0.0614,-0.0331,0.0069,0.0117,-0.0315,-0.086,-0.0769,-0.0646,-0.0822,-0.1735,-0.0523,0,0,0,0.0096,0.1255,-0.0005,0.0117,0.0059,0.0069,0.0096,0.0101,0.0128,0,0,0,0,0,0,0,0.0913,0.0091,0.0529,0.0534,0.0577,0.1105,0.0699,0.0358,0.0016,-0.0101,0.0491,0.0934,0.0966,0.0742,0.04,0.0069,-0.0246,-0.0545,-0.078,0.0347,0.0502,0.0107,-0.0438,-0.0587,-0.1596,-0.1639,-0.079,0.0982,0.0,0.0,0.0187,0.0582,0.0368,-0.0336,-0.0283,-0.0117,0.0198,0.0278,0.0358,0.0256,0,0,0,0,0,0,0,0,0,0,0,0,0.1452,0.0849,0.0609,-0.0107,-0.0902,0.0427,0.1367,0.1121,0.087,0.0673,0.0534,0.0438,0.0347,0.0101,0,0.0876,0.0534,0.0123,-0.0288,-0.126,0,0,0,0,0,0.0438,0.1329,0.0502,-0.0561,-0.1041,-0.0929,0.0112,0.031,0.0502,0,0,0,0,0,0,0,0,0,0,0,0,0,0,0,0,-0.0176,-0.1095,0,0,0.1207,0.0886,0.0683,0.0587,0.0598,0.0833,0.1281,0,0,0,0.0534,0.0149,-0.0614,0,0,0,0,0,0.0529,0.1575,0.0742,-0.024,-0.1271,-0.1847,-0.0149,0.0262,0,0,0,0,0,0,0,0,0,0,0,0,0,0,0,0,0,0,-0.0721,-0.0619,0,0,0,0,0,0,0,0.1607,0,0,0,0,0,0,0,0,0,0,0,0.0678,0.1463,0.0966,0.0037,-0.1014,-0.2184,-0.0267,0,0,0,0,0,0,0,0,0,0,0,0,0,0,0,0,0,0,0,0,-0.1239,-0.0534,-0.0224,0.0021,0,0,0,0,0,0,0,0,0,0,0,0,0,0,0,0,0.0817,0.0454,0.1228,0.0198,-0.079,-0.1863,0,0,0,0,0,0,0,0,0,0,0,0,0,0,0,0,0,0,0,0,0,0,-0.1068,-0.0448,0.0043,0.0,-0.0198,0.0144,0,0,0,0,0,0,0,0,0,0,0,0,0,0,-0.0182,0.1244,0.024,-0.079,-0.1148,0,0,0,0,0,0,0,0,0,0,0,0,0,0,0,0,0,0,0,0,0,0,0,0,0,0,-0.039,0.0294,0,0,0,0,0,0,0,0,0,0,0,0,0,0,0.0064,0.1057,0.0155,-0.079,-0.0534,0,0,0,0,0,0,0,0,0,0,0,0,0,0,0,0,0,0,0,0,0,0,0,0,0,0,0,0,0,0,0,0,0,0,0,0,0,0,0,0,0,0,0.0342,0.0982,0.0176,-0.0924,-0.024,0,0,0,0,0,0,0,0,0,0,0,0,0,0,0,0,0,0,0,0,0,0,0,0,0,0,0,0,0,0,0,0,0,0,0,0,0,0,0,0,0,0,0.0545,0.102,0.0438,-0.103,-0.0192,0,0,0,0,0,0,0,0,0,0,0,0,0,0,0,0,0,0,0,0,0,0,0,0,0,0,0,0,0,0,0,0,0,0,0,0,0,0,0,0,0,0,0,0.1105,0.086,-0.0747,-0.0048,0,0,0,0,0,0,0,0,0,0,0,0,0,0,0,0,0,0,0,0,0,0,0,0,0,0,0,0,0,0,0,0,0,0,0,0,0,0,0,0,0,0,0,0.1207,0.11,-0.087,0.0139,0,0,0,0,0,0,0,0,0,0,0,0,0,0,0,0,0,0,0,0,0,0,0,0,0,0,0,0,0,0,0,0,0,0,0,0,0,0,0,0,0,0,0,0,0.1121,-0.1249,0,0,0,0,0,0,0,0,0,0,0,0,0,0,0,0,0,0,0,0,0,0,0,0,0,0,0,0,0,0,0,0,0,0,0,0,0,0,0,0,0,0,0,0,0,0,0,0,0,0,0,0,0,0,0,0,0,0,0,0,0,0,0,0,0,0,0,0,0,0,0,0,0,0,0,0,0,0,0,0,0,0,0,0,0,0,0,0,0,0,0,0,0,0,0,0,0,0,0,0,0,0,0,0,0,0,0,0,0,0,0,0,0,0,0,0,0,0,0,0,0,0,0,0,0,0,0,0,0,0,0,0,0,0,0,0,0,0,0,0,0,0,0,0,0,0,0,0,0,0,0,0,0,0,0,0,0,0,0,0,0,0,0,0,0,0,0,0,0,0,0,0,0,0,0,0,0,0,0,0,0,0,0,0,0,0,0,0,0,0,0,0,0,0,0,0,0,0,0,0,0,0,0,0,0,0,0,0,0,0,0,0,0,0,0,0,0,0,0,0,0,0,0,0,0,0,0,0,0,0,0,0,0,0,0,0,0,0,0,0,0,0,0,0,0,0,0,0,0,0,0,0,0,0,0,0,0,0,0,0,0,0,0,0,0,0,0,0,0,0,0,0,0,0,0,0,0,0,0,0,0,0,0,0,0,0,0,0,0,0,0,0,0,0,0,0,0,0,0,0,0,0,0,0,0,0,0,0,0,0,0,0,0]}]],[[{"header":{"parameterUnit":"kt","parameterCategory":2,"dx":1,"dy":1,"la1":29.764190673828125,"la2":30.86408042907715,"lo1":-88.46762084960938,"lo2":-86.9344482421875,"nx":47,"ny":34,"refTime":"2022-09-28T00:00:00:Z","depth":"6","parameterNumber":2,"parameterNumberName":"U-component_of_CURRENTS"},"data":[0.0448,0.0758,0.1191,0.1644,0.1949,0.2029,0.197,0.1965,0.2066,0.2237,0.2419,0.2499,0.2488,0.2493,0.26,0.2766,0.2904,0.3011,0.3182,0.3502,0.3865,0.409,0.4213,0.4325,0.4474,0.4602,0.4458,0.4143,0.4122,0.4576,0.5206,0.5809,0.654,0.7496,0.8404,0.8916,0.9119,0.9215,0.9407,0.9851,1.0427,1.0854,1.1084,1.1217,1.1297,1.1244,1.0993,0.0384,0.0635,0.0913,0.1217,0.1474,0.1639,0.1773,0.1959,0.2216,0.2493,0.2654,0.2675,0.2648,0.2648,0.2723,0.284,0.2947,0.3049,0.3203,0.3508,0.394,0.4325,0.4522,0.4592,0.4592,0.4586,0.4453,0.4106,0.3903,0.4116,0.4592,0.5168,0.583,0.6578,0.7491,0.8334,0.8847,0.9103,0.9327,0.9738,1.0235,1.0593,1.0833,1.1041,1.1169,1.1164,1.0993,0.0384,0.0603,0.0838,0.1089,0.1319,0.1532,0.1757,0.2034,0.2344,0.2595,0.2734,0.2782,0.2803,0.2835,0.2899,0.2969,0.3027,0.3102,0.3235,0.3428,0.3695,0.3988,0.4202,0.4287,0.425,0.4159,0.418,0.4154,0.4058,0.41,0.4234,0.4581,0.5243,0.5953,0.6743,0.7678,0.8452,0.8975,0.9343,0.9744,1.015,1.0379,1.0523,1.0705,1.0854,1.0945,1.0924,0.0486,0.0657,0.0849,0.1084,0.1335,0.1602,0.1885,0.2178,0.2456,0.2664,0.2803,0.2894,0.2963,0.3033,0.3091,0.3118,0.3118,0.3161,0.3262,0.339,0.3518,0.3636,0.3727,0.3807,0.3828,0.3796,0.401,0.4319,0.4426,0.449,0.4415,0.4159,0.4186,0.4811,0.5633,0.6546,0.7646,0.8596,0.9253,0.9771,1.0182,1.0347,1.0352,1.0443,1.0635,1.0838,1.0966,0.0598,0.0747,0.094,0.1164,0.142,0.1703,0.2007,0.2296,0.2536,0.2718,0.284,0.2936,0.3038,0.315,0.323,0.3241,0.3214,0.3225,0.3289,0.3358,0.3412,0.3449,0.3513,0.3631,0.3764,0.3855,0.4132,0.4645,0.4944,0.4976,0.496,0.4586,0.3972,0.3641,0.4052,0.5051,0.6161,0.7432,0.8649,0.9525,1.0139,1.0486,1.0507,1.0481,1.063,1.0886,1.1111,0.0689,0.0849,0.1041,0.1265,0.1522,0.1789,0.2061,0.2301,0.2499,0.2638,0.2734,0.2824,0.2958,0.3129,0.3246,0.3273,0.3262,0.3268,0.3289,0.3305,0.3294,0.3289,0.3332,0.3476,0.3711,0.393,0.418,0.4746,0.5355,0.5585,0.5542,0.535,0.4987,0.441,0.3999,0.418,0.5013,0.6263,0.7608,0.8842,0.9787,1.0422,1.0764,1.0854,1.0924,1.11,1.133,0.0769,0.0956,0.1169,0.1393,0.1618,0.1842,0.2061,0.2253,0.2397,0.2493,0.2568,0.267,0.2824,0.299,0.3102,0.315,0.3182,0.3219,0.3235,0.3219,0.3187,0.3161,0.3187,0.3332,0.3583,0.3855,0.4095,0.4496,0.5163,0.5766,0.6038,0.6055,0.5878,0.5489,0.4971,0.4586,0.465,0.5515,0.6893,0.8179,0.9311,1.0166,1.0742,1.118,1.141,1.1516,1.1687,0.0747,0.0956,0.1191,0.1426,0.1639,0.1826,0.2002,0.2157,0.2274,0.2371,0.2467,0.2579,0.2696,0.2798,0.2867,0.2936,0.3022,0.3091,0.3113,0.3086,0.3049,0.3033,0.3081,0.3225,0.3438,0.3679,0.3903,0.4154,0.4544,0.5067,0.5563,0.5916,0.6076,0.6028,0.5729,0.5147,0.4656,0.4736,0.5643,0.7064,0.8414,0.9504,1.039,1.1207,1.1794,1.2024,1.2168,0.0753,0.0956,0.1185,0.1404,0.1596,0.1762,0.1901,0.2029,0.2157,0.228,0.2397,0.2504,0.2584,0.2643,0.2696,0.2766,0.284,0.2894,0.291,0.2899,0.2888,0.2899,0.2974,0.3113,0.3294,0.3492,0.3689,0.386,0.4036,0.4282,0.4624,0.4992,0.5312,0.5558,0.5702,0.5542,0.496,0.4458,0.4618,0.5515,0.6829,0.8153,0.9386,1.0635,1.1698,1.2275,1.2547,0.0908,0.1057,0.1239,0.142,0.158,0.1698,0.1783,0.189,0.2029,0.2178,0.2355,0.2541,0.2691,0.275,0.2728,0.268,0.2659,0.267,0.268,0.2696,0.2712,0.275,0.2835,0.2963,0.3118,0.3284,0.3449,0.3609,0.3753,0.3876,0.4004,0.4159,0.4351,0.4592,0.4891,0.5211,0.5312,0.4907,0.4501,0.464,0.5339,0.646,0.7795,0.9343,1.0902,1.197,1.2531,0.1046,0.1078,0.1185,0.1367,0.1538,0.1634,0.1698,0.1837,0.2056,0.2301,0.2584,0.2894,0.3129,0.3241,0.3193,0.2974,0.2702,0.2536,0.2483,0.2493,0.2525,0.2584,0.2664,0.276,0.2878,0.3011,0.3166,0.3326,0.347,0.3609,0.3721,0.3812,0.3882,0.3972,0.4159,0.4474,0.4997,0.5307,0.4992,0.4698,0.4821,0.5323,0.6279,0.7614,0.9279,1.0849,1.1863,0.1057,0.1004,0.1025,0.1191,0.1436,0.1559,0.149,0.1559,0.1954,0.2397,0.2686,0.2899,0.3033,0.3033,0.2958,0.2814,0.2584,0.2387,0.2296,0.2285,0.2317,0.2381,0.2451,0.2509,0.2573,0.2664,0.2792,0.2942,0.3102,0.3268,0.3438,0.3583,0.3711,0.3833,0.3946,0.4074,0.4373,0.4987,0.5339,0.5115,0.4939,0.5077,0.5489,0.6236,0.7411,0.8932,1.0294,0.0662,0.0892,0.087,0.0849,0.1148,0.1367,0.1057,0.102,0.1527,0.1965,0.2157,0.2024,0.2339,0.2472,0.2269,0.2253,0.2141,0.2061,0.205,0.2072,0.2104,0.2162,0.2189,0.2178,0.2194,0.2242,0.2328,0.2456,0.2638,0.2862,0.3107,0.3332,0.3529,0.3705,0.3855,0.3935,0.3994,0.4346,0.4981,0.5339,0.5291,0.5227,0.5307,0.5569,0.606,0.6903,0.8051,0,0,0.0155,0.0475,0.0614,0.094,0.1062,0.166,0.15,0.1596,0.1447,0.1319,0,-0.0016,-0.0123,0.04,0.1105,0.158,0.1831,0.189,0.1917,0.2072,0.2029,0.1821,0.1799,0.1858,0.1927,0.204,0.2184,0.2387,0.268,0.2969,0.3219,0.3417,0.3561,0.3636,0.3668,0.3791,0.4223,0.4843,0.5323,0.5617,0.5772,0.5846,0.5868,0.6017,0.6487,0.1057,0.1105,0.1046,0.1025,0.102,0,0,0.0411,0.0849,0.0737,0.0774,0.1404,0.1623,0.1356,0,0,0,0,0,0,0,0,0.0422,0.1095,0.1442,0.1548,0.1612,0.1863,0.1938,0.1949,0.2205,0.2499,0.2782,0.2958,0.3033,0.3059,0.3075,0.3182,0.3476,0.3978,0.465,0.5334,0.5884,0.6263,0.6482,0.6498,0.646,0.1794,0.1628,0.1628,0.1623,0.1602,0.1719,0.2472,0.2317,0.1554,0,0,0,0.0005,0.0582,0.1009,0.0785,0.0635,0.0491,0.0342,0.0203,0.0139,0,0,0,0,0,0,0,0.032,0.1089,0.1709,0.2066,0.2536,0.2638,0.2429,0.2328,0.2306,0.2557,0.2958,0.3374,0.3876,0.4442,0.4971,0.5425,0.5905,0.6439,0.6802,0.1623,0.1628,0.1623,0.166,0.1943,0.2322,0.1725,0.0721,0.0828,0.1228,0.1543,0.158,0.0609,-0.0214,-0.0272,0.0064,0.0395,0.0384,0.0203,-0.0032,-0.0176,0,0,0,0,0,0,0,0,0,0,0,0,0.0598,0.1532,0.1735,0.1607,0.1895,0.2525,0.2728,0.2931,0.3273,0.3609,0.3983,0.4496,0.52,0.6028,0,0.0224,0.0833,0.1447,0.1612,0.1612,0,0,0,0,0,0.0053,0.0048,-0.0384,-0.0849,-0.0817,-0.0384,-0.0043,-0.0021,-0.0032,0,0,0,0,0,0,0,0,0,0,0,0,0,0,0,0,0.0582,0.0635,0,0,0.173,0.2387,0.2771,0.3054,0.3364,0.3999,0.457,0,0,0,0.0203,0.0464,0.0523,0,0,0,0,0,0.0224,0.0379,0.016,-0.0368,-0.087,-0.0998,-0.071,-0.0411,0,0,0,0,0,0,0,0,0,0,0,0,0,0,0,0,0,0,-0.063,-0.0988,0,0,0,0,0,0,0,0.0726,0,0,0,0,0,0,0,0,0,0,0,0.031,0.095,0.1164,0.0897,0.0406,-0.0374,-0.0812,0,0,0,0,0,0,0,0,0,0,0,0,0,0,0,0,0,0,0,0,-0.0534,-0.0657,-0.0208,-0.0155,0,0,0,0,0,0,0,0,0,0,0,0,0,0,0,0,0.0048,0.0897,0.1612,0.1372,0.0742,0.0294,0,0,0,0,0,0,0,0,0,0,0,0,0,0,0,0,0,0,0,0,0,0,-0.0294,-0.0166,0.0416,-0.0662,-0.1025,-0.0096,0,0,0,0,0,0,0,0,0,0,0,0,0,0,0.1233,0.1212,0.1335,0.0593,0.0128,0,0,0,0,0,0,0,0,0,0,0,0,0,0,0,0,0,0,0,0,0,0,0,0,0,0,-0.0166,-0.0336,0,0,0,0,0,0,0,0,0,0,0,0,0,0,0.0256,0.0972,0.1324,0.063,0.0032,0,0,0,0,0,0,0,0,0,0,0,0,0,0,0,0,0,0,0,0,0,0,0,0,0,0,0,0,0,0,0,0,0,0,0,0,0,0,0,0,0,0,0.0828,0.1564,0.1233,0.0534,0.0117,0,0,0,0,0,0,0,0,0,0,0,0,0,0,0,0,0,0,0,0,0,0,0,0,0,0,0,0,0,0,0,0,0,0,0,0,0,0,0,0,0,0,0.1159,0.1757,0.1057,0.0411,-0.0107,0,0,0,0,0,0,0,0,0,0,0,0,0,0,0,0,0,0,0,0,0,0,0,0,0,0,0,0,0,0,0,0,0,0,0,0,0,0,0,0,0,0,0,0.0566,0.1244,0.0657,-0.0096,0,0,0,0,0,0,0,0,0,0,0,0,0,0,0,0,0,0,0,0,0,0,0,0,0,0,0,0,0,0,0,0,0,0,0,0,0,0,0,0,0,0,0,0.0395,0.0107,-0.0342,-0.0101,0,0,0,0,0,0,0,0,0,0,0,0,0,0,0,0,0,0,0,0,0,0,0,0,0,0,0,0,0,0,0,0,0,0,0,0,0,0,0,0,0,0,0,0,-0.0208,-0.0416,0,0,0,0,0,0,0,0,0,0,0,0,0,0,0,0,0,0,0,0,0,0,0,0,0,0,0,0,0,0,0,0,0,0,0,0,0,0,0,0,0,0,0,0,0,0,0,0,0,0,0,0,0,0,0,0,0,0,0,0,0,0,0,0,0,0,0,0,0,0,0,0,0,0,0,0,0,0,0,0,0,0,0,0,0,0,0,0,0,0,0,0,0,0,0,0,0,0,0,0,0,0,0,0,0,0,0,0,0,0,0,0,0,0,0,0,0,0,0,0,0,0,0,0,0,0,0,0,0,0,0,0,0,0,0,0,0,0,0,0,0,0,0,0,0,0,0,0,0,0,0,0,0,0,0,0,0,0,0,0,0,0,0,0,0,0,0,0,0,0,0,0,0,0,0,0,0,0,0,0,0,0,0,0,0,0,0,0,0,0,0,0,0,0,0,0,0,0,0,0,0,0,0,0,0,0,0,0,0,0,0,0,0,0,0,0,0,0,0,0,0,0,0,0,0,0,0,0,0,0,0,0,0,0,0,0,0,0,0,0,0,0,0,0,0,0,0,0,0,0,0,0,0,0,0,0,0,0,0,0,0,0,0,0,0,0,0,0,0,0,0,0,0,0,0,0,0,0,0,0,0,0,0,0,0,0,0,0,0,0,0,0,0,0,0,0,0,0,0,0,0,0,0,0,0,0,0,0,0,0,0,0,0]}],[{"header":{"parameterUnit":"kt","parameterCategory":2,"dx":1,"dy":1,"la1":29.764190673828125,"la2":30.86408042907715,"lo1":-88.46762084960938,"lo2":-86.9344482421875,"nx":47,"ny":34,"refTime":"2022-09-28T00:00:00:Z","depth":"6","parameterNumber":3,"parameterNumberName":"V-component_of_CURRENTS"},"data":[0.1041,0.1265,0.1399,0.1329,0.1159,0.1105,0.1121,0.1078,0.0924,0.0635,0.0278,0.0043,-0.0005,0.0027,0.0016,-0.0027,-0.0064,0.0027,0.0224,0.0416,0.0486,0.0486,0.0486,0.0422,0.0272,0.0497,0.1046,0.1618,0.1975,0.2002,0.2114,0.2301,0.2675,0.3177,0.3502,0.3652,0.3492,0.3091,0.2595,0.1954,0.1345,0.1196,0.1698,0.2488,0.3102,0.3342,0.3593,0.0998,0.1052,0.1057,0.103,0.1046,0.1062,0.1014,0.0918,0.0753,0.0507,0.024,0.0096,0.0075,0.0085,0.008,0.0064,0.0032,0.0085,0.0262,0.0464,0.0513,0.0416,0.0331,0.0331,0.0374,0.0603,0.0929,0.134,0.1698,0.1554,0.1265,0.1506,0.1997,0.2798,0.3545,0.4106,0.4298,0.4095,0.3631,0.2899,0.2125,0.1869,0.2355,0.3139,0.3663,0.3775,0.3828,0.0982,0.1046,0.1025,0.0972,0.0913,0.0854,0.078,0.0683,0.0545,0.0358,0.0203,0.0139,0.0117,0.008,0.0032,0.0021,0.0016,0.0064,0.0198,0.0395,0.0555,0.0593,0.0603,0.0731,0.095,0.1223,0.1426,0.1356,0.1495,0.1351,0.0416,0.0235,0.0844,0.1826,0.3059,0.409,0.4757,0.4923,0.4624,0.3919,0.3011,0.2525,0.2862,0.3567,0.3962,0.3962,0.3871,0.0961,0.1052,0.1068,0.1014,0.0924,0.0812,0.0705,0.0598,0.0454,0.031,0.0203,0.0149,0.0117,0.0059,-0.0016,-0.0037,-0.0032,0.0016,0.0112,0.0278,0.0475,0.0678,0.0902,0.1175,0.141,0.1607,0.1757,0.1393,0.1255,0.1062,0.0182,-0.0758,-0.0673,-0.0032,0.1244,0.2776,0.4223,0.5115,0.535,0.4939,0.402,0.323,0.3193,0.3716,0.4084,0.4095,0.3946,0.0838,0.0977,0.1036,0.103,0.0988,0.0892,0.0769,0.0625,0.0459,0.0288,0.016,0.0085,0.0053,0.0005,-0.0059,-0.0069,-0.0059,-0.0016,0.0059,0.0182,0.0368,0.0614,0.094,0.1281,0.1532,0.1703,0.1842,0.1468,0.1057,0.0774,0.0283,-0.055,-0.1014,-0.1105,-0.0523,0.0561,0.212,0.3791,0.4971,0.535,0.4939,0.4111,0.3625,0.3791,0.4143,0.4266,0.4143,0.0651,0.0812,0.0897,0.0929,0.0913,0.0844,0.0721,0.0561,0.0379,0.0187,0.0037,-0.0032,-0.0048,-0.0064,-0.0101,-0.008,-0.0064,-0.0032,0.0027,0.0128,0.0294,0.0539,0.0876,0.1249,0.1527,0.1698,0.1815,0.165,0.1057,0.0593,0.0182,-0.0166,-0.0497,-0.0737,-0.0571,-0.0235,0.0481,0.1692,0.3123,0.4303,0.4853,0.4736,0.4298,0.4079,0.4197,0.4319,0.4255,0.0384,0.0523,0.0625,0.0678,0.0689,0.0635,0.0513,0.0368,0.0208,0.0043,-0.0059,-0.0085,-0.0075,-0.008,-0.0107,-0.008,-0.0064,-0.0043,0.0011,0.0117,0.0272,0.0497,0.0806,0.1164,0.1468,0.1655,0.1767,0.1762,0.1329,0.0758,0.0251,-0.0144,-0.0432,-0.0513,-0.032,0.0027,0.0459,0.1057,0.1762,0.2755,0.3716,0.4383,0.4618,0.4501,0.4346,0.4277,0.418,-0.0005,0.0101,0.0192,0.0283,0.0347,0.0352,0.0278,0.0166,0.0053,-0.0043,-0.0064,-0.0043,-0.0021,-0.0043,-0.0075,-0.0064,-0.0069,-0.0064,0.0,0.0112,0.0267,0.0459,0.0721,0.1025,0.1324,0.1559,0.1709,0.1773,0.1639,0.1276,0.0774,0.0256,-0.0198,-0.0481,-0.0534,-0.0235,0.0331,0.1175,0.1789,0.2317,0.2979,0.37,0.4367,0.4656,0.4533,0.4309,0.4095,-0.0267,-0.0182,-0.0112,-0.0005,0.0112,0.0182,0.0166,0.0091,0.0021,-0.0016,-0.0005,0.0016,0.0027,0.0011,-0.0021,-0.0032,-0.0059,-0.0059,0.0005,0.0123,0.0262,0.0416,0.0603,0.0849,0.1121,0.1388,0.1607,0.1746,0.1762,0.1618,0.1303,0.0902,0.0481,0.008,-0.0283,-0.0443,-0.0123,0.0705,0.1666,0.2387,0.2958,0.3615,0.4266,0.4608,0.456,0.433,0.4068,-0.0235,-0.0176,-0.016,-0.0091,0.0037,0.0149,0.0144,0.0069,0.0021,0.0021,0.0016,-0.0016,-0.0027,-0.0021,-0.0005,0.0011,-0.0016,-0.0021,0.0032,0.0139,0.0262,0.0374,0.0491,0.0657,0.0892,0.1164,0.1431,0.1639,0.1735,0.1671,0.1474,0.1217,0.095,0.0678,0.0384,0.0064,-0.0075,0.0315,0.1105,0.2013,0.2712,0.347,0.4261,0.4672,0.4506,0.418,0.3898,-0.0048,-0.0064,-0.0155,-0.0155,-0.0043,0.0101,0.0016,-0.0133,-0.016,-0.0107,-0.0149,-0.0214,-0.0214,-0.0203,-0.0043,0.0107,0.0107,0.0048,0.0053,0.0139,0.0262,0.0358,0.0427,0.0513,0.0678,0.0924,0.1196,0.1436,0.1586,0.1586,0.1436,0.1228,0.102,0.0849,0.0721,0.0641,0.0518,0.039,0.0705,0.1393,0.2136,0.2739,0.3476,0.4143,0.425,0.3871,0.3529,0.0235,0.0117,-0.0133,-0.0288,-0.023,0.0016,-0.0224,-0.0529,-0.0539,-0.0358,-0.0347,-0.0176,0.0107,0.0032,0.0139,0.0347,0.0331,0.0171,0.0096,0.0144,0.0262,0.0368,0.0422,0.0448,0.0523,0.0694,0.0918,0.1159,0.1345,0.1404,0.1319,0.1148,0.0972,0.0822,0.0726,0.0731,0.0865,0.0806,0.0646,0.0876,0.1388,0.1719,0.2146,0.2824,0.323,0.3193,0.291,0.0432,0.0283,0.0198,-0.0384,-0.0534,0.0112,-0.0064,-0.0657,-0.0769,-0.0347,-0.0005,0.0299,0.1025,0.134,0.1228,0.1036,0.0662,0.0379,0.0171,0.0155,0.0262,0.039,0.0507,0.0464,0.0432,0.0502,0.0662,0.0876,0.1078,0.1175,0.1153,0.1046,0.0908,0.0769,0.0651,0.0614,0.0763,0.0988,0.0876,0.0694,0.0683,0.0812,0.1062,0.1383,0.1692,0.2018,0.2024,0,0,0.0262,-0.0464,-0.0641,0.0513,0.0459,-0.0085,-0.0427,0.0235,0.0448,0.1041,0,0.1249,0.1975,0.1719,0.0982,0.0518,0.0208,0.0171,0.0272,0.0422,0.0865,0.0614,0.039,0.0342,0.0459,0.0641,0.0902,0.0961,0.0961,0.0924,0.0849,0.0753,0.0603,0.0502,0.0577,0.0822,0.102,0.087,0.0582,0.0347,0.023,0.0187,0.0395,0.0763,0.103,0.0144,0.0294,0.0187,-0.0432,-0.0416,0,0,-0.0603,-0.0577,0.0219,0.0507,0.1762,0.0609,0.1805,0,0,0,0,0,0,0,0,0.1153,0.0721,0.0374,0.0283,0.0395,0.0577,0.1095,0.0806,0.0747,0.0758,0.0753,0.0806,0.0625,0.0438,0.04,0.0598,0.0982,0.118,0.1025,0.0646,0.0235,-0.0075,-0.0176,-0.0123,0.0123,0.0545,0.0838,0.0635,0.0144,0.0182,-0.008,0.0075,-0.0662,0.0347,0,0,0,0.1089,0.2029,0.0342,0.0331,0.0219,0.0187,0.0166,0.0182,0.0198,0,0,0,0,0,0,0,0.095,0.0187,0.0635,0.0678,0.0715,0.1175,0.0785,0.0475,0.0182,0.0176,0.0838,0.1276,0.1308,0.11,0.079,0.0486,0.0214,-0.0048,-0.0256,0.0801,0.1212,0.1244,0.0774,0.0272,-0.0459,0.0144,0.0016,0.1265,0.0,0.0,0.0929,0.1607,0.1479,0.0566,0.0342,0.0331,0.0464,0.0411,0.0481,0.039,0,0,0,0,0,0,0,0,0,0,0,0,0.1463,0.0902,0.0678,0.0027,-0.0635,0.0838,0.1564,0.134,0.1105,0.0908,0.078,0.0705,0.0662,0.0486,0,0.1324,0.1532,0.0897,0.0326,-0.0614,0,0,0,0,0,0.1591,0.2397,0.1805,0.0721,0.0053,-0.0005,0.0694,0.0587,0.0577,0,0,0,0,0,0,0,0,0,0,0,0,0,0,0,0,-0.0048,-0.0902,0,0,0.1223,0.0972,0.0796,0.0721,0.0742,0.0988,0.1431,0,0,0,0.0769,0.032,-0.047,0,0,0,0,0,0.1698,0.2456,0.2061,0.1356,0.0278,-0.0224,0.0977,0.0683,0,0,0,0,0,0,0,0,0,0,0,0,0,0,0,0,0,0,-0.0571,-0.0411,0,0,0,0,0,0,0,0.1714,0,0,0,0,0,0,0,0,0,0,0,0.1879,0.2077,0.1757,0.1356,0.0742,-0.0091,0.1116,0,0,0,0,0,0,0,0,0,0,0,0,0,0,0,0,0,0,0,0,-0.0817,0.0011,0.0432,0.0545,0,0,0,0,0,0,0,0,0,0,0,0,0,0,0,0,0.1757,0.1276,0.1575,0.0982,0.0988,-0.0075,0,0,0,0,0,0,0,0,0,0,0,0,0,0,0,0,0,0,0,0,0,0,0.0021,0.087,0.1084,0.0,-0.016,0.0176,0,0,0,0,0,0,0,0,0,0,0,0,0,0,0.1287,0.2253,0.1046,0.1004,-0.0171,0,0,0,0,0,0,0,0,0,0,0,0,0,0,0,0,0,0,0,0,0,0,0,0,0,0,-0.0315,0.0352,0,0,0,0,0,0,0,0,0,0,0,0,0,0,0.1949,0.2483,0.1153,0.1014,0.0011,0,0,0,0,0,0,0,0,0,0,0,0,0,0,0,0,0,0,0,0,0,0,0,0,0,0,0,0,0,0,0,0,0,0,0,0,0,0,0,0,0,0,0.1751,0.2157,0.1543,0.0934,0.0198,0,0,0,0,0,0,0,0,0,0,0,0,0,0,0,0,0,0,0,0,0,0,0,0,0,0,0,0,0,0,0,0,0,0,0,0,0,0,0,0,0,0,0.1399,0.2595,0.2157,0.094,0.0283,0,0,0,0,0,0,0,0,0,0,0,0,0,0,0,0,0,0,0,0,0,0,0,0,0,0,0,0,0,0,0,0,0,0,0,0,0,0,0,0,0,0,0,0.2104,0.1954,0.118,0.0363,0,0,0,0,0,0,0,0,0,0,0,0,0,0,0,0,0,0,0,0,0,0,0,0,0,0,0,0,0,0,0,0,0,0,0,0,0,0,0,0,0,0,0,0.0966,0.126,0.1004,0.0395,0,0,0,0,0,0,0,0,0,0,0,0,0,0,0,0,0,0,0,0,0,0,0,0,0,0,0,0,0,0,0,0,0,0,0,0,0,0,0,0,0,0,0,0,0.0982,0.063,0,0,0,0,0,0,0,0,0,0,0,0,0,0,0,0,0,0,0,0,0,0,0,0,0,0,0,0,0,0,0,0,0,0,0,0,0,0,0,0,0,0,0,0,0,0,0,0,0,0,0,0,0,0,0,0,0,0,0,0,0,0,0,0,0,0,0,0,0,0,0,0,0,0,0,0,0,0,0,0,0,0,0,0,0,0,0,0,0,0,0,0,0,0,0,0,0,0,0,0,0,0,0,0,0,0,0,0,0,0,0,0,0,0,0,0,0,0,0,0,0,0,0,0,0,0,0,0,0,0,0,0,0,0,0,0,0,0,0,0,0,0,0,0,0,0,0,0,0,0,0,0,0,0,0,0,0,0,0,0,0,0,0,0,0,0,0,0,0,0,0,0,0,0,0,0,0,0,0,0,0,0,0,0,0,0,0,0,0,0,0,0,0,0,0,0,0,0,0,0,0,0,0,0,0,0,0,0,0,0,0,0,0,0,0,0,0,0,0,0,0,0,0,0,0,0,0,0,0,0,0,0,0,0,0,0,0,0,0,0,0,0,0,0,0,0,0,0,0,0,0,0,0,0,0,0,0,0,0,0,0,0,0,0,0,0,0,0,0,0,0,0,0,0,0,0,0,0,0,0,0,0,0,0,0,0,0,0,0,0,0,0,0,0,0,0,0,0,0,0,0,0,0,0,0,0,0,0,0,0,0,0,0]}]],[[{"header":{"parameterUnit":"kt","parameterCategory":2,"dx":1,"dy":1,"la1":29.764190673828125,"la2":30.86408042907715,"lo1":-88.46762084960938,"lo2":-86.9344482421875,"nx":47,"ny":34,"refTime":"2022-09-28T00:00:00:Z","depth":"8","parameterNumber":2,"parameterNumberName":"U-component_of_CURRENTS"},"data":[0.0422,0.0737,0.1175,0.1623,0.1927,0.2007,0.1959,0.1959,0.2061,0.2237,0.2408,0.2483,0.2472,0.2483,0.2584,0.2744,0.2872,0.299,0.3161,0.3486,0.3849,0.4074,0.4202,0.4314,0.4458,0.4581,0.4437,0.4132,0.4111,0.456,0.5174,0.5766,0.6514,0.7485,0.8398,0.8911,0.9092,0.9173,0.9354,0.9781,1.0347,1.0785,1.1036,1.1191,1.1265,1.1196,1.0934,0.0352,0.0609,0.0892,0.1196,0.1452,0.1618,0.1762,0.1954,0.221,0.2477,0.2632,0.2654,0.2621,0.2627,0.2702,0.2814,0.2915,0.3011,0.3166,0.3476,0.3919,0.4303,0.4501,0.457,0.457,0.456,0.4426,0.4095,0.3898,0.409,0.4538,0.5104,0.5782,0.6551,0.748,0.8329,0.8831,0.9076,0.9285,0.9674,1.0155,1.0529,1.079,1.1009,1.1143,1.1127,1.094,0.0358,0.0577,0.0817,0.1062,0.1297,0.1511,0.1746,0.2029,0.2328,0.2573,0.2707,0.275,0.2771,0.2808,0.2872,0.2942,0.2995,0.3065,0.3187,0.338,0.3652,0.3956,0.417,0.4255,0.4218,0.4122,0.4148,0.4132,0.4042,0.4058,0.4164,0.4501,0.5163,0.59,0.6711,0.7662,0.8436,0.8954,0.9317,0.9696,1.0075,1.0315,1.0475,1.0673,1.0828,1.0908,1.0876,0.0464,0.063,0.0822,0.1057,0.1308,0.158,0.1863,0.2157,0.2429,0.2632,0.2766,0.2851,0.2926,0.2995,0.3059,0.3086,0.3086,0.3118,0.3209,0.3337,0.346,0.3577,0.3679,0.3759,0.3775,0.3748,0.3967,0.4287,0.441,0.4458,0.4351,0.4079,0.4111,0.4746,0.559,0.6519,0.7635,0.8585,0.9237,0.9738,1.0118,1.0278,1.0299,1.0406,1.0609,1.0812,1.0924,0.0582,0.0726,0.0918,0.1137,0.1393,0.1676,0.1975,0.2258,0.2499,0.267,0.2792,0.2894,0.3001,0.3118,0.3193,0.3203,0.3171,0.3171,0.3225,0.3294,0.3348,0.3396,0.346,0.3577,0.3705,0.3796,0.4079,0.4602,0.4912,0.4949,0.4917,0.4533,0.3914,0.3604,0.4031,0.5024,0.6135,0.7411,0.8633,0.9504,1.0102,1.0433,1.0449,1.0433,1.0593,1.0854,1.1073,0.0667,0.0822,0.1014,0.1239,0.149,0.1751,0.2018,0.2258,0.2456,0.2595,0.2696,0.2792,0.2931,0.3097,0.3203,0.3225,0.3198,0.3198,0.3214,0.323,0.323,0.323,0.3278,0.3428,0.3652,0.3865,0.4116,0.4693,0.5307,0.5547,0.5505,0.5318,0.4949,0.4367,0.3967,0.417,0.4997,0.6231,0.7576,0.8815,0.976,1.0385,1.0721,1.0806,1.0876,1.1057,1.1292,0.0742,0.0924,0.1137,0.1356,0.158,0.1805,0.2018,0.221,0.236,0.2461,0.2541,0.2643,0.2792,0.2942,0.3038,0.3081,0.3097,0.3123,0.3139,0.3134,0.3113,0.3102,0.3139,0.3284,0.3524,0.3785,0.402,0.4421,0.5093,0.5691,0.5964,0.6001,0.5841,0.5451,0.4933,0.456,0.4624,0.5467,0.6818,0.8121,0.9274,1.0139,1.0716,1.1143,1.1367,1.1463,1.1639,0.0726,0.0929,0.1159,0.1388,0.1602,0.1789,0.1965,0.212,0.2248,0.2349,0.244,0.2536,0.2643,0.2728,0.2787,0.284,0.291,0.2974,0.2995,0.2985,0.2969,0.2969,0.3027,0.3171,0.338,0.3609,0.3828,0.4074,0.4458,0.4971,0.5457,0.5809,0.5974,0.5964,0.5691,0.5126,0.4629,0.4698,0.559,0.6994,0.8356,0.9466,1.0374,1.1185,1.1762,1.1981,1.212,0.0747,0.0945,0.1159,0.1372,0.1559,0.1725,0.1869,0.2002,0.213,0.2248,0.2355,0.2445,0.2515,0.2557,0.26,0.2654,0.2712,0.276,0.2782,0.2787,0.2792,0.2824,0.2904,0.3049,0.3235,0.3428,0.3615,0.3785,0.3956,0.4186,0.4512,0.4864,0.5179,0.5441,0.5611,0.5489,0.4933,0.4431,0.457,0.5451,0.6759,0.8099,0.9359,1.0614,1.1671,1.2237,1.2504,0.0892,0.103,0.1191,0.1367,0.1522,0.1644,0.1741,0.1858,0.1991,0.213,0.228,0.2435,0.2547,0.2584,0.2568,0.2536,0.2531,0.2536,0.2552,0.2573,0.26,0.2654,0.275,0.2883,0.3038,0.3203,0.3374,0.3534,0.3673,0.3796,0.3914,0.4058,0.4239,0.4474,0.4773,0.5115,0.5238,0.4864,0.4469,0.4597,0.5275,0.6402,0.7752,0.9317,1.0876,1.1944,1.2499,0.0982,0.1014,0.1116,0.1287,0.1452,0.1559,0.166,0.1826,0.2029,0.221,0.2435,0.2696,0.2888,0.2974,0.2915,0.2702,0.2488,0.2381,0.2355,0.2371,0.2413,0.2477,0.2568,0.2664,0.2782,0.292,0.3081,0.3241,0.339,0.3524,0.3641,0.3727,0.3791,0.3882,0.4058,0.4373,0.4901,0.5227,0.4944,0.4666,0.4789,0.5275,0.6231,0.7581,0.9253,1.0828,1.1842,0.095,0.0924,0.095,0.11,0.1335,0.1484,0.158,0.1783,0.2114,0.2387,0.2579,0.2691,0.2734,0.2771,0.2664,0.2461,0.2253,0.2146,0.2146,0.2168,0.2205,0.2269,0.2339,0.2403,0.2467,0.2563,0.2691,0.2846,0.3011,0.3182,0.3348,0.3492,0.3615,0.3737,0.3844,0.3967,0.4277,0.4901,0.527,0.5072,0.4891,0.5024,0.5446,0.6204,0.7384,0.8911,1.0283,0.0561,0.079,0.079,0.0785,0.1046,0.1308,0.1506,0.1719,0.1895,0.2056,0.2077,0.1719,0.1954,0.1933,0.1532,0.1474,0.1559,0.1757,0.1901,0.1949,0.1986,0.2045,0.2066,0.2066,0.2088,0.2141,0.2226,0.2355,0.2536,0.2766,0.3006,0.323,0.3422,0.3593,0.3737,0.3812,0.3865,0.4239,0.4901,0.528,0.5254,0.52,0.5264,0.551,0.6006,0.6877,0.8057,0,0,0.0139,0.0507,0.0507,0.0491,0.1623,0.2552,0.1564,0.1255,0.1164,0.1132,0,-0.0224,-0.0593,-0.04,0.0459,0.1319,0.1703,0.1773,0.1789,0.1927,0.1879,0.1698,0.1687,0.1751,0.1831,0.1938,0.2077,0.228,0.2563,0.284,0.3086,0.3284,0.3428,0.3502,0.3524,0.3647,0.4106,0.4757,0.5264,0.5579,0.575,0.5825,0.5852,0.6001,0.6482,0.0913,0.0902,0.0785,0.087,0.1009,0,0,0.0641,0.055,0.0198,0.0769,0.1345,0.141,0.1105,0,0,0,0,0,0,0,0,0.04,0.1025,0.1345,0.1447,0.1511,0.1746,0.1805,0.1826,0.2077,0.236,0.2627,0.2803,0.2883,0.2915,0.292,0.3006,0.3294,0.3812,0.4496,0.5174,0.574,0.6156,0.6439,0.6498,0.6476,0.1361,0.103,0.078,0.0934,0.1313,0.149,0.1644,0.1361,0.0924,0,0,0,0.0464,0.0913,0.0849,0.0726,0.0593,0.0459,0.0315,0.0182,0.0123,0,0,0,0,0,0,0,0.0304,0.103,0.1602,0.1927,0.2349,0.2424,0.2242,0.2178,0.2173,0.2371,0.2718,0.3097,0.3599,0.4164,0.4704,0.519,0.5729,0.6332,0.6775,0.1313,0.0998,0.0603,0.071,0.1388,0.1773,0.1217,0.0587,0.0774,0.1164,0.1393,0.1532,0.1495,0.1041,0.0272,0.0107,0.0294,0.0331,0.0187,-0.0043,-0.0182,0,0,0,0,0,0,0,0,0,0,0,0,0.0561,0.142,0.1591,0.149,0.1735,0.2258,0.2408,0.2616,0.2974,0.3326,0.3716,0.4255,0.4981,0.5793,0,0.0187,0.0427,0.0641,0.1062,0.1319,0,0,0,0,0,0.0614,0.1447,0.1361,0.0208,-0.063,-0.0379,-0.0064,-0.0027,-0.0037,0,0,0,0,0,0,0,0,0,0,0,0,0,0,0,0,0.0577,0.0641,0,0,0.1586,0.2189,0.2557,0.2862,0.3203,0.3828,0.4346,0,0,0,0.0203,0.047,0.0539,0,0,0,0,0,0.0625,0.1244,0.1383,0.0945,-0.024,-0.1062,-0.0758,-0.0331,0,0,0,0,0,0,0,0,0,0,0,0,0,0,0,0,0,0,-0.055,-0.0854,0,0,0,0,0,0,0,0.0699,0,0,0,0,0,0,0,0,0,0,0,0.0534,0.103,0.1052,0.1078,0.0609,-0.0609,-0.1393,0,0,0,0,0,0,0,0,0,0,0,0,0,0,0,0,0,0,0,0,-0.0128,0.0101,-0.0059,-0.0571,0,0,0,0,0,0,0,0,0,0,0,0,0,0,0,0,0.0651,0.1159,0.11,0.1073,0.0625,0.0267,0,0,0,0,0,0,0,0,0,0,0,0,0,0,0,0,0,0,0,0,0,0,0.0155,0.0064,0.0096,-0.0278,-0.0555,-0.0182,0,0,0,0,0,0,0,0,0,0,0,0,0,0,0.1009,0.102,0.1068,0.0545,0.0133,0,0,0,0,0,0,0,0,0,0,0,0,0,0,0,0,0,0,0,0,0,0,0,0,0,0,-0.0166,-0.0336,0,0,0,0,0,0,0,0,0,0,0,0,0,0,0.0331,0.0961,0.1191,0.0571,0.0021,0,0,0,0,0,0,0,0,0,0,0,0,0,0,0,0,0,0,0,0,0,0,0,0,0,0,0,0,0,0,0,0,0,0,0,0,0,0,0,0,0,0,0.0438,0.0972,0.1068,0.0475,-0.0128,0,0,0,0,0,0,0,0,0,0,0,0,0,0,0,0,0,0,0,0,0,0,0,0,0,0,0,0,0,0,0,0,0,0,0,0,0,0,0,0,0,0,0.0582,0.103,0.0833,0.0326,-0.0112,0,0,0,0,0,0,0,0,0,0,0,0,0,0,0,0,0,0,0,0,0,0,0,0,0,0,0,0,0,0,0,0,0,0,0,0,0,0,0,0,0,0,0,0.0182,0.0432,0.0208,-0.008,0,0,0,0,0,0,0,0,0,0,0,0,0,0,0,0,0,0,0,0,0,0,0,0,0,0,0,0,0,0,0,0,0,0,0,0,0,0,0,0,0,0,0,0.0203,-0.0011,-0.0256,-0.0091,0,0,0,0,0,0,0,0,0,0,0,0,0,0,0,0,0,0,0,0,0,0,0,0,0,0,0,0,0,0,0,0,0,0,0,0,0,0,0,0,0,0,0,0,-0.0246,-0.0491,0,0,0,0,0,0,0,0,0,0,0,0,0,0,0,0,0,0,0,0,0,0,0,0,0,0,0,0,0,0,0,0,0,0,0,0,0,0,0,0,0,0,0,0,0,0,0,0,0,0,0,0,0,0,0,0,0,0,0,0,0,0,0,0,0,0,0,0,0,0,0,0,0,0,0,0,0,0,0,0,0,0,0,0,0,0,0,0,0,0,0,0,0,0,0,0,0,0,0,0,0,0,0,0,0,0,0,0,0,0,0,0,0,0,0,0,0,0,0,0,0,0,0,0,0,0,0,0,0,0,0,0,0,0,0,0,0,0,0,0,0,0,0,0,0,0,0,0,0,0,0,0,0,0,0,0,0,0,0,0,0,0,0,0,0,0,0,0,0,0,0,0,0,0,0,0,0,0,0,0,0,0,0,0,0,0,0,0,0,0,0,0,0,0,0,0,0,0,0,0,0,0,0,0,0,0,0,0,0,0,0,0,0,0,0,0,0,0,0,0,0,0,0,0,0,0,0,0,0,0,0,0,0,0,0,0,0,0,0,0,0,0,0,0,0,0,0,0,0,0,0,0,0,0,0,0,0,0,0,0,0,0,0,0,0,0,0,0,0,0,0,0,0,0,0,0,0,0,0,0,0,0,0,0,0,0,0,0,0,0,0,0,0,0,0,0,0,0,0,0,0,0,0,0,0,0,0,0,0,0,0,0,0]}],[{"header":{"parameterUnit":"kt","parameterCategory":2,"dx":1,"dy":1,"la1":29.764190673828125,"la2":30.86408042907715,"lo1":-88.46762084960938,"lo2":-86.9344482421875,"nx":47,"ny":34,"refTime":"2022-09-28T00:00:00:Z","depth":"8","parameterNumber":3,"parameterNumberName":"V-component_of_CURRENTS"},"data":[0.1228,0.1436,0.1564,0.149,0.1324,0.1276,0.1292,0.1244,0.1068,0.0763,0.039,0.0139,0.0085,0.0117,0.0112,0.008,0.0064,0.0166,0.0368,0.0561,0.063,0.0635,0.0641,0.0577,0.0443,0.0673,0.1217,0.1778,0.213,0.2152,0.2264,0.2419,0.2739,0.3203,0.3524,0.3684,0.3572,0.3198,0.2707,0.2093,0.1522,0.1367,0.1847,0.2616,0.3241,0.3508,0.3769,0.118,0.1244,0.1249,0.1223,0.1239,0.1249,0.1196,0.1084,0.0897,0.0635,0.0358,0.0203,0.0166,0.0166,0.0155,0.0149,0.0144,0.0214,0.0406,0.0609,0.0662,0.0571,0.0486,0.0486,0.0539,0.0774,0.11,0.15,0.1837,0.1698,0.142,0.1639,0.2088,0.284,0.3577,0.4148,0.4357,0.417,0.3711,0.3027,0.2312,0.2061,0.252,0.3278,0.3801,0.3935,0.3988,0.1137,0.1217,0.1207,0.1164,0.1116,0.1057,0.0972,0.0854,0.0689,0.0486,0.0326,0.0246,0.0214,0.0166,0.0117,0.0101,0.0112,0.0182,0.0326,0.0523,0.0689,0.0731,0.0747,0.0876,0.1089,0.1356,0.1564,0.15,0.1618,0.1484,0.0603,0.0443,0.1025,0.1943,0.3145,0.4159,0.4821,0.4981,0.4688,0.4026,0.3193,0.2739,0.3049,0.3721,0.4116,0.4116,0.4026,0.1073,0.1185,0.1212,0.1175,0.1095,0.0988,0.0876,0.0742,0.0587,0.0427,0.0315,0.0256,0.0219,0.0166,0.0085,0.0059,0.0069,0.0128,0.0235,0.0395,0.0593,0.0796,0.1025,0.1292,0.1522,0.1714,0.1863,0.1532,0.1388,0.1196,0.0384,-0.047,-0.0342,0.0288,0.1484,0.2953,0.4335,0.5184,0.5408,0.5013,0.4175,0.3444,0.3401,0.3892,0.425,0.4255,0.4095,0.094,0.1073,0.1143,0.1148,0.11,0.1014,0.0886,0.0731,0.0561,0.0384,0.0262,0.0203,0.0176,0.0139,0.0075,0.0048,0.0053,0.0101,0.0176,0.0294,0.0475,0.0721,0.1041,0.1383,0.1634,0.1805,0.1933,0.1607,0.1217,0.0929,0.047,-0.0278,-0.0662,-0.0673,-0.0075,0.0945,0.2387,0.3951,0.5067,0.5408,0.5035,0.4287,0.3839,0.3988,0.4319,0.4437,0.4293,0.0763,0.0908,0.0988,0.102,0.0998,0.0929,0.0806,0.0646,0.047,0.0288,0.0166,0.0112,0.0112,0.0107,0.0069,0.0064,0.0069,0.0096,0.0149,0.024,0.039,0.063,0.0961,0.1329,0.1623,0.1794,0.1901,0.1767,0.1244,0.0806,0.0411,0.0085,-0.023,-0.0406,-0.0149,0.0246,0.0918,0.204,0.3358,0.4437,0.4933,0.4848,0.4463,0.4271,0.4389,0.4517,0.4426,0.0534,0.0657,0.0742,0.078,0.0785,0.0726,0.0614,0.0481,0.0331,0.0192,0.0112,0.0101,0.0117,0.0112,0.008,0.0085,0.0085,0.0101,0.0139,0.023,0.0363,0.0577,0.0876,0.1228,0.1538,0.1735,0.1847,0.1858,0.149,0.0993,0.055,0.0176,-0.0128,-0.0214,-0.0011,0.039,0.0886,0.149,0.2157,0.3001,0.386,0.4474,0.473,0.465,0.4544,0.4496,0.4383,0.0246,0.0336,0.0406,0.047,0.0513,0.0507,0.0438,0.0342,0.0251,0.0176,0.016,0.0176,0.0182,0.0149,0.0112,0.0096,0.0085,0.0096,0.0144,0.0235,0.0368,0.0539,0.0785,0.1078,0.1377,0.1618,0.1773,0.1847,0.1746,0.1447,0.1036,0.0587,0.0176,-0.0091,-0.0166,0.0096,0.0657,0.1506,0.2136,0.2643,0.3198,0.3833,0.4447,0.4762,0.4698,0.4522,0.4319,0.0096,0.016,0.0208,0.0272,0.0358,0.0406,0.0384,0.032,0.0267,0.024,0.0246,0.0246,0.023,0.0182,0.0139,0.0107,0.0091,0.0101,0.016,0.0262,0.0374,0.0502,0.0673,0.0902,0.1169,0.1431,0.1655,0.1799,0.1821,0.1698,0.1442,0.1111,0.0753,0.0416,0.0085,-0.0059,0.023,0.0993,0.1927,0.2654,0.3219,0.3801,0.4346,0.4688,0.4693,0.4517,0.4277,0.0171,0.0203,0.0203,0.0246,0.0336,0.0411,0.039,0.0326,0.0288,0.0283,0.0272,0.0246,0.0235,0.0214,0.0198,0.0166,0.0128,0.0123,0.0182,0.0278,0.0379,0.047,0.0566,0.0721,0.0945,0.1212,0.1479,0.1682,0.1773,0.1714,0.1538,0.1308,0.1073,0.0844,0.0603,0.0358,0.0272,0.0635,0.1372,0.2226,0.2915,0.3673,0.4367,0.4757,0.4634,0.4346,0.4084,0.0347,0.0299,0.0208,0.0203,0.0288,0.0406,0.0342,0.023,0.0214,0.024,0.0203,0.024,0.0315,0.0352,0.047,0.047,0.0326,0.0198,0.0176,0.0262,0.0374,0.0454,0.0502,0.0577,0.0737,0.0977,0.1244,0.1484,0.1628,0.1623,0.1484,0.1281,0.1084,0.0929,0.0822,0.078,0.0737,0.0699,0.102,0.1634,0.2301,0.2899,0.3588,0.4234,0.4357,0.4047,0.3732,0.0593,0.0448,0.0208,0.0091,0.0187,0.0427,0.0278,0.0123,0.0123,0.0224,0.023,0.0486,0.102,0.1228,0.126,0.1105,0.0747,0.0379,0.0203,0.0235,0.0358,0.0448,0.0491,0.0502,0.0582,0.0747,0.0977,0.1217,0.1399,0.1452,0.1372,0.1207,0.103,0.0886,0.0796,0.0812,0.0972,0.1036,0.0966,0.1185,0.1634,0.1922,0.2328,0.2953,0.3342,0.3364,0.3134,0.0753,0.0577,0.0427,0.0005,0.0016,0.0801,0.0715,0.0267,0.0198,0.0422,0.063,0.0726,0.1458,0.1943,0.2232,0.1991,0.1287,0.0609,0.0246,0.023,0.0336,0.0459,0.0561,0.0513,0.0481,0.055,0.0715,0.0934,0.1143,0.1239,0.1217,0.1111,0.0977,0.0844,0.0726,0.0694,0.0854,0.1159,0.1175,0.1052,0.1052,0.1169,0.1361,0.1618,0.1922,0.2253,0.2258,0,0,0.039,0.0011,0.008,0.1447,0.1399,0.1506,0.1452,0.1196,0.0763,0.1105,0,0.1644,0.1917,0.2184,0.1511,0.0705,0.0272,0.024,0.0336,0.0486,0.0886,0.0641,0.0427,0.039,0.0518,0.071,0.0966,0.103,0.1036,0.0998,0.0924,0.0828,0.0678,0.0587,0.0683,0.0993,0.1303,0.1255,0.1036,0.0822,0.0667,0.0614,0.0833,0.1148,0.1345,0.0224,0.0374,0.0481,0.0481,0.0566,0,0,0.1442,0.1276,0.0998,0.0641,0.1666,0.0715,0.1799,0,0,0,0,0,0,0,0,0.1143,0.0731,0.0406,0.0326,0.0454,0.0641,0.1105,0.0844,0.0806,0.0828,0.0822,0.0865,0.0689,0.0513,0.0502,0.078,0.1249,0.1516,0.1431,0.1116,0.0747,0.0481,0.0384,0.0416,0.0603,0.0662,0.1009,0.1084,0.1143,0.1116,0.0464,0.0651,0.0993,0.1249,0,0,0,0.1468,0.2007,0.0619,0.0406,0.0278,0.023,0.0187,0.0208,0.0224,0,0,0,0,0,0,0,0.0945,0.0219,0.0667,0.0721,0.0769,0.118,0.0806,0.0518,0.0256,0.0363,0.1105,0.1559,0.1607,0.1442,0.1185,0.094,0.0726,0.0523,0.0347,0.0881,0.1292,0.1484,0.1303,0.0988,0.0646,0.1303,0.0929,0.1281,0.0,0.0,0.0865,0.1554,0.1997,0.1735,0.0998,0.063,0.055,0.0443,0.0518,0.0448,0,0,0,0,0,0,0,0,0,0,0,0,0.141,0.0892,0.0689,0.0075,-0.0502,0.1084,0.1639,0.1452,0.1249,0.1068,0.0972,0.095,0.0988,0.0924,0,0.1313,0.1538,0.1062,0.0705,-0.0011,0,0,0,0,0,0.1778,0.1436,0.1815,0.2285,0.1575,0.1036,0.0865,0.0614,0.0603,0,0,0,0,0,0,0,0,0,0,0,0,0,0,0,0,-0.0005,-0.0796,0,0,0.1164,0.0966,0.0822,0.0769,0.0806,0.1068,0.1543,0,0,0,0.0844,0.04,-0.0374,0,0,0,0,0,0.1794,0.118,0.118,0.1954,0.2221,0.1805,0.1388,0.0715,0,0,0,0,0,0,0,0,0,0,0,0,0,0,0,0,0,0,-0.0491,-0.0144,0,0,0,0,0,0,0,0.1762,0,0,0,0,0,0,0,0,0,0,0,0.1634,0.1046,0.0854,0.1271,0.2114,0.2157,0.1682,0,0,0,0,0,0,0,0,0,0,0,0,0,0,0,0,0,0,0,0,-0.0294,0.0294,0.0363,0.0432,0,0,0,0,0,0,0,0,0,0,0,0,0,0,0,0,0.1367,0.1175,0.0876,0.0892,0.1709,0.2226,0,0,0,0,0,0,0,0,0,0,0,0,0,0,0,0,0,0,0,0,0,0,0.0582,0.0721,0.086,0.0,-0.0144,0.0187,0,0,0,0,0,0,0,0,0,0,0,0,0,0,0.1538,0.1191,0.0822,0.1431,0.1751,0,0,0,0,0,0,0,0,0,0,0,0,0,0,0,0,0,0,0,0,0,0,0,0,0,0,-0.0288,0.0379,0,0,0,0,0,0,0,0,0,0,0,0,0,0,0.165,0.1436,0.0833,0.1191,0.0886,0,0,0,0,0,0,0,0,0,0,0,0,0,0,0,0,0,0,0,0,0,0,0,0,0,0,0,0,0,0,0,0,0,0,0,0,0,0,0,0,0,0,0.1377,0.1356,0.0945,0.1185,0.063,0,0,0,0,0,0,0,0,0,0,0,0,0,0,0,0,0,0,0,0,0,0,0,0,0,0,0,0,0,0,0,0,0,0,0,0,0,0,0,0,0,0,0.1185,0.1404,0.1143,0.1169,0.0534,0,0,0,0,0,0,0,0,0,0,0,0,0,0,0,0,0,0,0,0,0,0,0,0,0,0,0,0,0,0,0,0,0,0,0,0,0,0,0,0,0,0,0,0.1276,0.1308,0.1143,0.0459,0,0,0,0,0,0,0,0,0,0,0,0,0,0,0,0,0,0,0,0,0,0,0,0,0,0,0,0,0,0,0,0,0,0,0,0,0,0,0,0,0,0,0,0.1025,0.1068,0.1062,0.0454,0,0,0,0,0,0,0,0,0,0,0,0,0,0,0,0,0,0,0,0,0,0,0,0,0,0,0,0,0,0,0,0,0,0,0,0,0,0,0,0,0,0,0,0,0.0769,0.0998,0,0,0,0,0,0,0,0,0,0,0,0,0,0,0,0,0,0,0,0,0,0,0,0,0,0,0,0,0,0,0,0,0,0,0,0,0,0,0,0,0,0,0,0,0,0,0,0,0,0,0,0,0,0,0,0,0,0,0,0,0,0,0,0,0,0,0,0,0,0,0,0,0,0,0,0,0,0,0,0,0,0,0,0,0,0,0,0,0,0,0,0,0,0,0,0,0,0,0,0,0,0,0,0,0,0,0,0,0,0,0,0,0,0,0,0,0,0,0,0,0,0,0,0,0,0,0,0,0,0,0,0,0,0,0,0,0,0,0,0,0,0,0,0,0,0,0,0,0,0,0,0,0,0,0,0,0,0,0,0,0,0,0,0,0,0,0,0,0,0,0,0,0,0,0,0,0,0,0,0,0,0,0,0,0,0,0,0,0,0,0,0,0,0,0,0,0,0,0,0,0,0,0,0,0,0,0,0,0,0,0,0,0,0,0,0,0,0,0,0,0,0,0,0,0,0,0,0,0,0,0,0,0,0,0,0,0,0,0,0,0,0,0,0,0,0,0,0,0,0,0,0,0,0,0,0,0,0,0,0,0,0,0,0,0,0,0,0,0,0,0,0,0,0,0,0,0,0,0,0,0,0,0,0,0,0,0,0,0,0,0,0,0,0,0,0,0,0,0,0,0,0,0,0,0,0,0,0,0,0,0,0,0]}]],[[{"header":{"parameterUnit":"kt","parameterCategory":2,"dx":1,"dy":1,"la1":29.764190673828125,"la2":30.86408042907715,"lo1":-88.46762084960938,"lo2":-86.9344482421875,"nx":47,"ny":34,"refTime":"2022-09-28T00:00:00:Z","depth":"10","parameterNumber":2,"parameterNumberName":"U-component_of_CURRENTS"},"data":[0.0411,0.0731,0.1169,0.1618,0.1917,0.2002,0.1959,0.197,0.2077,0.2242,0.2403,0.2472,0.2461,0.2472,0.2573,0.2718,0.2846,0.2963,0.3145,0.3476,0.3844,0.4074,0.4197,0.4309,0.4453,0.4565,0.4421,0.4132,0.4111,0.4549,0.5147,0.5734,0.6492,0.748,0.8398,0.8906,0.9076,0.9146,0.9311,0.9722,1.0278,1.0732,1.1004,1.1169,1.1239,1.1159,1.0886,0.0336,0.0603,0.0886,0.1191,0.1442,0.1612,0.1767,0.1959,0.2216,0.2472,0.2616,0.2632,0.26,0.2611,0.2686,0.2792,0.2883,0.2974,0.3123,0.3444,0.3898,0.4287,0.4485,0.4554,0.4554,0.4538,0.441,0.4095,0.3898,0.4063,0.4485,0.5045,0.5745,0.6535,0.7475,0.8324,0.882,0.9055,0.9258,0.9616,1.008,1.047,1.0758,1.0993,1.1127,1.11,1.0902,0.0347,0.0561,0.0801,0.1046,0.1281,0.1506,0.1751,0.2029,0.2328,0.2557,0.268,0.2723,0.2739,0.2782,0.2846,0.2915,0.2963,0.3027,0.3139,0.3326,0.3604,0.3919,0.4143,0.4223,0.418,0.4079,0.4111,0.4116,0.4036,0.402,0.41,0.441,0.5077,0.5852,0.669,0.7656,0.8436,0.8948,0.9301,0.9658,1.0005,1.0256,1.0443,1.0657,1.0812,1.0892,1.0844,0.0454,0.0619,0.0812,0.1036,0.1292,0.1564,0.1853,0.2146,0.2408,0.26,0.2728,0.2814,0.2888,0.2963,0.3027,0.3054,0.3054,0.3075,0.3161,0.3278,0.3401,0.3524,0.3625,0.3705,0.3721,0.3695,0.3919,0.4261,0.4394,0.4431,0.4293,0.4004,0.4042,0.4693,0.5558,0.6508,0.763,0.858,0.9231,0.9722,1.0075,1.0219,1.0251,1.0379,1.0593,1.0796,1.0897,0.0566,0.0715,0.0897,0.1121,0.1367,0.165,0.1949,0.2226,0.2456,0.2627,0.275,0.2856,0.2969,0.3081,0.3161,0.3161,0.3129,0.3118,0.3161,0.323,0.3284,0.3337,0.3406,0.3524,0.3647,0.3737,0.402,0.4554,0.4885,0.4928,0.4885,0.449,0.3882,0.3593,0.4036,0.5024,0.6129,0.7405,0.8628,0.9498,1.008,1.039,1.0395,1.0395,1.0571,1.0838,1.1047,0.0651,0.0806,0.0998,0.1217,0.1458,0.1719,0.1981,0.2216,0.2408,0.2552,0.2654,0.276,0.2904,0.3059,0.3155,0.3171,0.3139,0.3123,0.3134,0.3155,0.3166,0.3177,0.323,0.338,0.3593,0.3796,0.4047,0.4624,0.5248,0.551,0.5483,0.5296,0.4928,0.4351,0.3972,0.4197,0.5019,0.6225,0.756,0.8804,0.9749,1.0363,1.0689,1.0769,1.0844,1.1025,1.126,0.0715,0.0897,0.1105,0.1324,0.1543,0.1767,0.1981,0.2168,0.2317,0.2429,0.2515,0.2616,0.275,0.2888,0.2974,0.3001,0.3011,0.3027,0.3043,0.3043,0.3043,0.3043,0.3097,0.3235,0.347,0.3711,0.394,0.4335,0.4997,0.559,0.5878,0.5958,0.5825,0.5441,0.4928,0.4565,0.4634,0.5446,0.677,0.8078,0.9253,1.0123,1.0694,1.1127,1.134,1.1431,1.1607,0.0726,0.0918,0.1137,0.1356,0.1564,0.1751,0.1927,0.2088,0.2216,0.2322,0.2408,0.2493,0.2579,0.2648,0.2696,0.2739,0.2792,0.2846,0.2878,0.2883,0.2888,0.291,0.2979,0.3123,0.3326,0.3545,0.3748,0.3983,0.4351,0.4832,0.5302,0.567,0.5862,0.59,0.5686,0.5136,0.4634,0.4688,0.5553,0.6941,0.8313,0.945,1.0363,1.1169,1.1746,1.1954,1.2093,0.0769,0.095,0.1148,0.1345,0.1527,0.1687,0.1837,0.197,0.2098,0.221,0.2301,0.2376,0.2435,0.2472,0.2504,0.2541,0.2584,0.2621,0.2654,0.2675,0.2696,0.2744,0.284,0.299,0.3171,0.3364,0.354,0.3705,0.3871,0.4079,0.4362,0.4682,0.4997,0.528,0.5499,0.5446,0.4939,0.4431,0.4538,0.5392,0.6706,0.8067,0.9349,1.0603,1.1655,1.2221,1.2483,0.0886,0.1009,0.1153,0.1308,0.1458,0.158,0.1692,0.1821,0.1949,0.2072,0.2194,0.2306,0.2376,0.2397,0.2392,0.2397,0.2408,0.2413,0.2424,0.2451,0.2493,0.2563,0.267,0.2808,0.2969,0.3134,0.33,0.346,0.3599,0.3716,0.3828,0.3946,0.41,0.4319,0.4624,0.4992,0.5168,0.4843,0.4458,0.456,0.5222,0.6359,0.7731,0.9301,1.0854,1.1928,1.2488,0.0913,0.095,0.1052,0.1196,0.1351,0.1468,0.1607,0.1799,0.197,0.2082,0.2248,0.2445,0.2557,0.2595,0.2536,0.2371,0.2258,0.2232,0.2237,0.2258,0.2301,0.2376,0.2467,0.2573,0.2691,0.2835,0.2995,0.3161,0.331,0.3449,0.3561,0.3647,0.3711,0.3791,0.3946,0.425,0.4789,0.5147,0.4917,0.4656,0.4762,0.5248,0.6209,0.7565,0.9242,1.0817,1.1837,0.0822,0.0833,0.087,0.0998,0.1207,0.1383,0.1676,0.205,0.2253,0.2274,0.2328,0.2344,0.2258,0.221,0.2072,0.1895,0.1842,0.1933,0.2013,0.205,0.2093,0.2157,0.2226,0.229,0.2365,0.2467,0.26,0.276,0.2931,0.3107,0.3273,0.3412,0.3529,0.3647,0.3753,0.3871,0.418,0.4805,0.5211,0.5051,0.4859,0.4987,0.5425,0.6188,0.7373,0.8906,1.0288,0.0518,0.0742,0.0747,0.0731,0.0929,0.11,0.1954,0.2568,0.2226,0.1847,0.1692,0.1404,0.157,0.1442,0.0838,0.0726,0.1095,0.1506,0.1735,0.1799,0.1847,0.1906,0.1927,0.1927,0.1959,0.2034,0.2136,0.2274,0.2456,0.2686,0.2926,0.3139,0.3321,0.3486,0.3625,0.37,0.3753,0.4127,0.4816,0.5232,0.5254,0.5206,0.5243,0.5462,0.5969,0.6877,0.8078,0,0,0.0133,0.0502,0.0486,0.0224,0.166,0.1506,0.0913,0.0918,0.1052,0.1052,0,-0.0224,-0.0587,-0.0486,0.031,0.1164,0.1532,0.1602,0.1607,0.1714,0.1666,0.1527,0.1522,0.1591,0.1725,0.1847,0.1991,0.2194,0.2472,0.2739,0.2974,0.3166,0.33,0.3374,0.3396,0.3497,0.3967,0.4656,0.5211,0.5574,0.5761,0.5841,0.5873,0.6022,0.6508,0.0854,0.0838,0.0731,0.0833,0.0972,0,0,0.0224,0.0144,0.0192,0.0747,0.1276,0.1313,0.1025,0,0,0,0,0,0,0,0,0.0379,0.0972,0.1265,0.1345,0.1377,0.1602,0.1623,0.1692,0.1954,0.2232,0.2488,0.2654,0.2734,0.2776,0.2787,0.284,0.3086,0.3609,0.4287,0.496,0.5542,0.6033,0.6412,0.654,0.6535,0.1201,0.0924,0.071,0.086,0.1153,0.1191,0.1014,0.0758,0.0614,0,0,0,0.0395,0.0812,0.0796,0.0699,0.0571,0.0443,0.0304,0.0176,0.0117,0,0,0,0,0,0,0,0.0294,0.0977,0.1463,0.1735,0.2109,0.2125,0.197,0.1965,0.2034,0.221,0.2472,0.2792,0.3251,0.3796,0.433,0.4864,0.5478,0.6188,0.6759,0.1196,0.0892,0.0545,0.0651,0.1078,0.1265,0.0956,0.055,0.0737,0.1111,0.1313,0.142,0.1255,0.0849,0.0304,0.0139,0.0278,0.032,0.0176,-0.0043,-0.0182,0,0,0,0,0,0,0,0,0,0,0,0,0.0529,0.1324,0.1474,0.1393,0.1554,0.205,0.2157,0.2355,0.2691,0.3022,0.339,0.3935,0.4666,0.5435,0,0.0176,0.04,0.0593,0.0892,0.1046,0,0,0,0,0,0.0486,0.1025,0.0817,0.024,-0.0139,-0.0149,-0.0064,-0.0027,-0.0043,0,0,0,0,0,0,0,0,0,0,0,0,0,0,0,0,0.0561,0.063,0,0,0.1404,0.2007,0.2381,0.2702,0.3065,0.3673,0.4063,0,0,0,0.0203,0.047,0.0534,0,0,0,0,0,0.0422,0.0908,0.0977,0.0593,0.0096,-0.0384,-0.0507,-0.032,0,0,0,0,0,0,0,0,0,0,0,0,0,0,0,0,0,0,-0.0518,-0.0801,0,0,0,0,0,0,0,0.0683,0,0,0,0,0,0,0,0,0,0,0,0.04,0.087,0.0988,0.0908,0.0422,-0.0507,-0.1084,0,0,0,0,0,0,0,0,0,0,0,0,0,0,0,0,0,0,0,0,-0.0123,0.0021,-0.0128,-0.0545,0,0,0,0,0,0,0,0,0,0,0,0,0,0,0,0,0.04,0.0881,0.1041,0.102,0.0464,0.0011,0,0,0,0,0,0,0,0,0,0,0,0,0,0,0,0,0,0,0,0,0,0,0.0149,0.0064,0.0096,-0.0267,-0.055,-0.0203,0,0,0,0,0,0,0,0,0,0,0,0,0,0,0.0897,0.0918,0.0993,0.0443,-0.0005,0,0,0,0,0,0,0,0,0,0,0,0,0,0,0,0,0,0,0,0,0,0,0,0,0,0,-0.0166,-0.0331,0,0,0,0,0,0,0,0,0,0,0,0,0,0,0.0246,0.0747,0.1014,0.0523,0.0021,0,0,0,0,0,0,0,0,0,0,0,0,0,0,0,0,0,0,0,0,0,0,0,0,0,0,0,0,0,0,0,0,0,0,0,0,0,0,0,0,0,0,0.0278,0.0721,0.0934,0.0432,-0.0123,0,0,0,0,0,0,0,0,0,0,0,0,0,0,0,0,0,0,0,0,0,0,0,0,0,0,0,0,0,0,0,0,0,0,0,0,0,0,0,0,0,0,0.0507,0.0881,0.0731,0.0304,-0.0107,0,0,0,0,0,0,0,0,0,0,0,0,0,0,0,0,0,0,0,0,0,0,0,0,0,0,0,0,0,0,0,0,0,0,0,0,0,0,0,0,0,0,0,0.0166,0.039,0.0192,-0.0075,0,0,0,0,0,0,0,0,0,0,0,0,0,0,0,0,0,0,0,0,0,0,0,0,0,0,0,0,0,0,0,0,0,0,0,0,0,0,0,0,0,0,0,0.0192,-0.0005,-0.024,-0.0085,0,0,0,0,0,0,0,0,0,0,0,0,0,0,0,0,0,0,0,0,0,0,0,0,0,0,0,0,0,0,0,0,0,0,0,0,0,0,0,0,0,0,0,0,-0.024,-0.0481,0,0,0,0,0,0,0,0,0,0,0,0,0,0,0,0,0,0,0,0,0,0,0,0,0,0,0,0,0,0,0,0,0,0,0,0,0,0,0,0,0,0,0,0,0,0,0,0,0,0,0,0,0,0,0,0,0,0,0,0,0,0,0,0,0,0,0,0,0,0,0,0,0,0,0,0,0,0,0,0,0,0,0,0,0,0,0,0,0,0,0,0,0,0,0,0,0,0,0,0,0,0,0,0,0,0,0,0,0,0,0,0,0,0,0,0,0,0,0,0,0,0,0,0,0,0,0,0,0,0,0,0,0,0,0,0,0,0,0,0,0,0,0,0,0,0,0,0,0,0,0,0,0,0,0,0,0,0,0,0,0,0,0,0,0,0,0,0,0,0,0,0,0,0,0,0,0,0,0,0,0,0,0,0,0,0,0,0,0,0,0,0,0,0,0,0,0,0,0,0,0,0,0,0,0,0,0,0,0,0,0,0,0,0,0,0,0,0,0,0,0,0,0,0,0,0,0,0,0,0,0,0,0,0,0,0,0,0,0,0,0,0,0,0,0,0,0,0,0,0,0,0,0,0,0,0,0,0,0,0,0,0,0,0,0,0,0,0,0,0,0,0,0,0,0,0,0,0,0,0,0,0,0,0,0,0,0,0,0,0,0,0,0,0,0,0,0,0,0,0,0,0,0,0,0,0,0,0,0,0,0,0,0]}],[{"header":{"parameterUnit":"kt","parameterCategory":2,"dx":1,"dy":1,"la1":29.764190673828125,"la2":30.86408042907715,"lo1":-88.46762084960938,"lo2":-86.9344482421875,"nx":47,"ny":34,"refTime":"2022-09-28T00:00:00:Z","depth":"10","parameterNumber":3,"parameterNumberName":"V-component_of_CURRENTS"},"data":[0.1404,0.1602,0.1719,0.165,0.1495,0.1452,0.1468,0.1404,0.1207,0.0881,0.0497,0.023,0.016,0.0192,0.0198,0.0182,0.0187,0.0294,0.0507,0.0699,0.0774,0.079,0.0801,0.0742,0.0619,0.086,0.1383,0.1927,0.228,0.2296,0.2387,0.2515,0.2782,0.3219,0.3534,0.3705,0.3615,0.3284,0.2787,0.221,0.1671,0.1516,0.1959,0.2712,0.3353,0.3647,0.3908,0.1356,0.1436,0.1442,0.142,0.1431,0.1447,0.1388,0.126,0.1041,0.0758,0.0464,0.0294,0.024,0.023,0.0219,0.0214,0.0235,0.0331,0.0534,0.0742,0.0806,0.0731,0.0651,0.0651,0.0715,0.0961,0.1292,0.1655,0.197,0.1837,0.157,0.1751,0.2152,0.2867,0.3593,0.417,0.4394,0.4223,0.3764,0.3129,0.2483,0.2237,0.2654,0.3385,0.3924,0.4063,0.4116,0.1276,0.1383,0.1388,0.1361,0.1324,0.1265,0.1175,0.103,0.0833,0.0614,0.0438,0.0342,0.0288,0.024,0.0182,0.0166,0.0198,0.0283,0.0443,0.0646,0.0812,0.087,0.0897,0.1025,0.1233,0.149,0.1703,0.1644,0.1735,0.1607,0.0796,0.0651,0.1196,0.2056,0.3198,0.4202,0.4859,0.5019,0.473,0.4095,0.3364,0.2947,0.3214,0.3844,0.425,0.425,0.4143,0.1169,0.1297,0.1345,0.1335,0.1265,0.1169,0.1052,0.0897,0.0715,0.0539,0.0411,0.0347,0.031,0.0251,0.0176,0.0133,0.0155,0.0224,0.0342,0.0502,0.0694,0.0897,0.1137,0.1399,0.1628,0.181,0.1959,0.1671,0.1516,0.1324,0.0603,-0.0155,0.0027,0.0614,0.1698,0.3102,0.4426,0.5227,0.5441,0.5061,0.4293,0.3647,0.3599,0.4052,0.4399,0.4394,0.4213,0.102,0.1159,0.1233,0.1255,0.1212,0.1127,0.0998,0.0833,0.0646,0.047,0.0352,0.0304,0.0288,0.0256,0.0192,0.0149,0.0144,0.0198,0.0272,0.0384,0.0561,0.0801,0.1121,0.1463,0.1725,0.1885,0.2007,0.1762,0.1399,0.1095,0.0673,0.0016,-0.0278,-0.0182,0.0406,0.1345,0.2632,0.409,0.5126,0.5446,0.5104,0.4431,0.4031,0.4175,0.4485,0.4586,0.441,0.0854,0.0988,0.1062,0.1089,0.1062,0.0998,0.0876,0.0715,0.0539,0.0379,0.0272,0.0246,0.0262,0.0262,0.0219,0.0187,0.0176,0.0203,0.0246,0.0331,0.047,0.0694,0.102,0.1393,0.1698,0.1869,0.197,0.1895,0.1463,0.1057,0.0667,0.0363,0.0053,-0.0069,0.0304,0.0769,0.1388,0.2387,0.3567,0.4517,0.4981,0.4944,0.4613,0.4447,0.4576,0.4693,0.457,0.0667,0.078,0.0844,0.087,0.086,0.0801,0.0699,0.0577,0.0443,0.0331,0.0272,0.0278,0.0294,0.0288,0.0251,0.0224,0.0214,0.0219,0.0251,0.0315,0.0432,0.063,0.0918,0.1271,0.1591,0.1799,0.1911,0.1943,0.1676,0.1287,0.0902,0.055,0.0208,0.0101,0.0304,0.0769,0.134,0.1965,0.2504,0.3198,0.394,0.4544,0.4859,0.4789,0.4714,0.4688,0.4565,0.0481,0.0555,0.0609,0.0646,0.0667,0.0646,0.0587,0.0502,0.0432,0.0384,0.0368,0.0374,0.0352,0.031,0.0267,0.0235,0.0219,0.0224,0.0256,0.0331,0.0438,0.0593,0.0822,0.1111,0.141,0.1655,0.1821,0.1901,0.1842,0.1628,0.1329,0.0977,0.0598,0.0358,0.0246,0.0448,0.0998,0.1853,0.2493,0.2936,0.3364,0.3908,0.4517,0.4933,0.4869,0.4704,0.4517,0.0427,0.0475,0.0507,0.055,0.0598,0.0614,0.0582,0.0529,0.0491,0.047,0.047,0.0443,0.0384,0.0315,0.0256,0.0214,0.0198,0.0219,0.0283,0.0363,0.0454,0.0561,0.071,0.0929,0.1196,0.1458,0.1682,0.1826,0.1858,0.1767,0.157,0.1324,0.1052,0.0796,0.0507,0.0379,0.0619,0.1297,0.2178,0.2904,0.3449,0.3924,0.4389,0.4768,0.4896,0.4704,0.4453,0.0539,0.0545,0.0534,0.0555,0.0603,0.0635,0.0603,0.055,0.0513,0.0502,0.0481,0.0459,0.0448,0.04,0.0352,0.0278,0.0224,0.0224,0.0283,0.0374,0.0459,0.0529,0.0614,0.0753,0.0972,0.1239,0.1495,0.1703,0.1794,0.1741,0.1575,0.1377,0.1185,0.1004,0.0838,0.0689,0.0667,0.0993,0.1644,0.2424,0.3081,0.3775,0.4421,0.4827,0.4773,0.4586,0.4266,0.0683,0.0603,0.0513,0.0513,0.0571,0.0667,0.0625,0.0545,0.0539,0.0534,0.047,0.0571,0.0737,0.0849,0.087,0.0731,0.0475,0.0283,0.0251,0.0331,0.0438,0.0507,0.055,0.0614,0.0769,0.1004,0.1265,0.15,0.1644,0.1639,0.1506,0.1313,0.1127,0.0988,0.0902,0.0913,0.0977,0.1041,0.1367,0.1879,0.2429,0.299,0.3641,0.4303,0.4447,0.4245,0.3999,0.0822,0.0662,0.0448,0.0384,0.0529,0.0785,0.0737,0.0694,0.0737,0.0758,0.0657,0.0881,0.1319,0.1719,0.1911,0.1586,0.0966,0.0464,0.0256,0.0288,0.0406,0.0486,0.0523,0.0534,0.0609,0.0774,0.0998,0.1239,0.1426,0.1479,0.1393,0.1233,0.1062,0.0924,0.0838,0.086,0.1057,0.1276,0.1324,0.1522,0.1863,0.2104,0.2467,0.3027,0.3422,0.3529,0.3374,0.087,0.0694,0.0486,0.0214,0.0438,0.1356,0.1532,0.1233,0.1255,0.1223,0.0908,0.079,0.141,0.181,0.1991,0.1895,0.1345,0.0657,0.0283,0.0267,0.0374,0.0486,0.0571,0.0523,0.0497,0.0566,0.0737,0.0961,0.1169,0.1265,0.1249,0.1148,0.1014,0.0881,0.0769,0.0742,0.0913,0.1308,0.149,0.1431,0.1452,0.1538,0.1644,0.1815,0.213,0.2456,0.2461,0,0,0.04,0.0048,0.0133,0.158,0.1655,0.1447,0.1308,0.11,0.0753,0.1052,0,0.1559,0.1725,0.1692,0.1388,0.0705,0.0294,0.0262,0.0358,0.0491,0.0854,0.0619,0.0422,0.04,0.0534,0.0731,0.0993,0.1052,0.1068,0.1036,0.0961,0.0865,0.0726,0.0641,0.0742,0.1121,0.1564,0.1655,0.1527,0.1324,0.1121,0.1084,0.1292,0.1506,0.1644,0.023,0.0374,0.0486,0.0475,0.0539,0,0,0.1127,0.1041,0.0961,0.063,0.1554,0.0673,0.1655,0,0,0,0,0,0,0,0,0.1095,0.071,0.0406,0.0331,0.0459,0.0651,0.1062,0.0844,0.0817,0.0844,0.0849,0.0886,0.071,0.055,0.0555,0.0892,0.1463,0.1831,0.1842,0.1612,0.1324,0.1111,0.1009,0.1014,0.1095,0.0657,0.0966,0.1036,0.1089,0.1004,0.0374,0.0491,0.0908,0.1095,0,0,0,0.1324,0.1703,0.0587,0.0406,0.0283,0.0235,0.0198,0.0219,0.0235,0,0,0,0,0,0,0,0.0913,0.0219,0.0646,0.0705,0.0769,0.1116,0.0769,0.0523,0.0299,0.0448,0.1255,0.1741,0.1826,0.1735,0.1586,0.142,0.1303,0.118,0.1041,0.0854,0.1223,0.1393,0.1233,0.0849,0.0571,0.0977,0.0902,0.1207,0.0,0.0,0.0785,0.1313,0.1281,0.1143,0.0902,0.0635,0.0555,0.0454,0.0523,0.047,0,0,0,0,0,0,0,0,0,0,0,0,0.1319,0.0844,0.0667,0.0091,-0.0406,0.1148,0.1612,0.1463,0.1297,0.1159,0.1111,0.1169,0.1329,0.142,0,0.1249,0.1436,0.1025,0.0646,0.0032,0,0,0,0,0,0.1484,0.1185,0.1057,0.1217,0.1084,0.0897,0.0774,0.0614,0.0603,0,0,0,0,0,0,0,0,0,0,0,0,0,0,0,0,0.0011,-0.0737,0,0,0.1041,0.0918,0.0806,0.0769,0.0828,0.1105,0.1628,0,0,0,0.0833,0.0416,-0.032,0,0,0,0,0,0.1313,0.0966,0.0908,0.126,0.1335,0.1249,0.1089,0.071,0,0,0,0,0,0,0,0,0,0,0,0,0,0,0,0,0,0,-0.0464,-0.0128,0,0,0,0,0,0,0,0.1773,0,0,0,0,0,0,0,0,0,0,0,0.1153,0.0844,0.0812,0.1052,0.1399,0.1404,0.1276,0,0,0,0,0,0,0,0,0,0,0,0,0,0,0,0,0,0,0,0,-0.0251,0.0278,0.0347,0.0416,0,0,0,0,0,0,0,0,0,0,0,0,0,0,0,0,0.1105,0.094,0.0828,0.0844,0.1212,0.1223,0,0,0,0,0,0,0,0,0,0,0,0,0,0,0,0,0,0,0,0,0,0,0.0561,0.0694,0.0833,0.0,-0.0139,0.0192,0,0,0,0,0,0,0,0,0,0,0,0,0,0,0.1276,0.102,0.078,0.1105,0.1009,0,0,0,0,0,0,0,0,0,0,0,0,0,0,0,0,0,0,0,0,0,0,0,0,0,0,-0.0278,0.0384,0,0,0,0,0,0,0,0,0,0,0,0,0,0,0.1356,0.1116,0.0769,0.1105,0.0822,0,0,0,0,0,0,0,0,0,0,0,0,0,0,0,0,0,0,0,0,0,0,0,0,0,0,0,0,0,0,0,0,0,0,0,0,0,0,0,0,0,0,0.1169,0.1062,0.086,0.1127,0.0646,0,0,0,0,0,0,0,0,0,0,0,0,0,0,0,0,0,0,0,0,0,0,0,0,0,0,0,0,0,0,0,0,0,0,0,0,0,0,0,0,0,0,0.1078,0.1201,0.1041,0.1116,0.055,0,0,0,0,0,0,0,0,0,0,0,0,0,0,0,0,0,0,0,0,0,0,0,0,0,0,0,0,0,0,0,0,0,0,0,0,0,0,0,0,0,0,0,0.1175,0.1143,0.1084,0.0475,0,0,0,0,0,0,0,0,0,0,0,0,0,0,0,0,0,0,0,0,0,0,0,0,0,0,0,0,0,0,0,0,0,0,0,0,0,0,0,0,0,0,0,0.0993,0.094,0.1014,0.0464,0,0,0,0,0,0,0,0,0,0,0,0,0,0,0,0,0,0,0,0,0,0,0,0,0,0,0,0,0,0,0,0,0,0,0,0,0,0,0,0,0,0,0,0,0.0731,0.0956,0,0,0,0,0,0,0,0,0,0,0,0,0,0,0,0,0,0,0,0,0,0,0,0,0,0,0,0,0,0,0,0,0,0,0,0,0,0,0,0,0,0,0,0,0,0,0,0,0,0,0,0,0,0,0,0,0,0,0,0,0,0,0,0,0,0,0,0,0,0,0,0,0,0,0,0,0,0,0,0,0,0,0,0,0,0,0,0,0,0,0,0,0,0,0,0,0,0,0,0,0,0,0,0,0,0,0,0,0,0,0,0,0,0,0,0,0,0,0,0,0,0,0,0,0,0,0,0,0,0,0,0,0,0,0,0,0,0,0,0,0,0,0,0,0,0,0,0,0,0,0,0,0,0,0,0,0,0,0,0,0,0,0,0,0,0,0,0,0,0,0,0,0,0,0,0,0,0,0,0,0,0,0,0,0,0,0,0,0,0,0,0,0,0,0,0,0,0,0,0,0,0,0,0,0,0,0,0,0,0,0,0,0,0,0,0,0,0,0,0,0,0,0,0,0,0,0,0,0,0,0,0,0,0,0,0,0,0,0,0,0,0,0,0,0,0,0,0,0,0,0,0,0,0,0,0,0,0,0,0,0,0,0,0,0,0,0,0,0,0,0,0,0,0,0,0,0,0,0,0,0,0,0,0,0,0,0,0,0,0,0,0,0,0,0,0,0,0,0,0,0,0,0,0,0,0,0,0,0,0,0,0,0]}]],[[{"header":{"parameterUnit":"kt","parameterCategory":2,"dx":1,"dy":1,"la1":29.764190673828125,"la2":30.86408042907715,"lo1":-88.46762084960938,"lo2":-86.9344482421875,"nx":47,"ny":34,"refTime":"2022-09-28T00:00:00:Z","depth":"12","parameterNumber":2,"parameterNumberName":"U-component_of_CURRENTS"},"data":[0.0406,0.0742,0.118,0.1623,0.1917,0.2002,0.197,0.1986,0.2098,0.2253,0.2397,0.2456,0.2451,0.2461,0.2557,0.2696,0.2819,0.2936,0.3134,0.347,0.3844,0.4084,0.4207,0.4319,0.4458,0.456,0.4421,0.4138,0.4122,0.4544,0.5126,0.5707,0.6476,0.748,0.8398,0.89,0.9071,0.9124,0.9285,0.9674,1.0219,1.0683,1.0977,1.1159,1.1228,1.1127,1.0849,0.0331,0.0603,0.0897,0.1196,0.1447,0.1618,0.1783,0.1981,0.2232,0.2467,0.26,0.2611,0.2584,0.2595,0.267,0.2766,0.2851,0.2931,0.3081,0.3412,0.3876,0.4277,0.4479,0.4549,0.4538,0.4517,0.4394,0.4106,0.3908,0.4042,0.4426,0.4992,0.5707,0.6524,0.7475,0.8324,0.8815,0.9044,0.9237,0.9578,1.0021,1.0422,1.0737,1.0988,1.1116,1.1079,1.0876,0.0336,0.0555,0.0796,0.1041,0.1281,0.1511,0.1767,0.2045,0.2328,0.2541,0.2654,0.2691,0.2707,0.2755,0.2824,0.2888,0.2936,0.2985,0.3086,0.3268,0.355,0.3876,0.4106,0.4186,0.4132,0.4026,0.4074,0.4106,0.4036,0.3983,0.4031,0.4319,0.4997,0.5809,0.6679,0.7656,0.8436,0.8938,0.9285,0.9626,0.9963,1.0208,1.0422,1.0646,1.0812,1.0886,1.0822,0.0448,0.0614,0.0806,0.103,0.1287,0.1559,0.1847,0.2136,0.2381,0.2563,0.268,0.2771,0.2851,0.2931,0.2995,0.3022,0.3017,0.3033,0.3102,0.3214,0.3337,0.3454,0.3567,0.3647,0.3657,0.3631,0.3865,0.4234,0.4383,0.441,0.4234,0.3935,0.3978,0.464,0.5537,0.6508,0.7635,0.858,0.9226,0.9706,1.0043,1.0176,1.0219,1.0363,1.0593,1.0796,1.0876,0.0561,0.071,0.0886,0.11,0.1345,0.1623,0.1911,0.2184,0.2408,0.2579,0.2702,0.2808,0.2926,0.3043,0.3118,0.3123,0.3086,0.3065,0.3097,0.3155,0.3219,0.3273,0.3348,0.346,0.3577,0.3668,0.3951,0.4496,0.4864,0.4917,0.4859,0.4463,0.3865,0.3609,0.4074,0.5051,0.6145,0.7411,0.8628,0.9493,1.0059,1.0352,1.0363,1.0368,1.0561,1.0828,1.1031,0.0635,0.0796,0.0977,0.1191,0.1431,0.1682,0.1938,0.2173,0.2365,0.2509,0.2616,0.2728,0.2867,0.3011,0.3102,0.3107,0.3075,0.3049,0.3054,0.3075,0.3097,0.3118,0.3182,0.3326,0.3529,0.3721,0.3962,0.4533,0.5174,0.5473,0.5478,0.5296,0.4928,0.4351,0.4015,0.4266,0.5072,0.6241,0.7555,0.8804,0.9744,1.0336,1.0662,1.0748,1.0822,1.1009,1.1239,0.0699,0.087,0.1073,0.1287,0.1506,0.1725,0.1938,0.2125,0.2274,0.2387,0.2477,0.2579,0.2702,0.2824,0.2899,0.292,0.2915,0.292,0.2936,0.2953,0.2969,0.299,0.3049,0.3193,0.3412,0.3641,0.3855,0.4229,0.4864,0.5446,0.5766,0.5916,0.582,0.5446,0.4949,0.4608,0.4682,0.5462,0.6749,0.8051,0.9242,1.0118,1.0694,1.1132,1.1335,1.141,1.1591,0.0731,0.0913,0.1116,0.1329,0.1527,0.1714,0.1885,0.2045,0.2178,0.2285,0.236,0.2429,0.2504,0.2568,0.2605,0.2638,0.2675,0.2712,0.275,0.2782,0.2808,0.2846,0.2926,0.307,0.3268,0.3476,0.3673,0.3887,0.4213,0.464,0.5088,0.5473,0.5707,0.5825,0.5691,0.5179,0.4666,0.4698,0.5537,0.6903,0.8281,0.9434,1.0363,1.1153,1.1751,1.1949,1.2082,0.079,0.095,0.1137,0.1319,0.149,0.1644,0.1789,0.1927,0.205,0.2152,0.2232,0.2301,0.2355,0.2392,0.2413,0.2435,0.2456,0.2488,0.252,0.2563,0.2605,0.267,0.2776,0.2931,0.3113,0.3294,0.347,0.3631,0.378,0.3956,0.418,0.4453,0.4757,0.5067,0.5355,0.5403,0.4976,0.4463,0.4528,0.536,0.6679,0.8057,0.9343,1.0577,1.1623,1.2226,1.2477,0.087,0.0972,0.11,0.1239,0.1383,0.1516,0.1644,0.1773,0.1901,0.2013,0.2109,0.2178,0.221,0.2221,0.2242,0.2274,0.229,0.229,0.2301,0.2339,0.2392,0.2472,0.2584,0.2728,0.2888,0.3059,0.3225,0.3385,0.3524,0.3641,0.3732,0.3817,0.394,0.4127,0.4426,0.4837,0.5099,0.4848,0.4463,0.4538,0.519,0.6332,0.7715,0.9274,1.0806,1.1911,1.2499,0.0833,0.0881,0.0977,0.11,0.1244,0.1377,0.1522,0.1703,0.1831,0.1906,0.2045,0.2168,0.2194,0.2184,0.2125,0.2056,0.2061,0.2093,0.2114,0.2141,0.2194,0.2269,0.236,0.2467,0.2589,0.2744,0.291,0.3075,0.3235,0.3374,0.3486,0.3567,0.3631,0.37,0.3828,0.41,0.4634,0.5061,0.4917,0.4661,0.4752,0.5227,0.6193,0.7549,0.9221,1.0801,1.1853,0.0737,0.0774,0.0817,0.0913,0.1078,0.1212,0.158,0.2066,0.2088,0.1853,0.1959,0.1975,0.1842,0.1692,0.1484,0.142,0.1548,0.1735,0.1842,0.1895,0.1949,0.2013,0.2066,0.213,0.2226,0.2349,0.2504,0.2675,0.2856,0.3033,0.3193,0.3332,0.3444,0.3556,0.3663,0.3769,0.4058,0.4677,0.5147,0.5056,0.4864,0.4981,0.5414,0.6177,0.7368,0.8916,1.0304,0.0486,0.0699,0.0721,0.0699,0.0849,0.1009,0.1484,0.1757,0.1484,0.1308,0.1522,0,0.1447,0,0.0742,0.0577,0.0929,0.1372,0.1628,0.1692,0.1709,0.1746,0.1767,0.1773,0.1783,0.1842,0.2018,0.2184,0.2376,0.2605,0.2846,0.3054,0.3225,0.338,0.3508,0.3593,0.3641,0.3999,0.4709,0.519,0.528,0.5243,0.5243,0.5435,0.5958,0.6893,0.8121,0,0,0,0,0,0.0187,0.1041,0,0,0,0,0,0,0,0,0,0,0,0,0,0,0,0,0,0,0,0.1586,0.1703,0.1895,0.2109,0.2376,0.2638,0.2862,0.3038,0.3166,0.3246,0.3273,0.3348,0.3796,0.4512,0.5136,0.5579,0.5804,0.5905,0.5948,0.6076,0.6562,0,0,0,0,0,0,0,0,0,0,0,0,0,0,0,0,0,0,0,0,0,0,0,0,0,0,0,0,0,0.1559,0.1751,0.204,0.2296,0.2451,0.2525,0.26,0.2654,0.2696,0.2862,0.3326,0.3978,0.4613,0.5216,0.5841,0.638,0.6615,0.6636,0,0,0,0,0,0,0,0,0,0,0,0,0,0,0,0,0,0,0,0,0,0,0,0,0,0,0,0,0,0,0,0,0,0,0,0,0.1842,0.205,0.2274,0.2493,0.2846,0.331,0.3796,0.4362,0.5083,0.5932,0.6701,0,0,0,0,0,0,0,0,0,0,0,0,0,0,0,0,0,0,0,0,0,0,0,0,0,0,0,0,0,0,0,0,0,0,0,0,0,0,0.1805,0.1863,0.2109,0.2456,0.2744,0.3027,0.3518,0.4202,0.4875,0,0,0,0,0,0,0,0,0,0,0,0,0,0,0,0,0,0,0,0,0,0,0,0,0,0,0,0,0,0,0,0,0,0,0,0,0,0,0,0,0,0.1778,0.22,0.2547,0.2936,0.3518,0.37,0,0,0,0,0,0,0,0,0,0,0,0,0,0,0,0,0,0,0,0,0,0,0,0,0,0,0,0,0,0,0,0,0,0,0,0,0,0,0,0,0,0,0,0,0,0,0.0667,0,0,0,0,0,0,0,0,0,0,0,0,0,0,0,0,0,0,0,0,0,0,0,0,0,0,0,0,0,0,0,0,0,0,0,0,0,0,0,0,0,0,0,0,0,0,0,0,0,0,0,0,0,0,0,0,0,0,0,0,0,0,0,0,0,0,0,0,0,0,0,0,0,0,0,0,0,0,0,0,0,0,0,0,0,0,0,0,0,0,0,0,0,0,0,0,0,0,0,0,0,0,0,0,0,0,0,0,0,0,0,0,0,0,0,0,0,0,0,0,0,0,0,0,0,0,0,0,0,0,0,0,0,0,0,0,0,0,0,0,0,0,0,0,0,0,0,0,0,0,0,0,0,0,0,0,0,0,0,0,0,0,0,0,0,0,0,0,0,0,0,0,0,0,0,0,0,0,0,0,0,0,0,0,0,0,0,0,0,0,0,0,0,0,0,0,0,0,0,0,0,0,0,0,0,0,0,0,0,0,0,0,0,0,0,0,0,0,0,0,0,0,0,0,0,0,0,0,0,0,0,0,0,0,0,0,0,0,0,0,0,0,0,0,0,0,0,0,0,0,0,0,0,0,0,0,0,0,0,0,0,0,0,0,0,0,0,0,0,0,0,0,0,0,0,0,0,0,0,0,0,0,0,0,0,0,0,0,0,0,0,0,0,0,0,0,0,0,0,0,0,0,0,0,0,0,0,0,0,0,0,0,0,0,0,0,0,0,0,0,0,0,0,0,0,0,0,0,0,0,0,0,0,0,0,0,0,0,0,0,0,0,0,0,0,0,0,0,0,0,0,0,0,0,0,0,0,0,0,0,0,0,0,0,0,0,0,0,0,0,0,0,0,0,0,0,0,0,0,0,0,0,0,0,0,0,0,0,0,0,0,0,0,0,0,0,0,0,0,0,0,0,0,0,0,0,0,0,0,0,0,0,0,0,0,0,0,0,0,0,0,0,0,0,0,0,0,0,0,0,0,0,0,0,0,0,0,0,0,0,0,0,0,0,0,0,0,0,0,0,0,0,0,0,0,0,0,0,0,0,0,0,0,0,0,0,0,0,0,0,0,0,0,0,0,0,0,0,0,0,0,0,0,0,0,0,0,0,0,0,0,0,0,0,0,0,0,0,0,0,0,0,0,0,0,0,0,0,0,0,0,0,0,0,0,0,0,0,0,0,0,0,0,0,0,0,0,0,0,0,0,0,0,0,0,0,0,0,0,0,0,0,0,0,0,0,0,0,0,0,0,0,0,0,0,0,0,0,0,0,0,0,0,0,0,0,0,0,0,0,0,0,0,0,0,0,0,0,0,0,0,0,0,0,0,0,0,0,0,0,0,0,0,0,0,0,0,0,0,0,0,0,0,0,0,0,0,0,0,0,0,0,0,0,0,0,0,0,0,0,0,0,0,0,0,0,0,0,0,0,0,0,0,0,0,0,0,0,0,0,0,0,0,0,0,0,0,0,0,0,0,0,0,0,0,0,0,0,0,0,0,0,0,0,0,0,0,0,0,0,0,0,0,0,0,0,0,0,0,0,0,0,0,0,0,0,0,0,0,0,0,0,0,0,0,0,0,0,0,0,0,0,0,0,0]}],[{"header":{"parameterUnit":"kt","parameterCategory":2,"dx":1,"dy":1,"la1":29.764190673828125,"la2":30.86408042907715,"lo1":-88.46762084960938,"lo2":-86.9344482421875,"nx":47,"ny":34,"refTime":"2022-09-28T00:00:00:Z","depth":"12","parameterNumber":3,"parameterNumberName":"V-component_of_CURRENTS"},"data":[0.157,0.1762,0.1874,0.1805,0.166,0.1623,0.1639,0.1564,0.1345,0.1004,0.0598,0.031,0.023,0.0256,0.0278,0.0278,0.0304,0.0422,0.0646,0.0844,0.0929,0.0961,0.0972,0.0918,0.0817,0.1062,0.1554,0.2082,0.2429,0.2435,0.2499,0.2589,0.2814,0.323,0.354,0.3716,0.3636,0.3337,0.2846,0.2296,0.1794,0.1628,0.204,0.2787,0.3449,0.3764,0.4026,0.1516,0.1607,0.1628,0.1612,0.1628,0.1639,0.1575,0.1426,0.1185,0.0876,0.0566,0.0374,0.0299,0.0278,0.0267,0.0272,0.0315,0.0438,0.0657,0.0876,0.0961,0.0902,0.0844,0.0849,0.0929,0.1185,0.15,0.1821,0.2098,0.197,0.1714,0.1847,0.2205,0.2888,0.3604,0.4186,0.4415,0.425,0.3801,0.3203,0.2616,0.2381,0.2755,0.3465,0.402,0.417,0.4207,0.1393,0.1527,0.1559,0.1548,0.1527,0.1474,0.1372,0.1207,0.0982,0.0737,0.0539,0.0427,0.0358,0.0294,0.0235,0.0214,0.0262,0.0374,0.055,0.0758,0.0934,0.1009,0.1057,0.1191,0.1399,0.1644,0.1853,0.1799,0.1853,0.1725,0.0998,0.086,0.1367,0.2152,0.3225,0.4229,0.488,0.5045,0.4762,0.4159,0.3486,0.3118,0.3348,0.3951,0.4357,0.4357,0.4234,0.1244,0.1388,0.1458,0.1474,0.1431,0.1345,0.1228,0.1052,0.0844,0.0641,0.0502,0.0427,0.0384,0.032,0.0246,0.0192,0.0219,0.0304,0.0432,0.0593,0.0785,0.0993,0.1239,0.1506,0.173,0.1901,0.205,0.1831,0.166,0.1458,0.0833,0.0187,0.0422,0.0918,0.1901,0.3246,0.449,0.5248,0.5462,0.5104,0.4394,0.3812,0.3769,0.4186,0.4522,0.4506,0.4303,0.1078,0.1223,0.1303,0.134,0.1308,0.1233,0.1111,0.0929,0.0726,0.0539,0.0427,0.039,0.0384,0.0363,0.0294,0.0224,0.0224,0.0278,0.0358,0.0464,0.063,0.0865,0.1185,0.1538,0.1799,0.1954,0.2072,0.1933,0.1612,0.1287,0.0881,0.0326,0.0133,0.0331,0.0881,0.1709,0.2872,0.4202,0.5152,0.5467,0.52,0.457,0.4191,0.4335,0.4634,0.4709,0.4506,0.0924,0.1046,0.1116,0.1137,0.1116,0.1046,0.0929,0.0769,0.0598,0.0448,0.0368,0.0363,0.0395,0.04,0.0352,0.0288,0.0267,0.0288,0.0331,0.04,0.0529,0.0742,0.1068,0.1442,0.1757,0.1927,0.2029,0.2034,0.1735,0.1356,0.0945,0.0651,0.0342,0.0278,0.0763,0.1265,0.1858,0.2718,0.3721,0.4549,0.5019,0.5109,0.4789,0.4592,0.4725,0.4837,0.4682,0.078,0.0876,0.0929,0.094,0.0918,0.086,0.0763,0.0651,0.0534,0.0448,0.0416,0.0427,0.0448,0.0432,0.039,0.0336,0.0315,0.032,0.0336,0.0384,0.0486,0.0667,0.095,0.1297,0.1623,0.1842,0.1954,0.2018,0.1895,0.1623,0.1303,0.0966,0.0571,0.0427,0.0619,0.1143,0.1767,0.2376,0.2798,0.3374,0.3988,0.4592,0.5099,0.5083,0.4891,0.4843,0.4714,0.0689,0.0747,0.0785,0.0801,0.0801,0.0769,0.071,0.0641,0.0587,0.0555,0.0545,0.0529,0.0481,0.0427,0.0379,0.0336,0.032,0.0326,0.0347,0.04,0.0486,0.063,0.0844,0.1132,0.1426,0.1676,0.1842,0.1938,0.1938,0.1826,0.165,0.1399,0.1062,0.0849,0.0689,0.0812,0.134,0.2173,0.2798,0.3177,0.3534,0.3978,0.4624,0.5174,0.5216,0.4891,0.4682,0.0726,0.0758,0.0774,0.0796,0.0806,0.0785,0.0742,0.0699,0.0673,0.0657,0.0635,0.0577,0.0491,0.04,0.0336,0.0283,0.0278,0.031,0.0368,0.0432,0.0502,0.0598,0.0737,0.095,0.1207,0.1468,0.1692,0.1842,0.1885,0.1815,0.1687,0.1532,0.1367,0.1196,0.0972,0.0854,0.1025,0.1596,0.2403,0.3102,0.3599,0.3978,0.4421,0.4923,0.5184,0.504,0.4645,0.0849,0.0828,0.0801,0.0806,0.0812,0.0796,0.0747,0.0694,0.0667,0.0641,0.0609,0.0598,0.0582,0.0513,0.0438,0.0342,0.0283,0.0288,0.0347,0.0432,0.0507,0.0566,0.0641,0.0774,0.0988,0.1244,0.15,0.1709,0.1799,0.1746,0.1596,0.1431,0.1281,0.1159,0.1073,0.1046,0.1105,0.1367,0.1917,0.2584,0.3187,0.386,0.4479,0.4944,0.4987,0.4869,0.4602,0.0881,0.0774,0.0699,0.0715,0.0769,0.0812,0.0801,0.0785,0.0785,0.071,0.0614,0.0758,0.0945,0.1062,0.1052,0.0838,0.0534,0.0331,0.0299,0.0379,0.0475,0.0539,0.0571,0.0635,0.0785,0.1014,0.1271,0.1506,0.165,0.1644,0.1511,0.1324,0.1153,0.1025,0.0966,0.1041,0.1233,0.1415,0.173,0.212,0.2525,0.3049,0.3679,0.4367,0.4645,0.4512,0.4298,0.087,0.0721,0.0523,0.0518,0.0721,0.0982,0.1095,0.1191,0.1201,0.1062,0.0812,0.0993,0.1324,0.1687,0.1853,0.1575,0.0977,0.0481,0.0278,0.0315,0.0422,0.0502,0.0529,0.0534,0.0614,0.0774,0.1004,0.1244,0.1431,0.1479,0.1404,0.1244,0.1078,0.0945,0.086,0.0892,0.1132,0.1543,0.1703,0.1874,0.2082,0.2285,0.2579,0.3075,0.3502,0.3748,0.3647,0.0876,0.0715,0.0497,0.0246,0.0555,0.1351,0.1351,0.1639,0.1746,0.1271,0.0892,0,0.1324,0,0.1853,0.1709,0.126,0.0641,0.0288,0.0272,0.0374,0.0481,0.0555,0.0507,0.0481,0.0555,0.0737,0.0961,0.1175,0.1271,0.126,0.1164,0.1036,0.0908,0.0796,0.0774,0.0945,0.1436,0.1815,0.1831,0.1879,0.1911,0.1879,0.1997,0.2339,0.2654,0.2707,0,0,0,0,0,0.1506,0.1276,0,0,0,0,0,0,0,0,0,0,0,0,0,0,0,0,0,0,0,0.0523,0.0721,0.0988,0.1057,0.1073,0.1046,0.0972,0.0886,0.0747,0.0673,0.078,0.1201,0.181,0.2072,0.2056,0.1826,0.1586,0.1591,0.1746,0.1853,0.1949,0,0,0,0,0,0,0,0,0,0,0,0,0,0,0,0,0,0,0,0,0,0,0,0,0,0,0,0,0,0.0812,0.0785,0.0828,0.0844,0.0876,0.071,0.0566,0.0587,0.094,0.1602,0.2104,0.2264,0.2173,0.1981,0.1842,0.1698,0.1644,0.1591,0,0,0,0,0,0,0,0,0,0,0,0,0,0,0,0,0,0,0,0,0,0,0,0,0,0,0,0,0,0,0,0,0,0,0,0,0.0304,0.0481,0.1297,0.1799,0.1938,0.1954,0.1927,0.1922,0.1938,0.1938,0.1837,0,0,0,0,0,0,0,0,0,0,0,0,0,0,0,0,0,0,0,0,0,0,0,0,0,0,0,0,0,0,0,0,0,0,0,0,0,0,0.11,0.1484,0.1393,0.1281,0.118,0.1185,0.1351,0.1682,0.2061,0,0,0,0,0,0,0,0,0,0,0,0,0,0,0,0,0,0,0,0,0,0,0,0,0,0,0,0,0,0,0,0,0,0,0,0,0,0,0,0,0,0.0828,0.0763,0.0742,0.0822,0.1121,0.1692,0,0,0,0,0,0,0,0,0,0,0,0,0,0,0,0,0,0,0,0,0,0,0,0,0,0,0,0,0,0,0,0,0,0,0,0,0,0,0,0,0,0,0,0,0,0,0.1762,0,0,0,0,0,0,0,0,0,0,0,0,0,0,0,0,0,0,0,0,0,0,0,0,0,0,0,0,0,0,0,0,0,0,0,0,0,0,0,0,0,0,0,0,0,0,0,0,0,0,0,0,0,0,0,0,0,0,0,0,0,0,0,0,0,0,0,0,0,0,0,0,0,0,0,0,0,0,0,0,0,0,0,0,0,0,0,0,0,0,0,0,0,0,0,0,0,0,0,0,0,0,0,0,0,0,0,0,0,0,0,0,0,0,0,0,0,0,0,0,0,0,0,0,0,0,0,0,0,0,0,0,0,0,0,0,0,0,0,0,0,0,0,0,0,0,0,0,0,0,0,0,0,0,0,0,0,0,0,0,0,0,0,0,0,0,0,0,0,0,0,0,0,0,0,0,0,0,0,0,0,0,0,0,0,0,0,0,0,0,0,0,0,0,0,0,0,0,0,0,0,0,0,0,0,0,0,0,0,0,0,0,0,0,0,0,0,0,0,0,0,0,0,0,0,0,0,0,0,0,0,0,0,0,0,0,0,0,0,0,0,0,0,0,0,0,0,0,0,0,0,0,0,0,0,0,0,0,0,0,0,0,0,0,0,0,0,0,0,0,0,0,0,0,0,0,0,0,0,0,0,0,0,0,0,0,0,0,0,0,0,0,0,0,0,0,0,0,0,0,0,0,0,0,0,0,0,0,0,0,0,0,0,0,0,0,0,0,0,0,0,0,0,0,0,0,0,0,0,0,0,0,0,0,0,0,0,0,0,0,0,0,0,0,0,0,0,0,0,0,0,0,0,0,0,0,0,0,0,0,0,0,0,0,0,0,0,0,0,0,0,0,0,0,0,0,0,0,0,0,0,0,0,0,0,0,0,0,0,0,0,0,0,0,0,0,0,0,0,0,0,0,0,0,0,0,0,0,0,0,0,0,0,0,0,0,0,0,0,0,0,0,0,0,0,0,0,0,0,0,0,0,0,0,0,0,0,0,0,0,0,0,0,0,0,0,0,0,0,0,0,0,0,0,0,0,0,0,0,0,0,0,0,0,0,0,0,0,0,0,0,0,0,0,0,0,0,0,0,0,0,0,0,0,0,0,0,0,0,0,0,0,0,0,0,0,0,0,0,0,0,0,0,0,0,0,0,0,0,0,0,0,0,0,0,0,0,0,0,0,0,0,0,0,0,0,0,0,0,0,0,0,0,0,0,0,0,0,0,0,0,0,0,0,0,0,0,0,0,0,0,0,0,0,0,0,0,0,0,0,0,0,0,0,0,0,0,0,0,0,0,0,0,0,0,0,0,0,0,0,0,0,0,0,0,0,0,0,0,0,0,0,0,0,0,0,0,0,0,0,0,0,0,0,0,0,0,0,0,0,0,0,0,0,0,0,0,0,0,0,0,0,0,0,0,0,0,0,0,0,0,0,0,0,0,0,0,0,0,0,0,0,0,0,0,0,0,0,0,0,0,0,0,0,0,0,0,0,0,0,0,0,0,0,0,0,0,0,0,0,0,0,0,0,0,0,0,0,0,0,0,0,0,0,0,0,0,0,0,0,0,0,0,0,0,0,0,0,0,0,0,0,0,0,0]}]],[[{"header":{"parameterUnit":"kt","parameterCategory":2,"dx":1,"dy":1,"la1":29.764190673828125,"la2":30.86408042907715,"lo1":-88.46762084960938,"lo2":-86.9344482421875,"nx":47,"ny":34,"refTime":"2022-09-28T00:00:00:Z","depth":"15","parameterNumber":2,"parameterNumberName":"U-component_of_CURRENTS"},"data":[0.0416,0.0769,0.1212,0.165,0.1938,0.2018,0.1997,0.2024,0.2136,0.2269,0.2381,0.2435,0.2429,0.2445,0.2525,0.2648,0.276,0.2894,0.3113,0.347,0.3865,0.4116,0.4245,0.4351,0.4485,0.457,0.4426,0.4175,0.4159,0.4549,0.5104,0.5675,0.646,0.7475,0.8398,0.89,0.9055,0.9108,0.9247,0.9616,1.0155,1.0641,1.0956,1.1153,1.1212,1.1095,1.0801,0.0326,0.0625,0.0929,0.1223,0.1463,0.1639,0.1815,0.2024,0.2248,0.2456,0.2568,0.2573,0.2552,0.2568,0.2638,0.2728,0.2792,0.2856,0.3001,0.3342,0.3833,0.4255,0.4485,0.4554,0.4528,0.4474,0.4378,0.4132,0.3935,0.401,0.4341,0.4928,0.5675,0.6508,0.7475,0.8329,0.8809,0.9028,0.9205,0.9509,0.9952,1.0379,1.0721,1.0982,1.1111,1.1063,1.0844,0.0326,0.0545,0.079,0.1036,0.1281,0.1532,0.1794,0.2072,0.2322,0.2509,0.26,0.2638,0.2659,0.2712,0.2787,0.2851,0.2888,0.292,0.2995,0.3161,0.3444,0.378,0.402,0.4095,0.402,0.3903,0.3983,0.4095,0.4042,0.3935,0.3919,0.4191,0.4907,0.5777,0.6669,0.7662,0.8436,0.8927,0.9269,0.9557,0.9883,1.016,1.0406,1.0646,1.0817,1.0886,1.0806,0.0443,0.0603,0.0796,0.1014,0.1271,0.1559,0.1842,0.2109,0.2328,0.2493,0.2611,0.2702,0.2787,0.2872,0.2947,0.2974,0.2969,0.2963,0.3011,0.3107,0.3225,0.3342,0.3454,0.3534,0.3529,0.3508,0.3764,0.4186,0.4383,0.4378,0.4154,0.3844,0.3892,0.4586,0.5526,0.6524,0.7656,0.8585,0.9231,0.9669,0.9952,1.0123,1.0192,1.0358,1.0603,1.0801,1.086,0.0561,0.0699,0.0865,0.1062,0.1303,0.1564,0.1842,0.2104,0.2328,0.2499,0.2627,0.2739,0.2862,0.2974,0.3049,0.3054,0.3011,0.2979,0.299,0.3043,0.3113,0.3182,0.3257,0.3364,0.3465,0.3556,0.3823,0.4383,0.4821,0.4912,0.4848,0.4458,0.3882,0.3679,0.4164,0.512,0.6193,0.7432,0.8639,0.9493,0.9973,1.0272,1.0326,1.0358,1.0561,1.0828,1.1009,0.063,0.0785,0.0961,0.1169,0.1393,0.1639,0.1885,0.2114,0.2306,0.2445,0.2552,0.2664,0.2798,0.2931,0.3006,0.3011,0.2969,0.2931,0.292,0.2947,0.299,0.3033,0.3107,0.3246,0.3428,0.3604,0.3817,0.4346,0.5003,0.5403,0.5483,0.5328,0.496,0.4415,0.4132,0.4415,0.5184,0.6279,0.756,0.8804,0.9717,1.0246,1.0603,1.0764,1.0817,1.0999,1.1223,0.0667,0.0833,0.103,0.1244,0.1463,0.1682,0.1885,0.2061,0.221,0.2322,0.2413,0.2509,0.2616,0.2712,0.2776,0.2787,0.2771,0.276,0.2776,0.2814,0.2856,0.2904,0.2979,0.3118,0.3316,0.3524,0.3716,0.4026,0.4565,0.5104,0.5483,0.5782,0.582,0.551,0.5045,0.4725,0.4811,0.5542,0.6759,0.803,0.9221,1.0102,1.0614,1.11,1.1426,1.141,1.1586,0.0731,0.0892,0.1073,0.1265,0.1458,0.1644,0.1821,0.1975,0.2104,0.2205,0.2274,0.2333,0.2392,0.244,0.2467,0.2477,0.2493,0.252,0.2568,0.2627,0.2686,0.275,0.2846,0.299,0.3177,0.3369,0.3545,0.3721,0.3946,0.4239,0.4608,0.4987,0.5307,0.559,0.5686,0.5307,0.4773,0.4746,0.5537,0.6882,0.8238,0.9407,1.0288,1.0977,1.1661,1.2018,1.2125,0.079,0.0924,0.1073,0.1233,0.1399,0.1564,0.1719,0.1847,0.1959,0.205,0.2125,0.2184,0.2237,0.2258,0.2264,0.2258,0.2264,0.2285,0.2328,0.2392,0.2461,0.2547,0.2664,0.2824,0.3001,0.3182,0.3348,0.3502,0.3631,0.3743,0.3844,0.3999,0.4239,0.4576,0.4981,0.5296,0.5077,0.4544,0.4522,0.5318,0.6631,0.8014,0.9311,1.0406,1.1388,1.213,1.2574,0.0801,0.0897,0.1014,0.1148,0.1297,0.1447,0.1586,0.1719,0.1837,0.1927,0.1997,0.2029,0.2029,0.2034,0.2061,0.2077,0.2061,0.2056,0.2077,0.2136,0.221,0.2301,0.2419,0.2568,0.2739,0.292,0.3097,0.3257,0.3401,0.3513,0.3583,0.362,0.3673,0.378,0.402,0.4479,0.496,0.4891,0.4506,0.4517,0.5152,0.6284,0.7672,0.9178,1.0614,1.1725,1.2509,0.0747,0.0806,0.0902,0.1025,0.1175,0.1308,0.1447,0.1591,0.1703,0.1757,0.1815,0.1821,0.1751,0.1709,0.1682,0.1714,0.1815,0.1869,0.1874,0.1885,0.1933,0.1997,0.2077,0.2168,0.2339,0.2552,0.275,0.2936,0.3102,0.3241,0.3353,0.3433,0.3497,0.3556,0.362,0.3801,0.4293,0.4891,0.4944,0.4704,0.4741,0.5206,0.6161,0.7517,0.9167,1.0732,1.1842,0,0,0.0774,0.0849,0.0961,0.1078,0.1313,0.1511,0.1516,0.1532,0.1725,0,0,0,0,0,0,0,0,0,0,0,0,0,0.2018,0.2061,0.2264,0.2515,0.2718,0.2904,0.3065,0.3198,0.3305,0.3412,0.3518,0.3599,0.3775,0.4351,0.5019,0.5104,0.4949,0.5035,0.5414,0.6172,0.7379,0.8986,1.0459,0,0,0,0,0,0,0.1319,0.15,0,0,0,0,0,0,0,0,0,0,0,0,0,0,0,0,0,0,0.1842,0.1938,0.2221,0.2467,0.2702,0.2899,0.3059,0.3193,0.3316,0.3417,0.3486,0.37,0.433,0.5019,0.5366,0.5355,0.5296,0.5462,0.6001,0.6984,0.8318,0,0,0,0,0,0,0,0,0,0,0,0,0,0,0,0,0,0,0,0,0,0,0,0,0,0,0,0,0.1725,0.1869,0.2141,0.2403,0.2616,0.276,0.2867,0.2985,0.3059,0.3097,0.3358,0.4015,0.4698,0.5371,0.5974,0.6273,0.6177,0.6225,0.6717,0,0,0,0,0,0,0,0,0,0,0,0,0,0,0,0,0,0,0,0,0,0,0,0,0,0,0,0,0,0,0,0,0,0,0,0.2322,0.2306,0.2472,0.2509,0.2696,0.3075,0.3502,0.4095,0.4923,0.5948,0.6743,0.6957,0,0,0,0,0,0,0,0,0,0,0,0,0,0,0,0,0,0,0,0,0,0,0,0,0,0,0,0,0,0,0,0,0,0,0,0,0,0,0.1954,0.2184,0.2403,0.2627,0.2872,0.3235,0.3898,0.4848,0.5846,0,0,0,0,0,0,0,0,0,0,0,0,0,0,0,0,0,0,0,0,0,0,0,0,0,0,0,0,0,0,0,0,0,0,0,0,0,0,0,0,0,0.2082,0.2365,0.2611,0.2803,0.3107,0.3262,0,0,0,0,0,0,0,0,0,0,0,0,0,0,0,0,0,0,0,0,0,0,0,0,0,0,0,0,0,0,0,0,0,0,0,0,0,0,0,0,0,0,0.1965,0.2216,0.2707,0.3251,0.3182,0,0,0,0,0,0,0,0,0,0,0,0,0,0,0,0,0,0,0,0,0,0,0,0,0,0,0,0,0,0,0,0,0,0,0,0,0,0,0,0,0,0,0,0,0,0,0.0635,0,0,0,0,0,0,0,0,0,0,0,0,0,0,0,0,0,0,0,0,0,0,0,0,0,0,0,0,0,0,0,0,0,0,0,0,0,0,0,0,0,0,0,0,0,0,0,0,0,0,0,0,0,0,0,0,0,0,0,0,0,0,0,0,0,0,0,0,0,0,0,0,0,0,0,0,0,0,0,0,0,0,0,0,0,0,0,0,0,0,0,0,0,0,0,0,0,0,0,0,0,0,0,0,0,0,0,0,0,0,0,0,0,0,0,0,0,0,0,0,0,0,0,0,0,0,0,0,0,0,0,0,0,0,0,0,0,0,0,0,0,0,0,0,0,0,0,0,0,0,0,0,0,0,0,0,0,0,0,0,0,0,0,0,0,0,0,0,0,0,0,0,0,0,0,0,0,0,0,0,0,0,0,0,0,0,0,0,0,0,0,0,0,0,0,0,0,0,0,0,0,0,0,0,0,0,0,0,0,0,0,0,0,0,0,0,0,0,0,0,0,0,0,0,0,0,0,0,0,0,0,0,0,0,0,0,0,0,0,0,0,0,0,0,0,0,0,0,0,0,0,0,0,0,0,0,0,0,0,0,0,0,0,0,0,0,0,0,0,0,0,0,0,0,0,0,0,0,0,0,0,0,0,0,0,0,0,0,0,0,0,0,0,0,0,0,0,0,0,0,0,0,0,0,0,0,0,0,0,0,0,0,0,0,0,0,0,0,0,0,0,0,0,0,0,0,0,0,0,0,0,0,0,0,0,0,0,0,0,0,0,0,0,0,0,0,0,0,0,0,0,0,0,0,0,0,0,0,0,0,0,0,0,0,0,0,0,0,0,0,0,0,0,0,0,0,0,0,0,0,0,0,0,0,0,0,0,0,0,0,0,0,0,0,0,0,0,0,0,0,0,0,0,0,0,0,0,0,0,0,0,0,0,0,0,0,0,0,0,0,0,0,0,0,0,0,0,0,0,0,0,0,0,0,0,0,0,0,0,0,0,0,0,0,0,0,0,0,0,0,0,0,0,0,0,0,0,0,0,0,0,0,0,0,0,0,0,0,0,0,0,0,0,0,0,0,0,0,0,0,0,0,0,0,0,0,0,0,0,0,0,0,0,0,0,0,0,0,0,0,0,0,0,0,0,0,0,0,0,0,0,0,0,0,0,0,0,0,0,0,0,0,0,0,0,0,0,0,0,0,0,0,0,0,0,0,0,0,0,0,0,0,0,0,0,0,0,0,0,0,0,0,0,0,0,0,0,0,0,0,0,0,0,0,0,0,0,0,0,0,0,0,0,0,0,0,0,0,0,0,0,0,0,0,0,0,0,0,0,0,0,0,0,0,0,0,0,0,0,0,0,0,0,0,0,0,0,0,0,0,0,0,0,0,0,0,0,0,0,0,0,0,0,0,0,0,0,0,0,0,0,0,0,0,0,0,0,0,0,0,0,0,0,0,0,0,0,0,0,0,0,0,0,0,0,0,0,0,0,0,0,0,0,0,0,0,0,0,0,0,0,0,0,0,0,0,0,0,0,0,0,0,0,0,0,0,0,0,0,0,0,0,0,0,0,0,0,0,0,0,0,0,0,0,0]}],[{"header":{"parameterUnit":"kt","parameterCategory":2,"dx":1,"dy":1,"la1":29.764190673828125,"la2":30.86408042907715,"lo1":-88.46762084960938,"lo2":-86.9344482421875,"nx":47,"ny":34,"refTime":"2022-09-28T00:00:00:Z","depth":"15","parameterNumber":3,"parameterNumberName":"V-component_of_CURRENTS"},"data":[0.1778,0.1965,0.2072,0.2018,0.1901,0.1874,0.1874,0.1778,0.1538,0.1175,0.0731,0.0416,0.031,0.0336,0.0384,0.0411,0.047,0.0603,0.0849,0.1068,0.1185,0.1233,0.1249,0.1201,0.1148,0.1399,0.1815,0.2306,0.2643,0.2648,0.2643,0.2664,0.284,0.3235,0.3545,0.3727,0.3668,0.3385,0.292,0.2419,0.1933,0.1741,0.212,0.2862,0.3545,0.3892,0.4143,0.1714,0.1831,0.1874,0.1874,0.1901,0.1906,0.1831,0.166,0.1393,0.1046,0.0694,0.047,0.0374,0.0336,0.0326,0.0336,0.0416,0.0582,0.0828,0.1068,0.1207,0.1196,0.1159,0.118,0.1292,0.1564,0.1853,0.2077,0.228,0.2178,0.1927,0.1965,0.2242,0.2904,0.3615,0.4197,0.4447,0.4293,0.3876,0.3353,0.2803,0.252,0.2851,0.355,0.4111,0.4287,0.4287,0.1522,0.1698,0.1773,0.1794,0.1805,0.1762,0.165,0.1463,0.1201,0.0913,0.0673,0.0529,0.0432,0.0358,0.0294,0.0267,0.0336,0.0481,0.0678,0.0902,0.11,0.1217,0.1319,0.1468,0.1666,0.1885,0.2082,0.2034,0.2024,0.1885,0.1329,0.1191,0.1596,0.221,0.3246,0.4255,0.4923,0.5104,0.4864,0.4335,0.3732,0.3326,0.3492,0.4058,0.4469,0.4474,0.4303,0.1287,0.1479,0.1596,0.1655,0.165,0.1591,0.1474,0.1276,0.102,0.0774,0.0609,0.0523,0.047,0.0406,0.0326,0.0262,0.0294,0.04,0.0545,0.0705,0.0892,0.1111,0.1377,0.1655,0.1874,0.2013,0.2168,0.2104,0.1906,0.1655,0.1196,0.0742,0.0945,0.1329,0.2189,0.3396,0.4576,0.528,0.5499,0.5291,0.4709,0.41,0.3956,0.433,0.465,0.4618,0.4378,0.1105,0.126,0.1367,0.1431,0.142,0.1367,0.1244,0.1046,0.0822,0.0619,0.0507,0.0491,0.0502,0.0486,0.0406,0.0315,0.031,0.0368,0.0454,0.0561,0.0705,0.094,0.126,0.1618,0.189,0.2024,0.2146,0.2242,0.1986,0.1596,0.1185,0.078,0.0785,0.1025,0.15,0.2248,0.3214,0.4346,0.519,0.551,0.5446,0.5003,0.4506,0.4512,0.4762,0.4816,0.4592,0.0961,0.1073,0.1143,0.1169,0.1148,0.1084,0.0977,0.0822,0.0651,0.0523,0.047,0.0502,0.0555,0.0561,0.0497,0.04,0.0368,0.039,0.0427,0.0481,0.0587,0.079,0.1111,0.149,0.1815,0.1991,0.2088,0.2253,0.2205,0.1874,0.1393,0.1116,0.0742,0.0801,0.1399,0.1949,0.2493,0.315,0.3876,0.4618,0.5136,0.5376,0.5382,0.5029,0.4965,0.4992,0.4794,0.0881,0.0956,0.0993,0.0993,0.0966,0.0902,0.0822,0.0721,0.063,0.0571,0.0561,0.0587,0.0598,0.0577,0.0529,0.0454,0.0427,0.0427,0.0427,0.0454,0.0539,0.0705,0.0977,0.1324,0.1655,0.1874,0.1991,0.2114,0.2248,0.2189,0.1997,0.1698,0.1191,0.0993,0.1137,0.1644,0.2328,0.2915,0.3203,0.3604,0.4122,0.4816,0.5425,0.5675,0.5483,0.512,0.4891,0.0918,0.0956,0.0972,0.0966,0.0934,0.0876,0.0817,0.0763,0.0731,0.0721,0.0699,0.0657,0.0593,0.0529,0.0486,0.0438,0.0422,0.0427,0.0438,0.0464,0.0534,0.0662,0.0865,0.1143,0.1436,0.1682,0.1858,0.1965,0.205,0.2098,0.2141,0.2109,0.1927,0.1762,0.1479,0.1388,0.181,0.2579,0.3193,0.3502,0.3796,0.4148,0.4853,0.5467,0.5691,0.5478,0.512,0.1068,0.1068,0.1057,0.1036,0.0982,0.0908,0.0844,0.0806,0.079,0.078,0.0747,0.0678,0.0571,0.047,0.0406,0.0352,0.0352,0.039,0.0443,0.0497,0.055,0.0625,0.0753,0.0956,0.1207,0.1463,0.1687,0.1842,0.189,0.1858,0.1821,0.1805,0.1805,0.1815,0.1799,0.1676,0.1692,0.205,0.2696,0.3364,0.3839,0.4175,0.4672,0.5174,0.5435,0.5478,0.5211,0.1052,0.0993,0.0966,0.0961,0.0929,0.087,0.0806,0.0758,0.0742,0.071,0.0678,0.0667,0.0641,0.0561,0.0475,0.0374,0.032,0.0336,0.0395,0.0475,0.0539,0.0593,0.0657,0.078,0.0982,0.1233,0.1484,0.1692,0.1783,0.1735,0.1602,0.1463,0.1372,0.134,0.141,0.1655,0.1853,0.1981,0.2306,0.2755,0.3337,0.4042,0.4698,0.5291,0.5334,0.519,0.4992,0.0913,0.0806,0.0747,0.0769,0.0817,0.0844,0.0838,0.0844,0.0833,0.0742,0.0651,0.0796,0.0956,0.1046,0.1014,0.0806,0.0529,0.0342,0.032,0.0395,0.0486,0.0539,0.0561,0.0614,0.0763,0.0998,0.1255,0.1484,0.1628,0.1628,0.1506,0.1324,0.1164,0.1052,0.103,0.1207,0.1687,0.2093,0.2306,0.2435,0.2627,0.3107,0.3775,0.4592,0.5083,0.5029,0.4741,0,0,0.0534,0.0545,0.0763,0.0977,0.1046,0.118,0.1196,0.1025,0.0796,0,0,0,0,0,0,0,0,0,0,0,0,0,0.0587,0.0731,0.0966,0.1223,0.141,0.1468,0.1393,0.1244,0.1089,0.0956,0.0881,0.0918,0.1249,0.2002,0.2349,0.2419,0.2424,0.2531,0.2686,0.315,0.3748,0.4277,0.4325,0,0,0,0,0,0,0.1223,0.1426,0,0,0,0,0,0,0,0,0,0,0,0,0,0,0,0,0,0,0.0699,0.0902,0.1148,0.1255,0.1249,0.1159,0.1041,0.0918,0.0812,0.0796,0.0972,0.1612,0.2403,0.2643,0.2696,0.2557,0.2317,0.236,0.267,0.3033,0.3316,0,0,0,0,0,0,0,0,0,0,0,0,0,0,0,0,0,0,0,0,0,0,0,0,0,0,0,0,0.0934,0.0993,0.1025,0.1014,0.0956,0.087,0.0747,0.0689,0.0801,0.1255,0.2146,0.2872,0.3139,0.3161,0.2969,0.2776,0.2547,0.2477,0.2515,0,0,0,0,0,0,0,0,0,0,0,0,0,0,0,0,0,0,0,0,0,0,0,0,0,0,0,0,0,0,0,0,0,0,0,0.0545,0.0577,0.0956,0.1655,0.2349,0.284,0.3198,0.3342,0.3321,0.3251,0.3054,0.2643,0,0,0,0,0,0,0,0,0,0,0,0,0,0,0,0,0,0,0,0,0,0,0,0,0,0,0,0,0,0,0,0,0,0,0,0,0,0,0.1228,0.1735,0.1906,0.1991,0.2114,0.2424,0.2995,0.3529,0.3951,0,0,0,0,0,0,0,0,0,0,0,0,0,0,0,0,0,0,0,0,0,0,0,0,0,0,0,0,0,0,0,0,0,0,0,0,0,0,0,0,0,0.1153,0.1095,0.1169,0.1447,0.2072,0.2942,0,0,0,0,0,0,0,0,0,0,0,0,0,0,0,0,0,0,0,0,0,0,0,0,0,0,0,0,0,0,0,0,0,0,0,0,0,0,0,0,0,0,0.0694,0.0662,0.0769,0.1105,0.1682,0,0,0,0,0,0,0,0,0,0,0,0,0,0,0,0,0,0,0,0,0,0,0,0,0,0,0,0,0,0,0,0,0,0,0,0,0,0,0,0,0,0,0,0,0,0,0.1703,0,0,0,0,0,0,0,0,0,0,0,0,0,0,0,0,0,0,0,0,0,0,0,0,0,0,0,0,0,0,0,0,0,0,0,0,0,0,0,0,0,0,0,0,0,0,0,0,0,0,0,0,0,0,0,0,0,0,0,0,0,0,0,0,0,0,0,0,0,0,0,0,0,0,0,0,0,0,0,0,0,0,0,0,0,0,0,0,0,0,0,0,0,0,0,0,0,0,0,0,0,0,0,0,0,0,0,0,0,0,0,0,0,0,0,0,0,0,0,0,0,0,0,0,0,0,0,0,0,0,0,0,0,0,0,0,0,0,0,0,0,0,0,0,0,0,0,0,0,0,0,0,0,0,0,0,0,0,0,0,0,0,0,0,0,0,0,0,0,0,0,0,0,0,0,0,0,0,0,0,0,0,0,0,0,0,0,0,0,0,0,0,0,0,0,0,0,0,0,0,0,0,0,0,0,0,0,0,0,0,0,0,0,0,0,0,0,0,0,0,0,0,0,0,0,0,0,0,0,0,0,0,0,0,0,0,0,0,0,0,0,0,0,0,0,0,0,0,0,0,0,0,0,0,0,0,0,0,0,0,0,0,0,0,0,0,0,0,0,0,0,0,0,0,0,0,0,0,0,0,0,0,0,0,0,0,0,0,0,0,0,0,0,0,0,0,0,0,0,0,0,0,0,0,0,0,0,0,0,0,0,0,0,0,0,0,0,0,0,0,0,0,0,0,0,0,0,0,0,0,0,0,0,0,0,0,0,0,0,0,0,0,0,0,0,0,0,0,0,0,0,0,0,0,0,0,0,0,0,0,0,0,0,0,0,0,0,0,0,0,0,0,0,0,0,0,0,0,0,0,0,0,0,0,0,0,0,0,0,0,0,0,0,0,0,0,0,0,0,0,0,0,0,0,0,0,0,0,0,0,0,0,0,0,0,0,0,0,0,0,0,0,0,0,0,0,0,0,0,0,0,0,0,0,0,0,0,0,0,0,0,0,0,0,0,0,0,0,0,0,0,0,0,0,0,0,0,0,0,0,0,0,0,0,0,0,0,0,0,0,0,0,0,0,0,0,0,0,0,0,0,0,0,0,0,0,0,0,0,0,0,0,0,0,0,0,0,0,0,0,0,0,0,0,0,0,0,0,0,0,0,0,0,0,0,0,0,0,0,0,0,0,0,0,0,0,0,0,0,0,0,0,0,0,0,0,0,0,0,0,0,0,0,0,0,0,0,0,0,0,0,0,0,0,0,0,0,0,0,0,0,0,0,0,0,0,0,0,0,0,0,0,0,0,0,0,0,0,0,0,0,0,0,0,0,0,0,0,0,0,0,0,0,0,0,0,0,0,0,0,0,0,0,0,0,0,0,0,0,0,0,0,0,0,0,0,0,0,0,0,0,0,0,0,0,0,0,0,0,0,0,0,0,0,0,0,0,0,0,0,0,0,0,0,0,0,0,0,0,0,0,0,0,0,0,0,0,0,0,0,0,0,0,0,0,0,0,0,0,0,0,0,0,0,0,0,0,0,0,0,0,0,0,0,0,0,0,0,0,0,0,0,0,0,0,0,0,0,0,0,0,0,0,0,0]}]],[[{"header":{"parameterUnit":"kt","parameterCategory":2,"dx":1,"dy":1,"la1":29.764190673828125,"la2":30.86408042907715,"lo1":-88.46762084960938,"lo2":-86.9344482421875,"nx":47,"ny":34,"refTime":"2022-09-28T00:00:00:Z","depth":"20","parameterNumber":2,"parameterNumberName":"U-component_of_CURRENTS"},"data":[0.0491,0.086,0.1297,0.1725,0.1986,0.2045,0.2002,0.2013,0.212,0.2237,0.2333,0.2387,0.2392,0.2408,0.2461,0.2536,0.2611,0.275,0.3022,0.3449,0.3935,0.4239,0.4362,0.4463,0.4586,0.4634,0.4474,0.4255,0.4229,0.4576,0.5093,0.5643,0.6444,0.748,0.8372,0.8809,0.8938,0.9007,0.9082,0.9253,0.9621,1.0198,1.0726,1.1073,1.1196,1.1057,1.0764,0.0288,0.0646,0.0988,0.1271,0.1474,0.1634,0.181,0.2007,0.2205,0.2381,0.2493,0.2504,0.2488,0.2515,0.2584,0.2654,0.2691,0.2718,0.2824,0.3139,0.3631,0.4116,0.4421,0.4479,0.4351,0.4213,0.425,0.418,0.3994,0.3946,0.4239,0.4853,0.5638,0.6498,0.7453,0.8265,0.8713,0.8927,0.9028,0.9135,0.9466,1.0048,1.0603,1.0982,1.1121,1.1057,1.0828,0.0299,0.0497,0.0737,0.0982,0.1228,0.1506,0.1789,0.2034,0.2242,0.2408,0.2499,0.2536,0.2568,0.2632,0.2712,0.2771,0.2792,0.2792,0.283,0.2947,0.3161,0.3449,0.3679,0.3727,0.3593,0.3481,0.3716,0.4047,0.4079,0.3865,0.3759,0.4063,0.4827,0.574,0.6642,0.764,0.843,0.8932,0.9178,0.9226,0.9391,0.9872,1.0331,1.0689,1.094,1.0993,1.0812,0.0438,0.0587,0.0753,0.094,0.1185,0.1468,0.1746,0.1991,0.2205,0.2371,0.2493,0.2584,0.2675,0.2771,0.284,0.2872,0.2856,0.283,0.284,0.2915,0.3022,0.3118,0.3198,0.3246,0.3251,0.3273,0.3465,0.3994,0.4383,0.4367,0.4063,0.3743,0.3807,0.4544,0.5531,0.6551,0.771,0.8665,0.9253,0.9429,0.9418,0.9669,1.007,1.0534,1.086,1.094,1.0865,0.0555,0.0694,0.0849,0.1025,0.1233,0.1474,0.173,0.1991,0.221,0.2381,0.2509,0.2627,0.2739,0.2846,0.291,0.2915,0.2872,0.2814,0.2798,0.284,0.2926,0.3017,0.3102,0.3187,0.3278,0.3374,0.3486,0.3908,0.4554,0.4912,0.4939,0.4688,0.4031,0.3844,0.4415,0.5296,0.6311,0.7523,0.8692,0.9349,0.9541,0.9589,0.9893,1.0304,1.0603,1.0849,1.0956,0.0619,0.0774,0.0945,0.1143,0.1356,0.1586,0.1815,0.2029,0.2205,0.2344,0.2451,0.2552,0.2664,0.2766,0.2824,0.2824,0.2776,0.2712,0.2691,0.2723,0.2792,0.2872,0.2969,0.3097,0.3246,0.339,0.3518,0.3732,0.4154,0.4576,0.4971,0.5291,0.5505,0.5318,0.4672,0.4875,0.5601,0.646,0.7592,0.874,0.9477,0.9712,0.9888,1.0283,1.0833,1.1143,1.1356,0.0657,0.0812,0.1004,0.1212,0.142,0.1623,0.1815,0.1981,0.212,0.2221,0.2301,0.2371,0.2435,0.2483,0.2525,0.2536,0.2509,0.2477,0.2493,0.2552,0.2632,0.2718,0.2824,0.2963,0.3134,0.331,0.3454,0.3545,0.3647,0.3828,0.4106,0.4405,0.4848,0.5654,0.614,0.5627,0.5328,0.6001,0.7037,0.8073,0.9066,0.9765,0.9995,1.0192,1.0694,1.1239,1.173,0.0689,0.0828,0.1004,0.1201,0.1393,0.158,0.1741,0.1879,0.1981,0.2045,0.2072,0.2082,0.2109,0.213,0.213,0.2114,0.2104,0.2125,0.2184,0.2269,0.2365,0.2472,0.2611,0.2776,0.2958,0.3139,0.3294,0.3396,0.3406,0.3369,0.3396,0.3534,0.3727,0.3962,0.4634,0.5702,0.5355,0.5013,0.5761,0.7032,0.8212,0.9237,0.9883,1.0182,1.063,1.1169,1.1922,0.071,0.0822,0.0961,0.1121,0.1292,0.1447,0.1575,0.1687,0.1778,0.1853,0.1911,0.1965,0,0,0,0,0,0.1981,0.2007,0.2066,0.213,0.2205,0.2296,0.2429,0.2632,0.2872,0.307,0.3225,0.3337,0.3364,0.3305,0.3235,0.3209,0.3257,0.346,0.433,0.5206,0.4741,0.4549,0.528,0.6546,0.7945,0.9141,0.9947,1.0555,1.1201,1.1853,0,0,0,0,0.1207,0.1345,0.1479,0,0,0,0,0,0,0,0,0,0,0,0,0,0,0,0,0,0.2376,0.2472,0.2664,0.2904,0.3086,0.3203,0.3257,0.3273,0.3251,0.3193,0.3113,0.323,0.4127,0.4885,0.4586,0.4453,0.504,0.6135,0.7619,0.8975,1.0139,1.1089,1.1895,0,0,0,0,0,0,0,0,0,0,0,0,0,0,0,0,0,0,0,0,0,0,0,0,0,0,0.2371,0.2472,0.2696,0.2883,0.3006,0.3097,0.3187,0.3246,0.3219,0.3059,0.2979,0.3924,0.4997,0.4853,0.472,0.5152,0.6076,0.7544,0.8991,1.0507,1.1687,0,0,0,0,0,0,0,0,0,0,0,0,0,0,0,0,0,0,0,0,0,0,0,0,0,0,0,0,0.2306,0.2488,0.2664,0.2787,0.2894,0.2979,0.307,0.3123,0.2936,0.2648,0.3572,0.5093,0.5611,0.5563,0.5606,0.6257,0.7512,0.9114,1.0897,0,0,0,0,0,0,0,0,0,0,0,0,0,0,0,0,0,0,0,0,0,0,0,0,0,0,0,0,0,0.2152,0.2317,0.2461,0.2584,0.2691,0.2792,0.2862,0.2883,0.2659,0.2237,0.2776,0.3892,0.4757,0.5526,0.6332,0.7176,0.7923,0.8916,0,0,0,0,0,0,0,0,0,0,0,0,0,0,0,0,0,0,0,0,0,0,0,0,0,0,0,0,0,0,0,0,0,0,0,0,0,0.2499,0.2242,0.1879,0.1831,0.2093,0.2686,0.3684,0.5243,0.6877,0.8099,0,0,0,0,0,0,0,0,0,0,0,0,0,0,0,0,0,0,0,0,0,0,0,0,0,0,0,0,0,0,0,0,0,0,0,0,0,0,0.2082,0.1874,0.1799,0.1858,0.2018,0.2216,0.2403,0.2835,0.3198,0,0,0,0,0,0,0,0,0,0,0,0,0,0,0,0,0,0,0,0,0,0,0,0,0,0,0,0,0,0,0,0,0,0,0,0,0,0,0,0,0,0.212,0.2141,0.2098,0.2018,0.1778,0.1554,0,0,0,0,0,0,0,0,0,0,0,0,0,0,0,0,0,0,0,0,0,0,0,0,0,0,0,0,0,0,0,0,0,0,0,0,0,0,0,0,0,0,0,0,0.2168,0.1965,0.1634,0,0,0,0,0,0,0,0,0,0,0,0,0,0,0,0,0,0,0,0,0,0,0,0,0,0,0,0,0,0,0,0,0,0,0,0,0,0,0,0,0,0,0,0,0,0.2771,0.2659,0,0,0,0,0,0,0,0,0,0,0,0,0,0,0,0,0,0,0,0,0,0,0,0,0,0,0,0,0,0,0,0,0,0,0,0,0,0,0,0,0,0,0,0,0,0,0,0,0,0,0,0,0,0,0,0,0,0,0,0,0,0,0,0,0,0,0,0,0,0,0,0,0,0,0,0,0,0,0,0,0,0,0,0,0,0,0,0,0,0,0,0,0,0,0,0,0,0,0,0,0,0,0,0,0,0,0,0,0,0,0,0,0,0,0,0,0,0,0,0,0,0,0,0,0,0,0,0,0,0,0,0,0,0,0,0,0,0,0,0,0,0,0,0,0,0,0,0,0,0,0,0,0,0,0,0,0,0,0,0,0,0,0,0,0,0,0,0,0,0,0,0,0,0,0,0,0,0,0,0,0,0,0,0,0,0,0,0,0,0,0,0,0,0,0,0,0,0,0,0,0,0,0,0,0,0,0,0,0,0,0,0,0,0,0,0,0,0,0,0,0,0,0,0,0,0,0,0,0,0,0,0,0,0,0,0,0,0,0,0,0,0,0,0,0,0,0,0,0,0,0,0,0,0,0,0,0,0,0,0,0,0,0,0,0,0,0,0,0,0,0,0,0,0,0,0,0,0,0,0,0,0,0,0,0,0,0,0,0,0,0,0,0,0,0,0,0,0,0,0,0,0,0,0,0,0,0,0,0,0,0,0,0,0,0,0,0,0,0,0,0,0,0,0,0,0,0,0,0,0,0,0,0,0,0,0,0,0,0,0,0,0,0,0,0,0,0,0,0,0,0,0,0,0,0,0,0,0,0,0,0,0,0,0,0,0,0,0,0,0,0,0,0,0,0,0,0,0,0,0,0,0,0,0,0,0,0,0,0,0,0,0,0,0,0,0,0,0,0,0,0,0,0,0,0,0,0,0,0,0,0,0,0,0,0,0,0,0,0,0,0,0,0,0,0,0,0,0,0,0,0,0,0,0,0,0,0,0,0,0,0,0,0,0,0,0,0,0,0,0,0,0,0,0,0,0,0,0,0,0,0,0,0,0,0,0,0,0,0,0,0,0,0,0,0,0,0,0,0,0,0,0,0,0,0,0,0,0,0,0,0,0,0,0,0,0,0,0,0,0,0,0,0,0,0,0,0,0,0,0,0,0,0,0,0,0,0,0,0,0,0,0,0,0,0,0,0,0,0,0,0,0,0,0,0,0,0,0,0,0,0,0,0,0,0,0,0,0,0,0,0,0,0,0,0,0,0,0,0,0,0,0,0,0,0,0,0,0,0,0,0,0,0,0,0,0,0,0,0,0,0,0,0,0,0,0,0,0,0,0,0,0,0,0,0,0,0,0,0,0,0,0,0,0,0,0,0,0,0,0,0,0,0,0,0,0,0,0,0,0,0,0,0,0,0,0,0,0,0,0,0,0,0,0,0,0,0,0,0,0,0,0,0,0,0,0,0,0,0,0,0,0,0,0,0,0,0,0,0,0,0,0,0,0,0,0,0,0,0,0,0,0,0,0,0,0,0,0,0,0,0,0,0,0,0,0,0,0,0,0,0,0,0,0,0,0,0,0,0,0,0,0,0,0,0,0,0,0,0,0,0,0,0,0,0,0,0,0,0,0,0,0,0,0,0,0,0,0,0,0,0,0,0,0,0,0,0,0,0,0,0,0,0,0,0,0,0,0,0,0,0,0]}],[{"header":{"parameterUnit":"kt","parameterCategory":2,"dx":1,"dy":1,"la1":29.764190673828125,"la2":30.86408042907715,"lo1":-88.46762084960938,"lo2":-86.9344482421875,"nx":47,"ny":34,"refTime":"2022-09-28T00:00:00:Z","depth":"20","parameterNumber":3,"parameterNumberName":"V-component_of_CURRENTS"},"data":[0.2221,0.2301,0.2349,0.2306,0.2253,0.2242,0.2205,0.204,0.1735,0.1329,0.0865,0.0518,0.039,0.0406,0.0502,0.0582,0.0694,0.0886,0.1175,0.1479,0.1687,0.1778,0.1799,0.1778,0.1799,0.1975,0.22,0.2611,0.2926,0.292,0.2792,0.2728,0.2862,0.3241,0.3524,0.3764,0.3844,0.3641,0.331,0.2947,0.2605,0.2413,0.2632,0.3187,0.3711,0.401,0.4229,0.1949,0.2141,0.2205,0.2242,0.229,0.2296,0.2189,0.1959,0.1628,0.1212,0.0822,0.0571,0.0443,0.039,0.0374,0.04,0.0518,0.0737,0.103,0.1372,0.1692,0.1821,0.1879,0.1975,0.2088,0.2269,0.2472,0.2467,0.2493,0.2488,0.2221,0.2061,0.2274,0.2926,0.3599,0.418,0.4618,0.4656,0.4346,0.393,0.354,0.3241,0.3342,0.3817,0.4229,0.441,0.4351,0.1559,0.1826,0.2013,0.2125,0.2194,0.2173,0.204,0.1799,0.1452,0.1078,0.0801,0.063,0.0513,0.0422,0.0352,0.0331,0.0411,0.0587,0.0812,0.1062,0.1335,0.1602,0.1847,0.2061,0.2184,0.2248,0.2483,0.2483,0.2301,0.2077,0.1917,0.1639,0.1719,0.228,0.3289,0.4202,0.496,0.5366,0.5216,0.4853,0.449,0.4154,0.4164,0.4335,0.4602,0.465,0.4373,0.1281,0.1484,0.1655,0.1794,0.1879,0.1879,0.1757,0.1506,0.1185,0.0897,0.071,0.0614,0.0561,0.0486,0.0406,0.0336,0.0374,0.0497,0.0657,0.0817,0.0998,0.1244,0.1554,0.1853,0.2061,0.2104,0.2344,0.276,0.2483,0.2013,0.1773,0.1543,0.1564,0.1879,0.2563,0.3583,0.4586,0.5366,0.5627,0.5446,0.5184,0.4965,0.473,0.4832,0.4997,0.4869,0.4453,0.1105,0.1255,0.1361,0.1442,0.1468,0.1436,0.1329,0.1127,0.0886,0.0689,0.0582,0.0582,0.0614,0.0593,0.0513,0.0411,0.04,0.0464,0.0555,0.0651,0.078,0.0998,0.1324,0.1687,0.197,0.2066,0.2221,0.2931,0.3017,0.2627,0.2242,0.1975,0.1778,0.1959,0.2483,0.3006,0.3732,0.4554,0.5136,0.5387,0.5489,0.5435,0.5291,0.5131,0.5035,0.4971,0.4634,0.0972,0.1078,0.1143,0.1169,0.1148,0.1089,0.0988,0.0844,0.0689,0.0582,0.0555,0.0614,0.0683,0.0683,0.0619,0.0507,0.047,0.0491,0.0518,0.0555,0.0646,0.0828,0.1137,0.1522,0.1853,0.2018,0.2114,0.2589,0.3235,0.3444,0.3332,0.2963,0.2467,0.2248,0.2499,0.3081,0.3513,0.393,0.4282,0.4597,0.4928,0.5451,0.5675,0.5553,0.528,0.5093,0.5045,0.0902,0.0972,0.1004,0.0998,0.0972,0.0913,0.0838,0.0758,0.0683,0.0646,0.0657,0.0689,0.0699,0.0673,0.063,0.0555,0.0523,0.0513,0.0502,0.0513,0.0577,0.0726,0.0982,0.1324,0.165,0.1879,0.1997,0.2173,0.2718,0.3166,0.3454,0.3556,0.339,0.3177,0.2862,0.2702,0.3305,0.4116,0.4325,0.4394,0.4602,0.4891,0.5521,0.5772,0.5558,0.5216,0.5344,0.1014,0.1046,0.1046,0.1014,0.0972,0.0913,0.086,0.0817,0.0796,0.078,0.0758,0.071,0.0641,0.0582,0.0545,0.0502,0.0486,0.0481,0.0481,0.0497,0.055,0.0662,0.0854,0.1116,0.1393,0.1644,0.1831,0.1943,0.2104,0.2306,0.26,0.2867,0.3059,0.3284,0.3433,0.3086,0.2595,0.3417,0.4373,0.4688,0.4917,0.4992,0.5232,0.5595,0.5665,0.5371,0.5104,0.1121,0.1105,0.1089,0.1057,0.0998,0.0924,0.086,0.0828,0.0812,0.0801,0.0763,0.0689,0,0,0,0,0,0.0411,0.0464,0.0507,0.055,0.0609,0.0715,0.0886,0.1121,0.1383,0.1612,0.1773,0.1831,0.1815,0.1842,0.1933,0.2088,0.2349,0.2824,0.3364,0.3038,0.2686,0.3326,0.4229,0.4896,0.5366,0.5574,0.5723,0.5675,0.5435,0.4997,0,0,0,0,0.0924,0.086,0.0801,0,0,0,0,0,0,0,0,0,0,0,0,0,0,0,0,0,0.0908,0.1105,0.1345,0.1575,0.1687,0.1655,0.1538,0.1431,0.1383,0.1431,0.1682,0.2392,0.3326,0.3187,0.2846,0.3011,0.3849,0.488,0.5617,0.614,0.6119,0.5681,0.5115,0,0,0,0,0,0,0,0,0,0,0,0,0,0,0,0,0,0,0,0,0,0,0,0,0,0,0.1132,0.1319,0.1479,0.1516,0.1415,0.1265,0.1132,0.1041,0.1046,0.1324,0.2328,0.3663,0.3545,0.2969,0.2728,0.3214,0.4191,0.5307,0.6006,0.6055,0.5569,0,0,0,0,0,0,0,0,0,0,0,0,0,0,0,0,0,0,0,0,0,0,0,0,0,0,0,0,0.1265,0.1324,0.1281,0.1159,0.1025,0.0908,0.0838,0.0892,0.1297,0.2712,0.4074,0.418,0.3492,0.3219,0.3246,0.3807,0.4816,0.5558,0.5675,0,0,0,0,0,0,0,0,0,0,0,0,0,0,0,0,0,0,0,0,0,0,0,0,0,0,0,0,0,0.1148,0.1132,0.1052,0.095,0.0844,0.0758,0.0747,0.0924,0.166,0.3145,0.4245,0.4512,0.4319,0.402,0.378,0.3679,0.3967,0.4415,0,0,0,0,0,0,0,0,0,0,0,0,0,0,0,0,0,0,0,0,0,0,0,0,0,0,0,0,0,0,0,0,0,0,0,0,0,0.1169,0.2093,0.3182,0.3908,0.4186,0.4266,0.4378,0.4341,0.4143,0.355,0,0,0,0,0,0,0,0,0,0,0,0,0,0,0,0,0,0,0,0,0,0,0,0,0,0,0,0,0,0,0,0,0,0,0,0,0,0,0.1506,0.2045,0.2488,0.2798,0.3107,0.3556,0.4229,0.4682,0.4437,0,0,0,0,0,0,0,0,0,0,0,0,0,0,0,0,0,0,0,0,0,0,0,0,0,0,0,0,0,0,0,0,0,0,0,0,0,0,0,0,0,0.1751,0.1831,0.2072,0.2643,0.3481,0.3919,0,0,0,0,0,0,0,0,0,0,0,0,0,0,0,0,0,0,0,0,0,0,0,0,0,0,0,0,0,0,0,0,0,0,0,0,0,0,0,0,0,0,0,0,0.1249,0.1725,0.2301,0,0,0,0,0,0,0,0,0,0,0,0,0,0,0,0,0,0,0,0,0,0,0,0,0,0,0,0,0,0,0,0,0,0,0,0,0,0,0,0,0,0,0,0,0,0.0972,0.1522,0,0,0,0,0,0,0,0,0,0,0,0,0,0,0,0,0,0,0,0,0,0,0,0,0,0,0,0,0,0,0,0,0,0,0,0,0,0,0,0,0,0,0,0,0,0,0,0,0,0,0,0,0,0,0,0,0,0,0,0,0,0,0,0,0,0,0,0,0,0,0,0,0,0,0,0,0,0,0,0,0,0,0,0,0,0,0,0,0,0,0,0,0,0,0,0,0,0,0,0,0,0,0,0,0,0,0,0,0,0,0,0,0,0,0,0,0,0,0,0,0,0,0,0,0,0,0,0,0,0,0,0,0,0,0,0,0,0,0,0,0,0,0,0,0,0,0,0,0,0,0,0,0,0,0,0,0,0,0,0,0,0,0,0,0,0,0,0,0,0,0,0,0,0,0,0,0,0,0,0,0,0,0,0,0,0,0,0,0,0,0,0,0,0,0,0,0,0,0,0,0,0,0,0,0,0,0,0,0,0,0,0,0,0,0,0,0,0,0,0,0,0,0,0,0,0,0,0,0,0,0,0,0,0,0,0,0,0,0,0,0,0,0,0,0,0,0,0,0,0,0,0,0,0,0,0,0,0,0,0,0,0,0,0,0,0,0,0,0,0,0,0,0,0,0,0,0,0,0,0,0,0,0,0,0,0,0,0,0,0,0,0,0,0,0,0,0,0,0,0,0,0,0,0,0,0,0,0,0,0,0,0,0,0,0,0,0,0,0,0,0,0,0,0,0,0,0,0,0,0,0,0,0,0,0,0,0,0,0,0,0,0,0,0,0,0,0,0,0,0,0,0,0,0,0,0,0,0,0,0,0,0,0,0,0,0,0,0,0,0,0,0,0,0,0,0,0,0,0,0,0,0,0,0,0,0,0,0,0,0,0,0,0,0,0,0,0,0,0,0,0,0,0,0,0,0,0,0,0,0,0,0,0,0,0,0,0,0,0,0,0,0,0,0,0,0,0,0,0,0,0,0,0,0,0,0,0,0,0,0,0,0,0,0,0,0,0,0,0,0,0,0,0,0,0,0,0,0,0,0,0,0,0,0,0,0,0,0,0,0,0,0,0,0,0,0,0,0,0,0,0,0,0,0,0,0,0,0,0,0,0,0,0,0,0,0,0,0,0,0,0,0,0,0,0,0,0,0,0,0,0,0,0,0,0,0,0,0,0,0,0,0,0,0,0,0,0,0,0,0,0,0,0,0,0,0,0,0,0,0,0,0,0,0,0,0,0,0,0,0,0,0,0,0,0,0,0,0,0,0,0,0,0,0,0,0,0,0,0,0,0,0,0,0,0,0,0,0,0,0,0,0,0,0,0,0,0,0,0,0,0,0,0,0,0,0,0,0,0,0,0,0,0,0,0,0,0,0,0,0,0,0,0,0,0,0,0,0,0,0,0,0,0,0,0,0,0,0,0,0,0,0,0,0,0,0,0,0,0,0,0,0,0,0,0,0,0,0,0,0,0,0,0,0,0,0,0,0,0,0,0,0,0,0,0,0,0,0,0,0,0,0,0,0,0,0,0,0,0,0,0,0,0,0,0,0,0,0,0,0,0,0,0,0,0,0,0,0,0,0,0,0,0,0,0,0,0,0,0,0,0,0,0,0,0,0,0,0,0,0,0,0,0,0,0,0,0,0,0,0,0,0,0,0,0,0,0,0,0,0,0,0,0,0,0,0,0,0,0,0,0,0]}]],[[{"header":{"parameterUnit":"kt","parameterCategory":2,"dx":1,"dy":1,"la1":29.764190673828125,"la2":30.86408042907715,"lo1":-88.46762084960938,"lo2":-86.9344482421875,"nx":47,"ny":34,"refTime":"2022-09-28T00:00:00:Z","depth":"25","parameterNumber":2,"parameterNumberName":"U-component_of_CURRENTS"},"data":[0.0214,0.0886,0.1591,0.1997,0.204,0.1938,0.1858,0.1927,0.2082,0.221,0.2296,0.2339,0.2344,0.2355,0.2392,0.2413,0.2397,0.2365,0.2499,0.2872,0.3444,0.4031,0.4346,0.4341,0.4047,0.3983,0.4351,0.4351,0.449,0.4698,0.5088,0.5617,0.6423,0.7368,0.7913,0.8366,0.8532,0.8591,0.8633,0.8548,0.851,0.8708,0.9103,0.9637,1.0208,1.055,1.0497,0.0176,0.0443,0.086,0.1191,0.1335,0.1452,0.1655,0.1911,0.2146,0.2317,0.2408,0.2419,0.2403,0.2424,0.2477,0.2525,0.2552,0.2568,0.2584,0.2616,0.2776,0.3097,0.3428,0.3492,0.331,0.3209,0.3705,0.4154,0.4036,0.3892,0.4122,0.4821,0.5569,0.6439,0.7112,0.7838,0.8276,0.8532,0.8596,0.8446,0.842,0.8719,0.9295,0.9819,1.0214,1.0363,1.0315,0.0283,0.0454,0.063,0.0817,0.1052,0.1335,0.1639,0.1917,0.2146,0.2312,0.2392,0.2424,0.2451,0.2499,0.2547,0.2584,0.2611,0.2616,0.2648,0.2718,0.2766,0.2803,0.291,0.2942,0.2878,0.2872,0.3097,0.3849,0.418,0.386,0.3711,0.3983,0.4773,0.5681,0.6402,0.7288,0.7987,0.8489,0.8676,0.8569,0.8366,0.8569,0.9028,0.9493,0.9754,0.9819,0.9952,0.0427,0.0566,0.0721,0.0886,0.1089,0.1345,0.1623,0.189,0.2104,0.2253,0.236,0.2445,0.2531,0.2584,0.26,0.2605,0.2611,0.2595,0.2595,0.267,0.2798,0.2894,0.2942,0.2953,0.3001,0.307,0.2979,0.3129,0.3807,0.4143,0.4106,0.3951,0.3807,0.4581,0.5574,0.6428,0.7437,0.8249,0.8729,0.8745,0.8484,0.8382,0.8617,0.9108,0.9338,0.9402,0.9573,0.0539,0.0678,0.0822,0.0993,0.1196,0.142,0.166,0.1895,0.2088,0.2237,0.2365,0.2477,0.2563,0.2595,0.2595,0.2584,0.2552,0.2499,0.2472,0.2515,0.2643,0.2792,0.291,0.299,0.307,0.3155,0.3049,0.2782,0.2718,0.2899,0.3364,0.4261,0.4848,0.4586,0.4944,0.5691,0.645,0.7448,0.8372,0.8847,0.8703,0.8521,0.8473,0.8708,0.9034,0.9221,0.9386,0.0593,0.0747,0.0913,0.1095,0.1292,0.15,0.1703,0.189,0.2034,0.2152,0.2248,0.2333,0.2397,0.2456,0.2504,0.2499,0.244,0.2355,0.2317,0.2344,0.2424,0.2563,0.2734,0.2883,0.3006,0.3123,0.315,0.2835,0.2483,0.244,0.2547,0.2846,0.3545,0.4971,0.6097,0.6028,0.6647,0.7176,0.7784,0.8559,0.897,0.8927,0.8713,0.8751,0.8916,0.9226,0.952,0.063,0.0774,0.0956,0.1143,0.1329,0.1506,0.1666,0.1805,0.1927,0.2029,0.2109,0.2173,0,0,0,0,0,0.221,0.2205,0.2258,0.2322,0.2392,0.2467,0.2595,0.2766,0.2953,0.3091,0.3006,0.2654,0.2403,0.2397,0.2403,0.2397,0.2472,0.3145,0.5441,0.6546,0.7085,0.7795,0.851,0.9012,0.937,0.9231,0.9023,0.9114,0.9279,0.9546,0.0657,0.0785,0.095,0.1137,0.1313,0.1484,0.1634,0,0,0,0,0,0,0,0,0,0,0,0,0,0,0,0,0.2488,0.2589,0.268,0.2808,0.291,0.2851,0.2659,0.2451,0.2339,0.229,0.2162,0.205,0.2547,0.5318,0.6354,0.6225,0.7234,0.8324,0.9221,0.9594,0.9456,0.9461,0.968,0.9813,0,0,0,0,0,0,0,0,0,0,0,0,0,0,0,0,0,0,0,0,0,0,0,0,0,0,0.268,0.276,0.283,0.2851,0.2782,0.268,0.2557,0.2376,0.2098,0.1853,0.2595,0.5553,0.6161,0.5286,0.63,0.7806,0.8959,0.9439,0.9781,1.015,1.0555,0,0,0,0,0,0,0,0,0,0,0,0,0,0,0,0,0,0,0,0,0,0,0,0,0,0,0,0,0,0.2803,0.2846,0.2846,0.2808,0.2718,0.2493,0.1991,0.1516,0.244,0.5248,0.6492,0.5996,0.5868,0.7,0.8249,0.9237,1.0262,1.1121,0,0,0,0,0,0,0,0,0,0,0,0,0,0,0,0,0,0,0,0,0,0,0,0,0,0,0,0,0,0,0,0,0,0.2856,0.2814,0.2552,0.1799,0.1057,0.1698,0.3572,0.4522,0.5425,0.6295,0.6802,0.7843,0.9317,1.0924,0,0,0,0,0,0,0,0,0,0,0,0,0,0,0,0,0,0,0,0,0,0,0,0,0,0,0,0,0,0,0,0,0,0,0,0,0,0.1575,0.0747,0.0929,0.1426,0.1751,0.2387,0.4367,0.6412,0.7192,0.8836,0,0,0,0,0,0,0,0,0,0,0,0,0,0,0,0,0,0,0,0,0,0,0,0,0,0,0,0,0,0,0,0,0,0,0,0,0,0,0.1404,0.0817,0.0838,0.1111,0.1308,0.1388,0.1997,0.3994,0.5029,0,0,0,0,0,0,0,0,0,0,0,0,0,0,0,0,0,0,0,0,0,0,0,0,0,0,0,0,0,0,0,0,0,0,0,0,0,0,0,0.1442,0.1196,0.126,0.1436,0.1484,0.1223,0.078,0.0769,0,0,0,0,0,0,0,0,0,0,0,0,0,0,0,0,0,0,0,0,0,0,0,0,0,0,0,0,0,0,0,0,0,0,0,0,0,0,0,0,0,0,0,0,0.1388,0.1036,0.0982,0,0,0,0,0,0,0,0,0,0,0,0,0,0,0,0,0,0,0,0,0,0,0,0,0,0,0,0,0,0,0,0,0,0,0,0,0,0,0,0,0,0,0,0,0,0,0,0,0,0,0,0,0,0,0,0,0,0,0,0,0,0,0,0,0,0,0,0,0,0,0,0,0,0,0,0,0,0,0,0,0,0,0,0,0,0,0,0,0,0,0,0,0,0,0,0,0,0,0,0,0,0,0,0,0,0,0,0,0,0,0,0,0,0,0,0,0,0,0,0,0,0,0,0,0,0,0,0,0,0,0,0,0,0,0,0,0,0,0,0,0,0,0,0,0,0,0,0,0,0,0,0,0,0,0,0,0,0,0,0,0,0,0,0,0,0,0,0,0,0,0,0,0,0,0,0,0,0,0,0,0,0,0,0,0,0,0,0,0,0,0,0,0,0,0,0,0,0,0,0,0,0,0,0,0,0,0,0,0,0,0,0,0,0,0,0,0,0,0,0,0,0,0,0,0,0,0,0,0,0,0,0,0,0,0,0,0,0,0,0,0,0,0,0,0,0,0,0,0,0,0,0,0,0,0,0,0,0,0,0,0,0,0,0,0,0,0,0,0,0,0,0,0,0,0,0,0,0,0,0,0,0,0,0,0,0,0,0,0,0,0,0,0,0,0,0,0,0,0,0,0,0,0,0,0,0,0,0,0,0,0,0,0,0,0,0,0,0,0,0,0,0,0,0,0,0,0,0,0,0,0,0,0,0,0,0,0,0,0,0,0,0,0,0,0,0,0,0,0,0,0,0,0,0,0,0,0,0,0,0,0,0,0,0,0,0,0,0,0,0,0,0,0,0,0,0,0,0,0,0,0,0,0,0,0,0,0,0,0,0,0,0,0,0,0,0,0,0,0,0,0,0,0,0,0,0,0,0,0,0,0,0,0,0,0,0,0,0,0,0,0,0,0,0,0,0,0,0,0,0,0,0,0,0,0,0,0,0,0,0,0,0,0,0,0,0,0,0,0,0,0,0,0,0,0,0,0,0,0,0,0,0,0,0,0,0,0,0,0,0,0,0,0,0,0,0,0,0,0,0,0,0,0,0,0,0,0,0,0,0,0,0,0,0,0,0,0,0,0,0,0,0,0,0,0,0,0,0,0,0,0,0,0,0,0,0,0,0,0,0,0,0,0,0,0,0,0,0,0,0,0,0,0,0,0,0,0,0,0,0,0,0,0,0,0,0,0,0,0,0,0,0,0,0,0,0,0,0,0,0,0,0,0,0,0,0,0,0,0,0,0,0,0,0,0,0,0,0,0,0,0,0,0,0,0,0,0,0,0,0,0,0,0,0,0,0,0,0,0,0,0,0,0,0,0,0,0,0,0,0,0,0,0,0,0,0,0,0,0,0,0,0,0,0,0,0,0,0,0,0,0,0,0,0,0,0,0,0,0,0,0,0,0,0,0,0,0,0,0,0,0,0,0,0,0,0,0,0,0,0,0,0,0,0,0,0,0,0,0,0,0,0,0,0,0,0,0,0,0,0,0,0,0,0,0,0,0,0,0,0,0,0,0,0,0,0,0,0,0,0,0,0,0,0,0,0,0,0,0,0,0,0,0,0,0,0,0,0,0,0,0,0,0,0,0,0,0,0,0,0,0,0,0,0,0,0,0,0,0,0,0,0,0,0,0,0,0,0,0,0,0,0,0,0,0,0,0,0,0,0,0,0,0,0,0,0,0,0,0,0,0,0,0,0,0,0,0,0,0,0,0,0,0,0,0,0,0,0,0,0,0,0,0,0,0,0,0,0,0,0,0,0,0,0,0,0,0,0,0,0,0,0,0,0,0,0,0,0,0,0,0,0,0,0,0,0,0,0,0,0,0,0,0,0,0,0,0,0,0,0,0,0,0,0,0,0,0,0,0,0,0,0,0,0,0,0,0,0,0,0,0,0,0,0,0,0,0,0,0,0,0,0,0,0,0,0,0,0,0,0,0,0,0,0,0,0,0,0,0,0,0,0,0]}],[{"header":{"parameterUnit":"kt","parameterCategory":2,"dx":1,"dy":1,"la1":29.764190673828125,"la2":30.86408042907715,"lo1":-88.46762084960938,"lo2":-86.9344482421875,"nx":47,"ny":34,"refTime":"2022-09-28T00:00:00:Z","depth":"25","parameterNumber":3,"parameterNumberName":"V-component_of_CURRENTS"},"data":[0.2557,0.2931,0.3022,0.2931,0.284,0.2702,0.2429,0.2066,0.1735,0.1335,0.0886,0.0561,0.0427,0.0443,0.0545,0.0662,0.0822,0.1116,0.1634,0.2333,0.2953,0.3187,0.3203,0.3203,0.3225,0.3219,0.284,0.2819,0.3161,0.3214,0.2856,0.2766,0.2915,0.3193,0.3401,0.378,0.41,0.4148,0.3839,0.3337,0.2867,0.2723,0.2766,0.3049,0.3631,0.4255,0.4405,0.1938,0.2339,0.2547,0.2621,0.2632,0.2536,0.229,0.1986,0.1639,0.1233,0.086,0.0614,0.0481,0.0416,0.04,0.0432,0.0566,0.0796,0.1127,0.1618,0.2226,0.2734,0.3022,0.3118,0.3054,0.3011,0.3278,0.2867,0.2659,0.275,0.2419,0.2098,0.2392,0.2974,0.3529,0.41,0.4618,0.4907,0.4682,0.418,0.378,0.354,0.3588,0.3679,0.3935,0.4293,0.4431,0.1527,0.1799,0.2034,0.2205,0.2312,0.229,0.212,0.1831,0.1468,0.1116,0.0854,0.0683,0.0555,0.0459,0.0384,0.0368,0.0448,0.063,0.086,0.1116,0.1431,0.1826,0.2221,0.2456,0.2477,0.2381,0.2782,0.3284,0.2803,0.2274,0.2226,0.1821,0.1831,0.2573,0.3348,0.4122,0.4762,0.5222,0.5195,0.4837,0.4533,0.4357,0.4164,0.3978,0.3876,0.3962,0.4245,0.1249,0.1447,0.1618,0.1767,0.1879,0.1901,0.1778,0.1522,0.1207,0.0929,0.0747,0.0657,0.0603,0.0523,0.0443,0.0384,0.0422,0.0545,0.0694,0.0849,0.1025,0.1276,0.1607,0.1911,0.2093,0.2098,0.2392,0.347,0.3689,0.3401,0.339,0.2771,0.22,0.2531,0.3161,0.3833,0.4586,0.5088,0.5216,0.5136,0.496,0.4848,0.4597,0.4245,0.3721,0.355,0.3833,0.1078,0.1223,0.1329,0.1404,0.1442,0.142,0.1313,0.1121,0.0892,0.0705,0.0614,0.0619,0.0651,0.063,0.055,0.0454,0.0448,0.0507,0.0582,0.0673,0.079,0.1009,0.1324,0.1687,0.1965,0.2045,0.2189,0.3134,0.3823,0.4015,0.4154,0.409,0.3374,0.323,0.3801,0.4042,0.4335,0.4757,0.4971,0.4928,0.5029,0.5131,0.4976,0.4506,0.3791,0.3358,0.3454,0.095,0.1046,0.1111,0.1132,0.1116,0.1057,0.0956,0.0822,0.0683,0.0593,0.0582,0.0646,0.0715,0.0705,0.0635,0.0539,0.0502,0.0513,0.0529,0.0561,0.0635,0.0812,0.1121,0.1495,0.1821,0.1986,0.2061,0.2547,0.339,0.3721,0.3823,0.3892,0.3737,0.3534,0.3593,0.4405,0.5003,0.5168,0.4992,0.4885,0.488,0.5083,0.5376,0.5126,0.441,0.3652,0.338,0.0881,0.0945,0.0966,0.0961,0.0929,0.0876,0.0812,0.0737,0.0678,0.0651,0.0662,0.0694,0,0,0,0,0,0.0518,0.0497,0.0502,0.0561,0.0689,0.0918,0.1223,0.1538,0.1778,0.1911,0.2077,0.2589,0.2985,0.3219,0.3326,0.3321,0.3145,0.2995,0.3316,0.4207,0.5825,0.5969,0.5595,0.5483,0.5312,0.5403,0.5558,0.5115,0.4266,0.3486,0.0998,0.102,0.1014,0.0988,0.0945,0.0892,0.0838,0,0,0,0,0,0,0,0,0,0,0,0,0,0,0,0,0.103,0.1265,0.1474,0.165,0.1773,0.1911,0.2098,0.2312,0.2531,0.268,0.2792,0.2947,0.3193,0.3647,0.3951,0.5521,0.59,0.6161,0.6263,0.5884,0.5702,0.5499,0.4837,0.3855,0,0,0,0,0,0,0,0,0,0,0,0,0,0,0,0,0,0,0,0,0,0,0,0,0,0,0.1458,0.158,0.1628,0.1628,0.1655,0.1751,0.189,0.2088,0.2461,0.3033,0.3817,0.4239,0.3855,0.4645,0.5494,0.6482,0.6711,0.654,0.6071,0.5376,0.4474,0,0,0,0,0,0,0,0,0,0,0,0,0,0,0,0,0,0,0,0,0,0,0,0,0,0,0,0,0,0.1495,0.1393,0.1303,0.1271,0.1324,0.1554,0.2136,0.3166,0.4282,0.4528,0.3689,0.3444,0.465,0.5627,0.6839,0.6984,0.6375,0.5307,0,0,0,0,0,0,0,0,0,0,0,0,0,0,0,0,0,0,0,0,0,0,0,0,0,0,0,0,0,0,0,0,0,0.0966,0.0977,0.1228,0.2007,0.3241,0.4148,0.4052,0.3358,0.2936,0.2969,0.4506,0.6311,0.6701,0.6407,0,0,0,0,0,0,0,0,0,0,0,0,0,0,0,0,0,0,0,0,0,0,0,0,0,0,0,0,0,0,0,0,0,0,0,0,0,0.2232,0.3289,0.3673,0.3396,0.3017,0.2846,0.2953,0.2985,0.4875,0.559,0,0,0,0,0,0,0,0,0,0,0,0,0,0,0,0,0,0,0,0,0,0,0,0,0,0,0,0,0,0,0,0,0,0,0,0,0,0,0.2616,0.3289,0.3374,0.3187,0.2942,0.283,0.2995,0.3017,0.2504,0,0,0,0,0,0,0,0,0,0,0,0,0,0,0,0,0,0,0,0,0,0,0,0,0,0,0,0,0,0,0,0,0,0,0,0,0,0,0,0.2723,0.315,0.3273,0.3209,0.3139,0.3065,0.2888,0.2814,0,0,0,0,0,0,0,0,0,0,0,0,0,0,0,0,0,0,0,0,0,0,0,0,0,0,0,0,0,0,0,0,0,0,0,0,0,0,0,0,0,0,0,0,0.3209,0.3289,0.3155,0,0,0,0,0,0,0,0,0,0,0,0,0,0,0,0,0,0,0,0,0,0,0,0,0,0,0,0,0,0,0,0,0,0,0,0,0,0,0,0,0,0,0,0,0,0,0,0,0,0,0,0,0,0,0,0,0,0,0,0,0,0,0,0,0,0,0,0,0,0,0,0,0,0,0,0,0,0,0,0,0,0,0,0,0,0,0,0,0,0,0,0,0,0,0,0,0,0,0,0,0,0,0,0,0,0,0,0,0,0,0,0,0,0,0,0,0,0,0,0,0,0,0,0,0,0,0,0,0,0,0,0,0,0,0,0,0,0,0,0,0,0,0,0,0,0,0,0,0,0,0,0,0,0,0,0,0,0,0,0,0,0,0,0,0,0,0,0,0,0,0,0,0,0,0,0,0,0,0,0,0,0,0,0,0,0,0,0,0,0,0,0,0,0,0,0,0,0,0,0,0,0,0,0,0,0,0,0,0,0,0,0,0,0,0,0,0,0,0,0,0,0,0,0,0,0,0,0,0,0,0,0,0,0,0,0,0,0,0,0,0,0,0,0,0,0,0,0,0,0,0,0,0,0,0,0,0,0,0,0,0,0,0,0,0,0,0,0,0,0,0,0,0,0,0,0,0,0,0,0,0,0,0,0,0,0,0,0,0,0,0,0,0,0,0,0,0,0,0,0,0,0,0,0,0,0,0,0,0,0,0,0,0,0,0,0,0,0,0,0,0,0,0,0,0,0,0,0,0,0,0,0,0,0,0,0,0,0,0,0,0,0,0,0,0,0,0,0,0,0,0,0,0,0,0,0,0,0,0,0,0,0,0,0,0,0,0,0,0,0,0,0,0,0,0,0,0,0,0,0,0,0,0,0,0,0,0,0,0,0,0,0,0,0,0,0,0,0,0,0,0,0,0,0,0,0,0,0,0,0,0,0,0,0,0,0,0,0,0,0,0,0,0,0,0,0,0,0,0,0,0,0,0,0,0,0,0,0,0,0,0,0,0,0,0,0,0,0,0,0,0,0,0,0,0,0,0,0,0,0,0,0,0,0,0,0,0,0,0,0,0,0,0,0,0,0,0,0,0,0,0,0,0,0,0,0,0,0,0,0,0,0,0,0,0,0,0,0,0,0,0,0,0,0,0,0,0,0,0,0,0,0,0,0,0,0,0,0,0,0,0,0,0,0,0,0,0,0,0,0,0,0,0,0,0,0,0,0,0,0,0,0,0,0,0,0,0,0,0,0,0,0,0,0,0,0,0,0,0,0,0,0,0,0,0,0,0,0,0,0,0,0,0,0,0,0,0,0,0,0,0,0,0,0,0,0,0,0,0,0,0,0,0,0,0,0,0,0,0,0,0,0,0,0,0,0,0,0,0,0,0,0,0,0,0,0,0,0,0,0,0,0,0,0,0,0,0,0,0,0,0,0,0,0,0,0,0,0,0,0,0,0,0,0,0,0,0,0,0,0,0,0,0,0,0,0,0,0,0,0,0,0,0,0,0,0,0,0,0,0,0,0,0,0,0,0,0,0,0,0,0,0,0,0,0,0,0,0,0,0,0,0,0,0,0,0,0,0,0,0,0,0,0,0,0,0,0,0,0,0,0,0,0,0,0,0,0,0,0,0,0,0,0,0,0,0,0,0,0,0,0,0,0,0,0,0,0,0,0,0,0,0,0,0,0,0,0,0,0,0,0,0,0,0,0,0,0,0,0,0,0,0,0,0,0,0,0,0,0,0,0,0,0,0,0,0,0,0,0,0,0,0,0,0,0,0,0,0,0,0,0,0,0,0,0,0,0,0,0,0,0,0,0,0,0,0,0,0,0,0,0,0,0,0,0,0,0,0,0,0,0,0,0,0,0,0,0,0,0,0,0,0,0,0,0,0,0,0,0,0,0,0,0,0,0,0,0,0,0,0,0,0,0,0,0,0,0,0,0,0,0,0,0,0,0,0,0,0,0,0,0,0,0,0,0,0,0,0,0,0,0,0,0,0,0,0,0,0,0,0,0,0,0]}]]]